[[{"header":{"parameterUnit":"m.s-1","parameterCategory":1,"la1":31.0,"la2":29.5877,"lo1":-88.7671,"lo2":-86.6584,"dy":0.0162,"dx":0.0185,"nx":115,"ny":88,"refTime":"2026-03-14T12:00:00:Z","depth":0,"parameterNumber":2,"parameterNumberName":"U-component_of_WINDS"},"data":[0.0,0.0,0.0,0.0,0.0,0.0,0.0,0.0,0.0,0.0,0.0,0.0,0.0,0.0,0.0,0.0,0.0,0.0,0.0,0.0,0.0,0.0,0.0,0.0,0.0,0.0,0.0,0.0,0.0,0.0,0.0,0.0,0.0,0.0,0.0,0.0,0.0,0.0,0.0,0.0,0.0,0.0,0.0,0.0,0.0,0.0,0.0,0.0,0.0,0.0,0.0,0.0,0.0,0.0,0.0,0.0,0.0,0.0,0.0,0.0,0.0,0.0,0.0,0.0,0.0,0.0,0.0,0.0,0.0,0.0,0.0,0.0,0.0,0.0,0.0,0.0,0.0,0.0,0.0,0.0,0.0,0.0,0.0,0.0,0.0,0.0,0.0,0.0,0.0,0.0,0.0,0.0,0.0,0.0,0.0,0.0,0.0,0.0,0.0,0.0,0.0,0.0,0.0,0.0,0.0,0.0,0.0,0.0,0.0,0.0,0.0,0.0,0.0,0.0,0.0,0.0,0.0,0.0,0.0,0.0,0.0,0.0,0.0,0.0,0.0,0.0,0.0,0.0,0.0,0.0,0.0,0.0,0.0,0.0,0.0,0.0,0.0,0.0,0.0,0.0,0.0,0.0,0.0,0.0,0.0,0.0,0.0,0.0,0.0,0.0,0.0,0.0,0.0,0.0,0.0,0.0,0.0,0.0,0.0,0.0,0.0,0.0,0.0,0.0,0.0,0.0,0.0,0.0,0.0,0.0,0.0,0.0,0.0,0.0,0.0,0.0,0.0,0.0,0.0,0.0,0.0,0.0,0.0,0.0,0.0,0.0,0.0,0.0,0.0,0.0,0.0,0.0,0.0,0.0,0.0,0.0,0.0,0.0,0.0,0.0,0.0,0.0,0.0,0.0,0.0,0.0,0.0,0.0,0.0,0.0,0.0,0.0,0.0,0.0,0.0,0.0,0.0,0.0,0.0,0.0,0.0,0.0,0.0,0.0,0.0,0.0,0.0,0.0,0.0,0.0,0.0,0.0,0.0,0.0,0.0,0.0,0.0,0.0,0.0,0.0,0.0,0.0,0.0,0.0,0.0,0.0,0.0,0.0,0.0,0.0,0.0,0.0,0.0,0.0,0.0,0.0,0.0,0.0,0.0,0.0,0.0,0.0,0.0,0.0,0.0,0.0,0.0,0.0,0.0,0.0,0.0,0.0,0.0,0.0,0.0,0.0,0.0,0.0,0.0,0.0,0.0,0.0,0.0,0.0,0.0,0.0,0.0,0.0,0.0,0.0,0.0,0.0,0.0,0.0,0.0,0.0,0.0,0.0,0.0,0.0,0.0,0.0,0.0,0.0,0.0,0.0,0.0,0.0,0.0,0.0,0.0,0.0,0.0,0.0,0.0,0.0,0.0,0.0,0.0,0.0,0.0,0.0,0.0,0.0,0.0,0.0,0.0,0.0,0.0,0.0,0.0,0.0,0.0,0.0,0.0,0.0,0.0,0.0,0.0,0.0,0.0,0.0,0.0,0.0,0.0,0.0,0.0,0.0,0.0,0.0,0.0,0.0,0.0,0.0,0.0,0.0,0.0,0.0,0.0,0.0,0.0,0.0,0.0,0.0,0.0,0.0,0.0,0.0,0.0,0.0,0.0,0.0,0.0,0.0,0.0,0.0,0.0,0.0,0.0,0.0,0.0,0.0,0.0,0.0,0.0,0.0,0.0,0.0,0.0,0.0,0.0,0.0,0.0,0.0,0.0,0.0,0.0,0.0,0.0,0.0,0.0,0.0,0.0,0.0,0.0,0.0,0.0,0.0,0.0,0.0,0.0,0.0,0.0,0.0,0.0,0.0,0.0,0.0,0.0,0.0,0.0,0.0,0.0,0.0,0.0,0.0,0.0,0.0,0.0,0.0,0.0,0.0,0.0,0.0,0.0,0.0,0.0,0.0,0.0,0.0,0.0,0.0,0.0,0.0,0.0,0.0,0.0,0.0,0.0,0.0,0.0,0.0,0.0,0.0,0.0,0.0,0.0,0.0,0.0,0.0,0.0,0.0,0.0,0.0,0.0,0.0,0.0,0.0,0.0,0.0,0.0,0.0,0.0,0.0,0.0,0.0,0.0,0.0,0.0,0.0,0.0,0.0,0.0,0.0,0.0,0.0,0.0,0.0,0.0,0.0,0.0,0.0,0.0,0.0,0.0,0.0,0.0,0.0,0.0,0.0,0.0,0.0,0.0,0.0,0.0,0.0,0.0,0.0,0.0,0.0,0.0,0.0,0.0,0.0,0.0,0.0,0.0,0.0,0.0,0.0,0.0,0.0,0.0,0.0,0.0,0.0,0.0,0.0,0.0,0.0,0.0,0.0,0.0,0.0,0.0,0.0,0.0,0.0,0.0,0.0,0.0,0.0,0.0,0.0,0.0,0.0,0.0,0.0,0.0,0.0,0.0,0.0,0.0,0.0,0.0,0.0,0.0,0.0,0.0,0.0,0.0,0.0,0.0,0.0,0.0,0.0,0.0,0.0,0.0,0.0,0.0,0.0,0.0,0.0,0.0,0.0,0.0,0.0,0.0,0.0,0.0,0.0,0.0,0.0,0.0,0.0,0.0,0.0,0.0,0.0,0.0,0.0,0.0,0.0,0.0,0.0,0.0,0.0,0.0,0.0,0.0,0.0,0.0,0.0,0.0,0.0,0.0,0.0,0.0,0.0,0.0,0.0,0.0,0.0,0.0,0.0,0.0,0.0,0.0,0.0,0.0,0.0,0.0,0.0,0.0,0.0,0.0,0.0,0.0,0.0,0.0,0.0,0.0,0.0,0.0,0.0,0.0,0.0,0.0,0.0,0.0,0.0,0.0,0.0,0.0,0.0,0.0,0.0,0.0,0.0,0.0,0.0,0.0,0.0,0.0,0.0,0.0,0.0,0.0,0.0,0.0,0.0,0.0,0.0,0.0,0.0,0.0,0.0,0.0,0.0,0.0,0.0,0.0,0.0,0.0,0.0,0.0,0.0,0.0,0.0,0.0,0.0,0.0,0.0,0.0,0.0,0.0,0.0,0.0,0.0,0.0,0.0,0.0,0.0,0.0,0.0,0.0,0.0,0.0,0.0,0.0,0.0,0.0,0.0,0.0,0.0,0.0,0.0,0.0,0.0,0.0,0.0,0.0,0.0,0.0,0.0,0.0,0.0,0.0,0.0,0.0,0.0,0.0,0.0,0.0,0.0,0.0,0.0,0.0,0.0,0.0,0.0,0.0,0.0,0.0,0.0,0.0,0.0,0.0,0.0,0.0,0.0,0.0,0.0,0.0,0.0,0.0,0.0,0.0,0.0,0.0,0.0,0.0,0.0,0.0,0.0,0.0,0.0,0.0,0.0,0.0,0.0,0.0,0.0,0.0,0.0,0.0,0.0,0.0,0.0,0.0,0.0,0.0,0.0,0.0,0.0,0.0,0.0,0.0,0.0,0.0,0.0,0.0,0.0,0.0,0.0,0.0,0.0,0.0,0.0,0.0,0.0,0.0,0.0,0.0,0.0,0.0,0.0,0.0,0.0,0.0,0.0,0.0,0.0,0.0,0.0,0.0,0.0,0.0,0.0,0.0,0.0,0.0,0.0,0.0,0.0,0.0,0.0,0.0,0.0,0.0,0.0,0.0,0.0,0.0,0.0,0.0,0.0,0.0,0.0,0.0,0.0,0.0,0.0,0.0,0.0,0.0,0.0,0.0,0.0,0.0,0.0,0.0,0.0,0.0,0.0,0.0,0.0,0.0,0.0,0.0,0.0,0.0,0.0,0.0,0.0,0.0,0.0,0.0,0.0,0.0,0.0,0.0,0.0,0.0,0.0,0.0,0.0,0.0,0.0,0.0,0.0,0.0,0.0,0.0,0.0,0.0,0.0,0.0,0.0,0.0,0.0,0.0,0.0,0.0,0.0,0.0,0.0,0.0,0.0,0.0,0.0,0.0,0.0,0.0,0.0,0.0,0.0,0.0,0.0,0.0,0.0,0.0,0.0,0.0,0.0,0.0,0.0,0.0,0.0,0.0,0.0,0.0,0.0,0.0,0.0,0.0,0.0,0.0,0.0,0.0,0.0,0.0,0.0,0.0,0.0,0.0,0.0,0.0,0.0,0.0,0.0,0.0,0.0,0.0,0.0,0.0,0.0,0.0,0.0,0.0,0.0,0.0,0.0,0.0,0.0,0.0,0.0,0.0,0.0,0.0,0.0,0.0,0.0,0.0,0.0,0.0,0.0,0.0,0.0,0.0,0.0,0.0,0.0,0.0,0.0,-0.9905,0.0,0.0,0.0,0.0,0.0,0.0,0.0,0.0,0.0,0.0,0.0,0.0,0.0,0.0,0.0,0.0,0.0,0.0,0.0,0.0,0.0,0.0,0.0,0.0,0.0,0.0,0.0,0.0,0.0,0.0,0.0,0.0,0.0,0.0,0.0,0.0,0.0,0.0,0.0,0.0,0.0,0.0,0.0,0.0,0.0,0.0,0.0,0.0,0.0,0.0,0.0,0.0,0.0,0.0,0.0,0.0,0.0,0.0,0.0,0.0,0.0,0.0,0.0,0.0,0.0,0.0,0.0,0.0,0.0,0.0,0.0,0.0,0.0,0.0,0.0,0.0,0.0,0.0,0.0,0.0,0.0,0.0,0.0,0.0,0.0,0.0,0.0,0.0,0.0,0.0,0.0,0.0,0.0,0.0,0.0,0.0,0.0,0.0,0.0,0.0,0.0,0.0,0.0,0.0,0.0,0.0,0.0,0.0,0.0,0.0,-0.9352,-0.9632,-1.0089,-1.0193,-0.9931,0.0,0.0,0.0,0.0,0.0,0.0,0.0,0.0,0.0,0.0,0.0,0.0,0.0,0.0,0.0,0.0,0.0,0.0,0.0,0.0,0.0,0.0,0.0,0.0,0.0,0.0,0.0,0.0,0.0,0.0,0.0,0.0,0.0,0.0,0.0,0.0,0.0,0.0,0.0,0.0,0.0,0.0,0.0,0.0,0.0,0.0,0.0,0.0,0.0,0.0,0.0,0.0,0.0,0.0,0.0,0.0,0.0,0.0,0.0,0.0,0.0,0.0,0.0,0.0,0.0,0.0,0.0,0.0,0.0,0.0,0.0,0.0,0.0,0.0,0.0,0.0,0.0,0.0,0.0,0.0,0.0,0.0,0.0,0.0,0.0,0.0,0.0,0.0,0.0,0.0,0.0,0.0,0.0,0.0,0.0,0.0,0.0,0.0,0.0,0.0,0.0,0.0,0.0,0.0,0.0,0.0,0.0,0.0,0.0,0.0,0.0,0.0,-1.0389,-1.0673,-1.0494,0.0,0.0,0.0,0.0,0.0,0.0,0.0,0.0,0.0,0.0,0.0,0.0,0.0,0.0,0.0,0.0,0.0,0.0,0.0,0.0,0.0,0.0,0.0,0.0,0.0,0.0,0.0,0.0,0.0,0.0,0.0,0.0,0.0,0.0,0.0,0.0,0.0,0.0,0.0,0.0,0.0,0.0,0.0,0.0,0.0,0.0,0.0,0.0,0.0,0.0,0.0,0.0,0.0,0.0,0.0,0.0,0.0,0.0,0.0,0.0,0.0,0.0,0.0,0.0,0.0,0.0,0.0,0.0,0.0,0.0,0.0,0.0,0.0,0.0,0.0,0.0,0.0,0.0,0.0,0.0,0.0,0.0,0.0,0.0,0.0,0.0,0.0,0.0,0.0,0.0,0.0,0.0,0.0,0.0,0.0,0.0,0.0,0.0,0.0,0.0,0.0,0.0,0.0,0.0,0.0,0.0,0.0,0.0,0.0,0.0,-0.9094,-1.0545,-1.0832,0.0,-1.2105,0.0,0.0,0.0,0.0,0.0,0.0,0.0,0.0,0.0,0.0,0.0,0.0,0.0,0.0,0.0,0.0,0.0,0.0,0.0,0.0,0.0,0.0,0.0,0.0,0.0,0.0,0.0,0.0,0.0,0.0,0.0,0.0,0.0,0.0,0.0,0.0,0.0,0.0,0.0,0.0,0.0,0.0,0.0,0.0,0.0,0.0,0.0,0.0,0.0,0.0,0.0,0.0,0.0,0.0,0.0,0.0,0.0,0.0,0.0,0.0,0.0,0.0,0.0,0.0,0.0,0.0,0.0,0.0,0.0,0.0,0.0,0.0,0.0,0.0,0.0,0.0,0.0,0.0,0.0,0.0,0.0,0.0,0.0,0.0,0.0,0.0,0.0,0.0,0.0,0.0,0.0,0.0,0.0,0.0,0.0,0.0,0.0,0.0,0.0,0.0,0.0,0.0,0.0,0.0,0.0,0.0,0.0,0.0,0.0,0.0,-0.9713,-1.0037,-1.0316,-1.0785,0.0,0.0,0.0,0.0,0.0,0.0,0.0,0.0,0.0,0.0,0.0,0.0,0.0,0.0,0.0,0.0,0.0,0.0,0.0,0.0,0.0,0.0,0.0,0.0,0.0,0.0,0.0,0.0,0.0,0.0,0.0,0.0,0.0,0.0,0.0,0.0,0.0,0.0,0.0,0.0,0.0,0.0,0.0,0.0,0.0,0.0,0.0,0.0,0.0,0.0,0.0,0.0,0.0,0.0,0.0,0.0,0.0,0.0,0.0,0.0,0.0,0.0,0.0,0.0,0.0,0.0,0.0,0.0,0.0,0.0,0.0,0.0,0.0,0.0,0.0,0.0,0.0,0.0,0.0,0.0,0.0,0.0,0.0,0.0,0.0,0.0,0.0,0.0,0.0,0.0,0.0,0.0,0.0,0.0,0.0,0.0,0.0,0.0,0.0,0.0,0.0,0.0,0.0,0.0,0.0,0.0,0.0,0.0,0.0,0.0,-0.947,0.0,-1.0204,-1.043,-1.0682,-1.0928,0.0,0.0,0.0,0.0,0.0,0.0,0.0,0.0,0.0,0.0,0.0,0.0,0.0,0.0,0.0,0.0,0.0,0.0,0.0,0.0,0.0,0.0,0.0,0.0,0.0,0.0,0.0,0.0,0.0,0.0,0.0,0.0,0.0,0.0,0.0,0.0,0.0,0.0,0.0,0.0,0.0,0.0,0.0,0.0,0.0,0.0,0.0,0.0,0.0,0.0,0.0,0.0,0.0,0.0,0.0,0.0,0.0,0.0,0.0,0.0,0.0,0.0,0.0,0.0,0.0,0.0,0.0,0.0,0.0,0.0,0.0,0.0,0.0,0.0,0.0,0.0,0.0,0.0,0.0,0.0,0.0,0.0,0.0,0.0,0.0,0.0,0.0,0.0,0.0,0.0,0.0,0.0,0.0,0.0,0.0,0.0,0.0,0.0,0.0,0.0,0.0,0.0,0.0,0.0,0.0,0.0,0.0,0.0,0.0,-0.945,-0.9932,-1.16,-1.1725,-1.1491,0.0,0.0,0.0,0.0,0.0,0.0,0.0,0.0,0.0,0.0,0.0,0.0,0.0,0.0,0.0,0.0,0.0,0.0,0.0,0.0,0.0,0.0,0.0,0.0,0.0,0.0,0.0,0.0,0.0,0.0,0.0,0.0,0.0,0.0,0.0,0.0,0.0,0.0,0.0,0.0,0.0,0.0,0.0,0.0,0.0,0.0,0.0,0.0,0.0,0.0,0.0,0.0,0.0,0.0,0.0,0.0,0.0,0.0,0.0,0.0,0.0,0.0,0.0,0.0,0.0,0.0,0.0,0.0,0.0,0.0,0.0,0.0,0.0,0.0,0.0,0.0,0.0,0.0,0.0,0.0,0.0,0.0,0.0,0.0,0.0,0.0,0.0,0.0,0.0,0.0,0.0,0.0,0.0,0.0,0.0,0.0,0.0,0.0,0.0,0.0,0.0,0.0,0.0,0.0,0.0,0.0,0.0,0.0,0.0,-0.8991,-0.9266,-1.0229,-1.1866,-1.0704,-1.0175,0.0,0.0,0.0,0.0,0.0,0.0,0.0,0.0,0.0,0.0,0.0,0.0,0.0,0.0,0.0,0.0,0.0,0.0,0.0,0.0,0.0,0.0,0.0,0.0,0.0,0.0,0.0,0.0,0.0,0.0,0.0,0.0,0.0,0.0,0.0,0.0,0.0,0.0,0.0,0.0,0.0,0.0,0.0,0.0,0.0,0.0,0.0,0.0,0.0,0.0,0.0,0.0,0.0,0.0,0.0,0.0,0.0,0.0,0.0,0.0,0.0,0.0,0.0,0.0,0.0,0.0,0.0,0.0,0.0,0.0,0.0,0.0,0.0,0.0,0.0,0.0,0.0,0.0,0.0,0.0,0.0,0.0,0.0,0.0,0.0,0.0,0.0,0.0,0.0,0.0,0.0,0.0,0.0,0.0,0.0,0.0,0.0,0.0,0.0,0.0,0.0,0.0,0.0,0.0,0.0,0.0,0.0,0.0,0.0,-0.9432,0.0,-1.1019,0.0,-1.0321,-0.9505,0.0,0.0,0.0,0.0,0.0,0.0,0.0,0.0,0.0,0.0,0.0,0.0,0.0,0.0,0.0,0.0,0.0,0.0,0.0,0.0,0.0,0.0,0.0,0.0,0.0,0.0,0.0,0.0,0.0,0.0,0.0,0.0,0.0,0.0,0.0,0.0,0.0,0.0,0.0,0.0,0.0,0.0,0.0,0.0,0.0,0.0,0.0,0.0,0.0,0.0,0.0,0.0,0.0,0.0,0.0,0.0,0.0,0.0,0.0,0.0,0.0,0.0,0.0,0.0,0.0,0.0,0.0,0.0,0.0,0.0,0.0,0.0,0.0,0.0,0.0,0.0,0.0,0.0,0.0,0.0,0.0,0.0,0.0,0.0,0.0,0.0,0.0,0.0,0.0,0.0,0.0,0.0,0.0,0.0,0.0,0.0,0.0,0.0,0.0,0.0,0.0,0.0,0.0,0.0,0.0,0.0,0.0,0.0,-0.9923,-1.1684,-1.2209,-1.2252,-1.1823,-1.0829,-0.9697,0.0,0.0,0.0,0.0,0.0,0.0,0.0,0.0,0.0,0.0,0.0,0.0,0.0,0.0,0.0,0.0,0.0,0.0,0.0,0.0,0.0,0.0,0.0,0.0,0.0,0.0,0.0,0.0,0.0,0.0,0.0,0.0,0.0,0.0,0.0,0.0,0.0,0.0,0.0,0.0,0.0,0.0,0.0,0.0,0.0,0.0,0.0,0.0,0.0,0.0,0.0,0.0,0.0,0.0,0.0,0.0,0.0,0.0,0.0,0.0,0.0,0.0,0.0,0.0,0.0,0.0,0.0,0.0,0.0,0.0,0.0,0.0,0.0,0.0,0.0,0.0,0.0,0.0,0.0,0.0,0.0,0.0,0.0,0.0,0.0,0.0,0.0,0.0,0.0,0.0,0.0,0.0,0.0,0.0,0.0,0.0,0.0,0.0,0.0,0.0,0.0,0.0,0.0,0.0,0.0,0.0,0.0,0.0,0.0,-1.2222,-1.2853,-1.3002,-1.2616,-1.1258,-1.038,0.0,0.0,0.0,0.0,0.0,0.0,0.0,0.0,0.0,0.0,0.0,0.0,0.0,0.0,0.0,0.0,0.0,0.0,0.0,0.0,0.0,0.0,0.0,0.0,0.0,0.0,0.0,0.0,0.0,0.0,0.0,0.0,0.0,0.0,0.0,0.0,0.0,0.0,0.0,0.0,0.0,0.0,0.0,0.0,0.0,0.0,0.0,0.0,0.0,0.0,0.0,0.0,0.0,0.0,0.0,0.0,0.0,0.0,0.0,0.0,0.0,0.0,0.0,0.0,0.0,0.0,0.0,0.0,0.0,0.0,0.0,0.0,0.0,0.0,0.0,0.0,0.0,0.0,0.0,0.0,0.0,0.0,0.0,0.0,0.0,0.0,0.0,0.0,0.0,0.0,0.0,0.0,0.0,0.0,0.0,0.0,0.0,0.0,0.0,0.0,0.0,0.0,0.0,0.0,0.0,0.0,0.0,0.0,0.0,-1.4289,-1.445,-1.4235,-1.3503,-1.2098,-1.1254,-1.1049,0.0,0.0,0.0,0.0,0.0,0.0,0.0,0.0,0.0,0.0,0.0,0.0,0.0,0.0,0.0,0.0,0.0,0.0,0.0,0.0,0.0,0.0,0.0,0.0,0.0,0.0,0.0,0.0,0.0,0.0,0.0,0.0,0.0,0.0,0.0,0.0,0.0,0.0,0.0,0.0,0.0,0.0,0.0,0.0,0.0,0.0,0.0,0.0,0.0,0.0,0.0,0.0,0.0,0.0,0.0,0.0,0.0,0.0,0.0,0.0,0.0,0.0,0.0,0.0,0.0,0.0,0.0,0.0,0.0,0.0,0.0,0.0,0.0,0.0,0.0,0.0,0.0,0.0,0.0,0.0,0.0,0.0,0.0,0.0,0.0,0.0,0.0,0.0,0.0,0.0,0.0,0.0,0.0,0.0,0.0,0.0,0.0,0.0,0.0,0.0,0.0,0.0,0.0,0.0,0.0,0.0,0.0,0.0,-1.7391,-1.6863,-1.5894,-1.4474,-1.3329,-1.2302,0.0,0.0,0.0,0.0,0.0,0.0,0.0,0.0,0.0,0.0,0.0,0.0,0.0,0.0,0.0,0.0,0.0,0.0,0.0,0.0,0.0,0.0,0.0,0.0,0.0,0.0,0.0,0.0,0.0,0.0,0.0,0.0,0.0,0.0,0.0,0.0,0.0,0.0,0.0,0.0,0.0,0.0,0.0,0.0,0.0,0.0,0.0,0.0,0.0,0.0,0.0,0.0,0.0,0.0,0.0,0.0,0.0,0.0,0.0,0.0,0.0,0.0,0.0,0.0,0.0,0.0,0.0,0.0,0.0,0.0,0.0,0.0,0.0,0.0,0.0,0.0,0.0,0.0,0.0,0.0,0.0,0.0,0.0,0.0,0.0,0.0,0.0,0.0,0.0,0.0,0.0,0.0,0.0,0.0,0.0,0.0,0.0,0.0,0.0,0.0,0.0,0.0,0.0,0.0,0.0,0.0,0.0,0.0,0.0,-1.8623,-1.8859,-1.7987,-1.5922,-1.4886,-1.3677,0.0,0.0,0.0,0.0,0.0,0.0,0.0,0.0,0.0,0.0,0.0,0.0,0.0,0.0,0.0,0.0,0.0,0.0,0.0,0.0,0.0,0.0,0.0,0.0,0.0,0.0,0.0,0.0,0.0,0.0,0.0,0.0,0.0,0.0,0.0,0.0,0.0,0.0,0.0,0.0,0.0,0.0,0.0,0.0,0.0,0.0,0.0,0.0,0.0,0.0,0.0,0.0,0.0,0.0,0.0,0.0,0.0,0.0,0.0,0.0,0.0,0.0,0.0,0.0,0.0,0.0,0.0,0.0,0.0,0.0,0.0,0.0,0.0,0.0,0.0,0.0,0.0,0.0,0.0,0.0,0.0,0.0,0.0,0.0,0.0,0.0,0.0,0.0,0.0,0.0,0.0,0.0,0.0,0.0,0.0,0.0,0.0,0.0,0.0,0.0,0.0,0.0,0.0,0.0,0.0,0.0,0.0,0.0,-1.9269,-1.9396,-2.0233,-1.9492,-1.7111,-1.6062,-1.4793,0.0,0.0,0.0,0.0,0.0,0.0,0.0,0.0,0.0,0.0,0.0,0.0,0.0,0.0,0.0,0.0,0.0,0.0,0.0,0.0,0.0,0.0,0.0,0.0,0.0,0.0,0.0,0.0,0.0,0.0,0.0,0.0,0.0,0.0,0.0,0.0,0.0,0.0,0.0,0.0,0.0,0.0,0.0,0.0,0.0,0.0,0.0,0.0,0.0,0.0,0.0,0.0,0.0,0.0,0.0,0.0,0.0,0.0,0.0,0.0,0.0,0.0,0.0,0.0,0.0,0.0,0.0,0.0,0.0,0.0,0.0,0.0,0.0,0.0,0.0,0.0,0.0,0.0,0.0,0.0,0.0,0.0,0.0,0.0,0.0,0.0,0.0,0.0,0.0,0.0,0.0,0.0,0.0,0.0,0.0,0.0,0.0,0.0,0.0,0.0,0.0,0.0,0.0,0.0,0.0,0.0,0.0,0.0,-2.0462,-2.0026,-2.1112,-2.0475,-1.7994,-1.6858,-1.5606,0.0,0.0,0.0,0.0,0.0,0.0,0.0,0.0,0.0,0.0,0.0,0.0,0.0,0.0,0.0,0.0,0.0,0.0,0.0,0.0,0.0,0.0,0.0,0.0,0.0,0.0,0.0,0.0,0.0,0.0,0.0,0.0,0.0,0.0,0.0,0.0,0.0,0.0,0.0,0.0,0.0,0.0,0.0,0.0,0.0,0.0,0.0,0.0,0.0,0.0,0.0,0.0,0.0,0.0,0.0,0.0,0.0,0.0,0.0,0.0,0.0,0.0,0.0,0.0,0.0,0.0,0.0,0.0,0.0,0.0,0.0,0.0,0.0,0.0,0.0,0.0,0.0,0.0,0.0,0.0,0.0,0.0,0.0,0.0,0.0,0.0,0.0,0.0,0.0,0.0,0.0,0.0,0.0,0.0,0.0,0.0,0.0,0.0,0.0,0.0,0.0,0.0,0.0,0.0,0.0,0.0,0.0,0.0,-2.089,-2.1282,-2.1549,-2.0475,-1.7955,-1.6931,-1.5591,0.0,0.0,0.0,0.0,0.0,0.0,0.0,0.0,0.0,0.0,0.0,0.0,0.0,0.0,0.0,0.0,0.0,0.0,0.0,0.0,0.0,0.0,0.0,0.0,0.0,0.0,0.0,0.0,0.0,0.0,0.0,0.0,0.0,0.0,0.0,0.0,0.0,0.0,0.0,0.0,0.0,0.0,0.0,0.0,0.0,0.0,0.0,0.0,-0.6438,0.0,0.0,0.0,0.0,0.0,0.0,0.0,0.0,0.0,0.0,0.0,0.0,0.0,0.0,0.0,0.0,0.0,0.0,0.0,0.0,0.0,0.0,0.0,0.0,0.0,0.0,0.0,0.0,0.0,0.0,0.0,0.0,0.0,0.0,0.0,0.0,0.0,0.0,0.0,0.0,0.0,0.0,0.0,0.0,0.0,0.0,0.0,0.0,0.0,0.0,0.0,0.0,0.0,0.0,0.0,0.0,0.0,0.0,0.0,-2.1799,-2.2121,-2.2163,-2.1055,-1.8776,-1.7207,-1.5581,0.0,0.0,0.0,0.0,0.0,0.0,0.0,0.0,0.0,0.0,0.0,0.0,0.0,0.0,0.0,0.0,0.0,0.0,0.0,0.0,0.0,0.0,0.0,0.0,0.0,0.0,0.0,0.0,0.0,0.0,0.0,0.0,0.0,0.0,0.0,0.0,0.0,0.0,0.0,0.0,0.0,0.0,0.0,0.0,0.0,0.0,0.0,0.0,0.0,0.0,0.0,0.0,0.0,0.0,0.0,0.0,0.0,0.0,0.0,0.0,0.0,0.0,0.0,0.0,0.0,0.0,0.0,0.0,0.0,0.0,0.0,0.0,0.0,0.0,0.0,0.0,0.0,0.0,0.0,0.0,0.0,0.0,0.0,0.0,0.0,0.0,0.0,0.0,0.0,0.0,0.0,0.0,0.0,0.0,0.0,0.0,0.0,0.0,0.0,0.0,0.0,0.0,0.0,0.0,0.0,0.0,0.0,-2.1834,-2.2724,-2.2757,-2.2729,-2.1716,-1.9638,-1.7523,-1.5648,-1.4058,0.0,0.0,0.0,0.0,0.0,0.0,0.0,0.0,0.0,0.0,0.0,0.0,0.0,0.0,0.0,0.0,0.0,0.0,0.0,0.0,0.0,0.0,0.0,0.0,0.0,0.0,0.0,0.0,0.0,0.0,0.0,0.0,0.0,0.0,0.0,0.0,0.0,0.0,-0.8266,-0.9198,0.0,0.0,0.0,0.0,0.0,0.0,0.0,0.0,-0.7742,0.0,0.0,0.0,0.0,0.0,0.0,0.0,0.0,0.0,0.0,0.0,0.0,0.0,0.0,0.0,0.0,0.0,0.0,0.0,0.0,0.0,0.0,0.0,0.0,0.0,0.0,0.0,0.0,0.0,0.0,0.0,0.0,0.0,0.0,0.0,0.0,0.0,0.0,0.0,0.0,0.0,0.0,0.0,0.0,0.0,0.0,0.0,0.0,0.0,0.0,0.0,0.0,0.0,0.0,0.0,0.0,-2.2149,-2.2538,-2.2943,-2.3407,-2.2951,-2.1716,-1.9641,-1.7523,-1.5947,-1.4961,0.0,0.0,0.0,0.0,0.0,0.0,0.0,0.0,0.0,0.0,0.0,0.0,0.0,0.0,0.0,0.0,0.0,0.0,0.0,0.0,0.0,0.0,0.0,0.0,0.0,0.0,0.0,0.0,0.0,0.0,0.0,0.0,0.0,0.0,0.0,0.0,0.0,0.0,0.0,-1.1272,-1.1209,0.0,0.0,0.0,0.0,0.0,0.0,0.0,0.0,-0.825,0.0,0.0,0.0,0.0,0.0,0.0,0.0,0.0,0.0,0.0,0.0,0.0,0.0,0.0,0.0,0.0,0.0,0.0,0.0,0.0,0.0,0.0,0.0,0.0,0.0,0.0,0.0,0.0,0.0,0.0,0.0,0.0,0.0,0.0,0.0,0.0,0.0,0.0,0.0,0.0,0.0,0.0,0.0,0.0,0.0,0.0,0.0,0.0,0.0,0.0,0.0,0.0,0.0,0.0,0.0,-2.2579,-2.3622,-2.4439,-2.505,-2.414,-2.2854,-2.1181,-1.8628,-1.6802,0.0,0.0,0.0,0.0,0.0,0.0,0.0,0.0,0.0,0.0,0.0,0.0,0.0,0.0,0.0,0.0,0.0,0.0,0.0,0.0,0.0,0.0,0.0,0.0,0.0,0.0,0.0,0.0,0.0,0.0,0.0,0.0,0.0,0.0,0.0,0.0,0.0,0.0,0.0,0.0,-1.253,-1.2803,-1.2418,0.0,0.0,0.0,0.0,0.0,0.0,-0.9901,-0.9697,0.0,0.0,0.0,0.0,0.0,0.0,0.0,0.0,0.0,0.0,0.0,0.0,0.0,0.0,0.0,0.0,0.0,0.0,0.0,0.0,0.0,0.0,0.0,0.0,0.0,0.0,0.0,0.0,0.0,0.0,0.0,0.0,0.0,0.0,0.0,0.0,0.0,0.0,0.0,0.0,0.0,0.0,0.0,0.0,0.0,0.0,0.0,0.0,0.0,0.0,0.0,0.0,0.0,0.0,0.0,-2.2864,-2.4704,-2.5901,-2.6433,-2.5351,-2.4063,-2.2618,-1.9837,-1.767,0.0,0.0,0.0,0.0,0.0,0.0,0.0,0.0,0.0,0.0,0.0,0.0,0.0,0.0,0.0,0.0,0.0,0.0,0.0,0.0,0.0,0.0,0.0,0.0,0.0,0.0,0.0,0.0,0.0,0.0,0.0,0.0,0.0,0.0,0.0,0.0,0.0,0.0,0.0,0.0,0.0,-1.4754,-1.3499,-1.3273,0.0,0.0,0.0,0.0,-1.1344,-1.174,0.0,0.0,0.0,0.0,0.0,0.0,0.0,0.0,0.0,0.0,0.0,0.0,0.0,0.0,0.0,0.0,0.0,0.0,0.0,0.0,0.0,0.0,0.0,0.0,0.0,0.0,0.0,0.0,0.0,0.0,0.0,0.0,0.0,0.0,0.0,0.0,0.0,0.0,0.0,0.0,0.0,0.0,0.0,0.0,0.0,0.0,0.0,0.0,0.0,0.0,0.0,0.0,0.0,0.0,0.0,0.0,-2.3479,-2.5407,-2.6409,-2.6474,-2.5891,-2.4615,-2.2658,-2.0295,-1.8031,0.0,0.0,0.0,0.0,0.0,0.0,0.0,0.0,0.0,0.0,0.0,0.0,0.0,0.0,0.0,0.0,0.0,0.0,0.0,0.0,0.0,0.0,0.0,0.0,0.0,0.0,0.0,0.0,0.0,0.0,0.0,0.0,0.0,0.0,0.0,0.0,0.0,0.0,0.0,0.0,0.0,-1.7373,-1.5597,-1.52,-1.4743,0.0,0.0,-1.351,-1.4192,-1.4373,0.0,0.0,0.0,0.0,0.0,0.0,0.0,0.0,0.0,0.0,0.0,0.0,0.0,0.0,0.0,0.0,0.0,0.0,0.0,0.0,0.0,0.0,0.0,0.0,0.0,0.0,0.0,0.0,0.0,0.0,0.0,0.0,0.0,0.0,0.0,0.0,0.0,0.0,0.0,0.0,0.0,0.0,0.0,0.0,0.0,0.0,0.0,0.0,0.0,0.0,0.0,0.0,0.0,0.0,0.0,-2.2285,-2.3651,-2.619,-2.7404,-2.7119,-2.6486,-2.5216,-2.3278,-2.1262,-1.8791,0.0,0.0,0.0,0.0,0.0,0.0,0.0,0.0,0.0,0.0,0.0,0.0,0.0,0.0,0.0,0.0,0.0,0.0,0.0,0.0,0.0,0.0,0.0,0.0,0.0,0.0,0.0,0.0,0.0,0.0,0.0,0.0,0.0,0.0,0.0,0.0,0.0,0.0,0.0,0.0,0.0,0.0,-1.6754,-1.6585,0.0,0.0,0.0,-1.4707,-1.5088,0.0,0.0,0.0,0.0,0.0,0.0,0.0,0.0,0.0,0.0,0.0,0.0,0.0,0.0,0.0,0.0,0.0,0.0,0.0,0.0,0.0,0.0,0.0,0.0,0.0,0.0,0.0,0.0,0.0,0.0,0.0,0.0,0.0,0.0,0.0,0.0,0.0,0.0,0.0,0.0,0.0,0.0,0.0,0.0,0.0,0.0,0.0,0.0,0.0,0.0,0.0,0.0,0.0,0.0,0.0,0.0,0.0,-2.3659,-2.6882,-2.8255,-2.762,-2.706,-2.5891,-2.3983,-2.2215,0.0,0.0,0.0,0.0,0.0,0.0,0.0,0.0,0.0,0.0,0.0,0.0,0.0,0.0,0.0,0.0,0.0,0.0,0.0,0.0,0.0,0.0,0.0,0.0,0.0,0.0,0.0,-0.3902,0.0,0.0,0.0,0.0,0.0,0.0,0.0,0.0,0.0,0.0,0.0,0.0,0.0,0.0,-1.768,-1.764,-1.7962,-1.8082,0.0,0.0,-1.6009,-1.5919,-1.5996,-1.5566,0.0,0.0,0.0,0.0,0.0,0.0,0.0,0.0,0.0,0.0,0.0,0.0,0.0,0.0,0.0,0.0,0.0,0.0,0.0,0.0,0.0,0.0,0.0,0.0,0.0,0.0,0.0,0.0,0.0,0.0,0.0,0.0,0.0,0.0,0.0,0.0,0.0,0.0,0.0,0.0,0.0,0.0,0.0,0.0,0.0,0.0,0.0,0.0,0.0,0.0,0.0,0.0,0.0,0.0,0.0,-2.3717,-2.7375,-2.8763,-2.7635,-2.7549,-2.6593,-2.4683,-2.2942,-2.032,0.0,0.0,0.0,0.0,0.0,0.0,0.0,0.0,0.0,0.0,0.0,0.0,0.0,0.0,0.0,0.0,0.0,0.0,0.0,0.0,0.0,0.0,0.0,0.0,0.0,0.0,0.0,0.0,0.0,0.0,0.0,0.0,0.0,0.0,0.0,0.0,0.0,0.0,0.0,0.0,0.0,-1.9285,-1.8372,-1.9454,-1.993,0.0,0.0,-1.7688,-1.7307,-1.7559,-1.7256,-1.5557,0.0,0.0,0.0,0.0,0.0,0.0,0.0,0.0,0.0,0.0,0.0,0.0,0.0,0.0,0.0,0.0,0.0,0.0,0.0,0.0,0.0,0.0,0.0,0.0,0.0,0.0,0.0,0.0,0.0,0.0,0.0,0.0,0.0,0.0,0.0,0.0,0.0,0.0,0.0,0.0,0.0,0.0,0.0,0.0,0.0,0.0,0.0,0.0,0.0,0.0,0.0,0.0,0.0,-2.3536,-2.3638,-2.7422,-2.881,-2.766,-2.7585,-2.6861,-2.5286,-2.3535,-2.1263,0.0,0.0,0.0,0.0,0.0,0.0,0.0,0.0,0.0,0.0,0.0,0.0,0.0,0.0,0.0,0.0,0.0,0.0,0.0,0.0,0.0,0.0,0.0,0.0,0.0,0.0,0.0,0.0,-0.7452,-0.8052,-0.872,0.0,0.0,0.0,0.0,0.0,0.0,0.0,0.0,0.0,0.0,-1.9156,-1.9977,-2.012,0.0,0.0,-1.8595,-1.7656,-1.7772,-1.7227,-1.6525,-1.5566,-1.4482,0.0,0.0,0.0,0.0,0.0,0.0,0.0,0.0,0.0,0.0,0.0,0.0,0.0,0.0,0.0,0.0,0.0,0.0,0.0,0.0,0.0,0.0,0.0,0.0,0.0,0.0,0.0,0.0,0.0,0.0,0.0,0.0,0.0,0.0,0.0,0.0,0.0,0.0,0.0,0.0,0.0,0.0,0.0,0.0,0.0,0.0,0.0,0.0,0.0,0.0,0.0,0.0,-2.3536,-2.3601,-2.7422,-2.881,-2.7625,-2.7585,-2.7055,-2.5896,-2.4112,-2.2128,0.0,0.0,0.0,0.0,0.0,0.0,0.0,0.0,0.0,0.0,0.0,0.0,0.0,0.0,0.0,0.0,0.0,0.0,0.0,0.0,0.0,0.0,0.0,0.0,0.0,0.0,0.0,0.0,-0.9156,-0.9611,-0.9554,0.0,0.0,0.0,0.0,0.0,0.0,0.0,0.0,0.0,0.0,-1.9326,-2.0949,-2.1,-2.0873,-2.0991,-1.9705,-1.8705,-1.852,-1.7676,-1.6747,-1.5878,0.0,0.0,0.0,0.0,0.0,0.0,0.0,0.0,0.0,0.0,0.0,0.0,0.0,0.0,0.0,0.0,0.0,0.0,0.0,0.0,0.0,0.0,0.0,0.0,0.0,0.0,0.0,0.0,0.0,0.0,-2.0105,0.0,0.0,0.0,0.0,0.0,0.0,0.0,0.0,0.0,0.0,0.0,0.0,0.0,0.0,0.0,0.0,0.0,0.0,0.0,0.0,0.0,0.0,-2.3552,-2.3659,-2.7444,-2.8834,-2.766,-2.76,-2.726,-2.6578,-2.4763,-2.2881,-2.0959,0.0,0.0,0.0,0.0,0.0,0.0,0.0,0.0,0.0,0.0,0.0,0.0,0.0,0.0,0.0,0.0,0.0,0.0,0.0,0.0,0.0,0.0,0.0,0.0,0.0,0.0,-1.0478,-1.0656,-1.0305,0.0,0.0,0.0,0.0,0.0,0.0,0.0,0.0,0.0,0.0,-1.8012,-2.0049,-2.1099,-2.2242,-2.2634,-2.1908,-2.1772,-2.1272,-1.9827,-1.9351,-1.8616,0.0,0.0,0.0,0.0,0.0,0.0,0.0,0.0,0.0,0.0,0.0,0.0,0.0,0.0,0.0,0.0,0.0,0.0,0.0,0.0,0.0,0.0,0.0,0.0,0.0,0.0,0.0,-2.486,-2.3951,0.0,0.0,0.0,0.0,0.0,0.0,0.0,0.0,0.0,0.0,0.0,-2.6607,-2.7319,0.0,0.0,0.0,0.0,0.0,0.0,0.0,0.0,0.0,0.0,0.0,0.0,-2.4347,-2.4775,-2.7794,-2.8996,-2.8213,-2.781,-2.7495,-2.7255,-2.536,-2.29,-1.9817,0.0,0.0,0.0,0.0,0.0,0.0,0.0,0.0,0.0,0.0,0.0,0.0,0.0,0.0,0.0,0.0,0.0,0.0,0.0,0.0,0.0,0.0,0.0,0.0,0.0,-1.0457,0.0,0.0,0.0,0.0,0.0,0.0,0.0,0.0,0.0,0.0,0.0,-1.52,-1.7654,-1.9665,-2.1283,-2.23,-2.2354,-2.2002,0.0,0.0,0.0,0.0,0.0,0.0,0.0,0.0,0.0,0.0,0.0,0.0,0.0,0.0,-1.6287,-1.3769,-1.3066,-1.2969,-1.3252,0.0,0.0,0.0,0.0,0.0,0.0,0.0,0.0,0.0,0.0,0.0,0.0,0.0,0.0,-2.8267,0.0,-2.7087,0.0,0.0,0.0,0.0,0.0,0.0,0.0,0.0,-2.9287,-3.0118,-3.0092,-3.0804,-3.0654,0.0,-2.8755,-2.6675,0.0,0.0,0.0,0.0,0.0,0.0,0.0,0.0,-2.4996,-2.6029,-2.8228,-2.9222,-2.8885,-2.804,-2.7585,-2.7555,-2.5659,-2.3339,-2.0754,-1.8394,-1.6617,0.0,0.0,0.0,0.0,0.0,0.0,0.0,0.0,0.0,0.0,0.0,0.0,0.0,0.0,0.0,0.0,0.0,0.0,0.0,0.0,0.0,0.0,0.0,-1.1538,0.0,0.0,0.0,0.0,0.0,0.0,0.0,0.0,0.0,-1.4388,-1.5457,-1.7145,-1.9609,-2.0998,-2.2096,-2.2982,0.0,0.0,0.0,0.0,0.0,0.0,0.0,-1.968,-2.0155,-1.9295,-1.8525,-1.8403,-1.8593,-1.8616,-1.8338,0.0,0.0,-1.537,-1.4758,-1.4821,-1.5262,-1.5941,-1.6753,-1.7875,-1.8627,-1.9329,0.0,0.0,0.0,0.0,0.0,0.0,0.0,0.0,-3.0883,-3.1306,0.0,-3.0523,0.0,0.0,0.0,0.0,0.0,0.0,0.0,0.0,-3.4163,-3.5228,-3.4607,-3.4573,-3.4235,-3.3554,-3.3453,-3.2303,-2.9983,-2.5223,0.0,0.0,0.0,0.0,0.0,0.0,-2.5565,-2.7412,-2.8794,-2.9515,-2.9555,-2.8308,-2.7615,-2.7525,-2.5659,-2.4291,-2.3498,-2.069,-1.8399,-1.6726,-1.4646,0.0,0.0,0.0,0.0,0.0,0.0,0.0,0.0,0.0,0.0,0.0,0.0,0.0,0.0,0.0,0.0,0.0,0.0,0.0,0.0,-1.2371,0.0,0.0,0.0,0.0,0.0,0.0,0.0,0.0,0.0,0.0,-1.6614,-1.7652,-1.9157,-2.1237,0.0,0.0,0.0,0.0,-2.3103,-2.3055,-2.3622,-2.3766,-2.3155,-2.3259,-2.3084,-2.2224,0.0,0.0,-2.0587,-2.0336,-1.9972,-1.9137,-1.9402,-1.9429,-1.8849,-1.8301,-1.8204,-1.8721,-1.9163,-1.973,-2.0289,-2.0785,-2.1085,-3.8905,0.0,0.0,0.0,0.0,-3.5611,-3.6992,-3.9056,-3.8345,-3.7364,-3.6231,-3.5155,0.0,0.0,0.0,0.0,0.0,0.0,-3.2814,-3.4332,-3.5211,-3.6056,-3.6924,-3.6924,-3.6806,-3.6603,-3.6062,-3.4928,-3.322,-3.1231,-2.7942,-2.352,0.0,0.0,0.0,0.0,-2.8188,-2.8604,-3.0106,-3.0466,-2.9558,-2.8713,-2.7844,-2.6911,-2.5869,-2.4769,-2.3625,-2.1577,-1.9822,-1.8399,-1.5725,0.0,0.0,0.0,0.0,0.0,0.0,0.0,0.0,0.0,0.0,0.0,0.0,0.0,0.0,0.0,0.0,0.0,0.0,0.0,-1.1908,-1.2608,-1.2794,0.0,0.0,0.0,0.0,0.0,0.0,0.0,0.0,0.0,-1.9885,-1.9969,-2.0482,0.0,0.0,-2.2932,-2.3083,-2.3459,-2.3524,-2.288,0.0,0.0,0.0,-2.3216,-2.3289,-2.388,-2.3713,-2.3508,-2.3625,-2.3025,-2.2441,-2.2167,-2.2026,-2.1878,-2.1655,-2.0798,-2.0293,-2.0671,-2.0909,-2.15,-2.2791,-2.3233,-2.3647,-4.413,-4.0578,-3.865,-3.8531,-3.9597,-3.9343,-4.0561,-4.2675,-4.1948,-4.1221,-4.0476,-3.9453,-3.7398,-3.4653,-3.3508,0.0,0.0,0.0,-3.5994,-3.7814,-3.7838,-3.8439,-3.958,-3.936,-3.9056,-3.8734,-3.8031,-3.7066,-3.5842,-3.5098,-3.2592,-2.8421,0.0,0.0,-2.6184,-2.8575,-3.0001,-3.0363,-3.1094,-3.1131,-3.0339,-2.9197,-2.8068,-2.7046,-2.6348,-2.5495,-2.4418,-2.2867,-2.136,-1.9904,-1.7614,-1.5702,0.0,0.0,0.0,0.0,0.0,0.0,0.0,0.0,0.0,0.0,0.0,-0.8776,-0.7797,0.0,0.0,0.0,-1.1952,-1.3228,-1.4064,-1.424,0.0,0.0,0.0,0.0,0.0,0.0,0.0,-1.8759,-2.0061,-2.1248,-2.2232,-2.2452,-2.2525,-2.2615,-2.2895,-2.3183,-2.3421,0.0,-2.3879,-2.3587,-2.4434,-2.4925,-2.4426,-2.4328,-2.462,-2.5344,-2.5274,-2.5227,-2.5508,-2.4779,-2.4108,-2.4074,-2.3903,-2.3743,-2.3743,-2.337,-2.298,-2.2766,-2.2956,-2.363,-2.4947,-2.5174,-2.5517,-4.8342,-4.6752,-4.3284,-4.2151,-4.2574,-4.1999,-4.2489,-4.3623,-4.2963,-4.3369,-4.4479,-4.3031,-4.161,-4.0147,-3.8166,0.0,0.0,-3.8954,-3.9952,-4.1288,-4.1288,-4.1644,-4.2236,-4.1593,-4.0933,-4.0265,-3.9512,-3.8785,-3.8058,-3.7313,-3.5876,-3.374,-3.1282,-2.9875,-2.9516,-3.0319,-3.1247,-3.2289,-3.1822,-3.1555,-3.148,-2.9595,-2.8293,-2.7705,-2.6941,-2.6228,-2.5576,-2.4291,-2.2812,-2.1126,-1.9866,-1.8155,-1.5932,0.0,0.0,0.0,0.0,0.0,0.0,0.0,0.0,0.0,0.0,0.0,0.0,0.0,0.0,0.0,-1.424,0.0,-1.699,-1.671,0.0,0.0,0.0,-1.7177,-1.7876,-1.9402,-2.0665,-2.1313,0.0,0.0,0.0,0.0,-2.4908,-2.3548,-2.3308,-2.348,-2.409,-2.4267,-2.4432,-2.5065,-2.5539,-2.5848,-2.5794,-2.6059,-2.6302,-2.6373,-2.6487,-2.644,-2.6383,-2.5769,-2.5182,-2.5123,-2.5123,-2.5111,-2.5123,-2.5728,-2.6083,-2.4669,-2.5062,-2.5778,-2.6343,-2.648,-2.6643,-5.0152,-4.9187,-4.775,-4.6599,-4.5771,-4.6143,-4.6194,-4.5991,-4.5805,-4.5326,-4.4547,-4.3572,-4.2642,-4.1745,-4.1221,-4.1068,-4.1255,-4.1441,-4.1694,-4.2016,-4.2033,-4.2134,-4.2313,-4.2117,-4.1948,-4.1728,-4.1035,-4.029,-3.9571,-3.8819,-3.7922,-3.685,-3.619,-3.3913,-3.0222,-3.1841,-3.2391,-3.1626,-3.2086,-3.1813,-3.0782,-2.933,-2.8517,-2.8353,-2.6722,-2.5779,-2.5576,-2.4313,-2.2954,-2.1585,-2.048,-1.9155,-1.7582,-1.5199,0.0,0.0,0.0,0.0,0.0,0.0,0.0,0.0,0.0,-1.2438,-1.0625,0.0,-1.4616,0.0,-1.6247,-1.713,-1.7093,-1.7446,0.0,0.0,-1.8949,-1.9789,-2.092,-2.1764,-2.2462,-2.3052,-2.3814,-2.447,-2.4928,-2.5218,-2.5452,-2.5576,-2.5044,-2.4915,-2.57,-2.6052,-2.6509,-2.722,-2.7769,-2.794,-2.7282,-2.6782,-2.6521,-2.6487,-2.6487,-2.6487,-2.6487,-2.6349,-2.6164,-2.6129,-2.6164,-2.6164,-2.6129,-2.6361,-2.638,-2.6071,-2.6149,-2.6449,-2.7002,-2.7115,-2.7243,-5.1268,-5.0557,-5.0152,-4.9323,-4.8223,-4.7665,-4.7378,-4.7293,-4.7293,-4.665,-4.5512,-4.4418,-4.3707,-4.3345,-4.3301,-4.3345,-4.3301,-4.3345,-4.3328,-4.3345,-4.3318,-4.3328,-4.3301,-4.2963,-4.2614,-4.2261,-4.1873,-4.1115,-4.0043,-3.9986,-3.9428,-3.8413,-3.8044,-3.61,-3.2829,-3.3882,-3.3637,-3.1971,-3.2045,-3.1604,-3.0535,-2.9535,-2.8906,-2.8577,-2.723,-2.6213,-2.563,-2.4874,-2.3759,-2.2218,-2.1287,-2.0209,-1.8847,-1.6918,-1.5532,0.0,0.0,0.0,0.0,0.0,0.0,0.0,0.0,0.0,0.0,0.0,-1.617,0.0,-1.8014,0.0,-1.91,-1.9733,-2.0333,-2.0773,-2.1599,-2.2561,-2.3545,-2.4178,-2.4774,-2.5369,-2.5707,-2.6026,-2.6332,-2.6633,-2.6976,-2.7335,-2.7142,-2.7008,-2.7181,-2.737,-2.7723,-2.8433,-2.8813,-2.883,-2.833,-2.792,-2.7471,-2.7129,-2.7027,-2.6939,-2.6555,-2.6487,-2.6487,-2.6487,-2.6487,-2.6487,-2.6487,-2.6487,-2.6549,-2.6801,-2.6864,-2.6977,-2.7253,-2.7469,-2.7808,-5.2012,-5.132,-5.1352,-5.0913,-5.0067,-4.8071,-4.7479,-4.7906,-4.7906,-4.7445,-4.6566,-4.528,-4.4671,-4.4598,-4.4598,-4.4598,-4.4598,-4.4598,-4.4598,-4.4598,-4.4468,-4.4462,-4.4429,-4.3724,-4.3026,-4.2361,-4.241,-4.1718,-4.0403,-4.0922,-4.0476,-3.9143,-3.833,-3.7183,-3.574,-3.5691,-3.4667,-3.2631,-3.1855,-3.1212,-3.0657,-3.0013,-2.9385,-2.8727,-2.7929,-2.6896,-2.5674,-2.545,-2.4522,-2.2808,-2.2134,-2.1216,-1.9917,-1.8796,-1.7716,0.0,-1.6006,0.0,0.0,0.0,0.0,0.0,0.0,0.0,0.0,-1.6722,-1.7817,-1.8986,-1.969,-2.0591,-2.1849,-2.2532,-2.2972,-2.3092,-2.4148,-2.5113,-2.577,-2.6363,-2.6956,-2.7525,-2.7585,-2.7615,-2.7714,-2.8248,-2.8622,-2.8803,-2.9066,-2.913,-2.8766,-2.8566,-2.8714,-2.9216,-2.9223,-2.9223,-2.916,-2.902,-2.8684,-2.8005,-2.7868,-2.7617,-2.7027,-2.6769,-2.6692,-2.6692,-2.6589,-2.6487,-2.6487,-2.6487,-2.6688,-2.713,-2.7341,-2.7454,-2.7582,-2.7908,-2.8386,-5.2807,-5.2114,-5.2097,-5.1674,-5.093,-4.9898,-4.8883,-4.7906,-4.7906,-4.7158,-4.5923,-4.5618,-4.5162,-4.4615,-4.4598,-4.4598,-4.4598,-4.4598,-4.4598,-4.4598,-4.3927,-4.3612,-4.3623,-4.346,-4.332,-4.3166,-4.3185,-4.3033,-4.2728,-4.1683,-4.0747,-3.9879,-3.9061,-3.7679,-3.5716,0.0,0.0,0.0,-3.1867,-3.1436,-3.1286,-3.0687,-3.0028,-2.9412,-2.772,0.0,-2.5615,-2.4567,-2.358,-2.2763,-2.2583,0.0,0.0,0.0,0.0,0.0,0.0,0.0,0.0,0.0,0.0,0.0,-1.9551,-1.9007,-1.7846,-1.9556,-2.0872,-2.1111,-2.1744,-2.2433,-2.3176,-2.3849,-2.4455,-2.5016,-2.5749,-2.6482,-2.7136,-2.733,-2.748,-2.757,-2.76,-2.7824,-2.8308,-2.8547,-2.8996,-2.9924,-3.0231,-3.0462,-3.0763,-3.0247,-3.0199,-3.0822,-3.0434,-3.0072,-3.0056,-2.9518,-2.9097,-2.878,-2.8734,-2.8671,-2.846,-2.7822,-2.7484,-2.7417,-2.6939,-2.6487,-2.6499,-2.6487,-2.6713,-2.718,-2.7645,-2.8084,-2.8474,-2.8687,-2.8938,-5.3602,0.0,-5.2909,-5.2452,0.0,-5.1336,-5.0338,-4.8951,-4.8612,-4.7834,-4.6756,-4.6397,-4.5821,-4.5128,-4.5145,-4.4925,-4.4598,-4.4598,-4.4598,-4.4581,-4.4181,-4.3792,-4.3403,-4.3403,-4.298,-4.2278,-4.3042,-4.298,-4.2245,-4.2267,-4.155,-4.0067,-3.9282,-3.7963,-3.6134,-3.5401,-3.4228,-3.2542,-3.2153,-3.1824,-3.1496,-3.0838,-3.0208,-2.9564,0.0,0.0,0.0,0.0,0.0,0.0,0.0,0.0,0.0,0.0,0.0,-1.9698,-1.9608,-1.9746,-2.0161,-2.0565,-2.1198,-2.2063,-2.2422,-2.1853,-2.0064,-2.1332,-2.2328,-2.2622,-2.3251,-2.3909,-2.4537,-2.5173,-2.5734,-2.6078,-2.6677,-2.7255,-2.7525,-2.7585,-2.7585,-2.763,-2.7899,-2.8233,-2.8562,-2.9205,-2.9744,-3.0402,-3.0806,-3.1092,-3.1377,-3.1161,-3.1087,-3.1453,-3.1219,-3.0911,-3.0866,-3.0584,-3.0042,-2.9752,-2.9628,-2.9473,-2.9066,-2.8279,-2.7716,-2.7637,-2.704,-2.6562,-2.6851,-2.6901,-2.714,-2.7883,-2.831,-2.8699,-2.9227,-2.9365,-2.944,-5.4245,-5.3687,-5.3551,-5.3112,-5.252,-5.2367,-5.1471,-5.0033,0.0,0.0,0.0,-4.7259,-4.6583,-4.5906,-4.5771,-4.5365,-4.4818,-4.4666,-4.4598,-4.4598,-4.4462,-4.4028,-4.3392,-4.3284,-4.2517,-4.1319,-4.244,-4.2389,-4.1284,-4.2451,-4.1955,-3.9981,-3.9188,-3.8062,-3.6415,-3.5271,-3.4068,-3.2916,-3.2632,-3.2213,-3.1675,-3.1002,-3.0387,-2.9786,-2.9142,-2.8143,-2.6836,-2.6123,-2.5211,-2.4014,-2.346,-2.2912,-2.2263,-2.2218,-2.2173,-2.2069,-2.2568,-2.2912,-2.3047,-2.349,-2.3834,-2.3939,-2.4455,-2.4036,-2.2338,-2.2838,-2.3467,-2.4073,-2.4642,-2.5232,-2.5899,-2.6447,-2.6791,-2.6791,-2.727,-2.7585,-2.76,-2.772,-2.7809,-2.7854,-2.8368,-2.8831,-2.9011,-2.9834,-3.0567,-3.0731,-3.1137,-3.1496,-3.1496,-3.1467,-3.1438,-3.1467,-3.1409,-3.1467,-3.1467,-3.1438,-3.1219,-3.0628,-3.051,-3.0238,-2.9549,-2.883,-2.8316,-2.8199,-2.747,-2.729,-2.7389,-2.7431,-2.7783,-2.87,-2.8888,-2.9063,-2.9616,-2.9779,-2.9767,-5.4532,-5.4397,-5.3754,-5.345,-5.3281,-5.2604,-5.1454,-5.005,-4.9323,-4.8595,-4.7889,-4.7787,-4.7344,-4.6599,-4.5974,-4.5652,-4.55,-4.4891,-4.4598,0.0,-4.391,-4.3521,-4.3358,-4.276,-4.2334,-4.2099,-4.1727,-4.1704,-4.1968,-4.1687,-4.0622,-3.9109,-3.8893,-3.7821,-3.5842,-3.5464,-3.4981,-3.4203,-3.308,-3.2437,-3.2333,-3.1705,-3.1047,-3.0387,-2.9786,-2.8843,-2.751,-2.6811,-2.6093,-2.5375,-2.5255,-2.4874,-2.4246,-2.4186,-2.3932,-2.34,-2.3415,-2.3714,-2.4291,-2.4425,-2.4709,-2.5232,-2.542,-2.5083,-2.4306,-2.4799,-2.5465,-2.6078,-2.6213,-2.6572,-2.7225,-2.7375,-2.7405,-2.7435,-2.754,-2.7585,-2.763,-2.8083,-2.8442,-2.8457,-2.9041,-2.9681,-3.0058,-3.0387,-3.0748,-3.1212,-3.1406,-3.1496,-3.1496,-3.1496,-3.1496,-3.1496,-3.1496,-3.1496,-3.1496,-3.1496,-3.1409,-3.1336,-3.1292,-3.1264,-3.1073,-3.0637,-3.0171,-2.9613,-2.9031,-2.865,-2.814,-2.7996,-2.8285,-2.8825,-2.8963,-2.9139,-2.9691,-2.9779,-2.9779,-5.5327,-5.4583,-5.4228,-5.3856,-5.345,-5.2655,-5.1928,-5.1183,-5.0084,-4.9187,-4.8545,-4.8494,-4.8105,-4.7411,-4.701,-4.6464,-4.5686,-4.5348,-4.4959,-4.4598,-4.4215,-4.3826,-4.3403,-4.3064,-4.2692,-4.231,-4.1915,-4.1919,-4.2124,-4.1458,-4.0478,-3.9239,-3.818,-3.7068,-3.6109,-3.5684,-3.534,-3.5026,-3.4068,-3.323,-3.2527,-3.2198,-3.1569,-3.0537,-3.0223,-2.9654,-2.8723,-2.8023,-2.7545,-2.7245,-2.6856,-2.6363,-2.5749,-2.5689,-2.5375,-2.4762,-2.5031,-2.536,-2.5651,-2.6019,-2.6348,-2.6647,-2.6686,-2.6542,-2.6258,-2.6168,-2.6273,-2.6572,-2.6926,-2.727,-2.757,-2.7585,-2.7585,-2.7585,-2.7585,-2.775,-2.8083,-2.8368,-2.8742,-2.9101,-2.9699,-3.0178,-3.0462,-3.0836,-3.1107,-3.1466,-3.1496,-3.1496,-3.1496,-3.1511,-3.1496,-3.1496,-3.1496,-3.1496,-3.1496,-3.1496,-3.1496,-3.1496,-3.1809,-3.2004,-3.1975,-3.1571,-3.0871,-3.035,-2.955,-2.879,-2.8461,-2.8512,-2.8775,-2.9239,-2.939,-2.9553,-2.9741,-2.9779,-2.9779,-5.6139,-5.5091,-5.4735,-5.4177,-5.345,-5.2841,-5.2486,-5.2181,-5.1082,-5.0084,-4.9289,-4.9086,-4.868,-4.8159,-4.7973,-4.7293,-4.6261,-4.5855,-4.5399,-4.4857,-4.4699,-4.4276,-4.369,-4.3477,-4.3017,-4.2293,-4.189,-4.1667,-4.1527,-4.1004,-4.0371,-3.9544,-3.7682,-3.6626,-3.651,-3.5983,-3.5654,-3.5474,-3.4966,-3.4128,-3.3006,-3.2826,-3.2168,-3.1076,-3.0956,-3.0582,-2.9834,-2.9295,-2.8966,-2.8816,-2.8349,-2.7824,-2.7345,-2.7275,-2.7036,-2.6617,-2.6976,-2.7285,-2.729,-2.7764,-2.8049,-2.8049,-2.8049,-2.8049,-2.8004,-2.76,-2.7151,-2.6956,-2.73,-2.7645,-2.7824,-2.7854,-2.7884,-2.8004,-2.8049,-2.8319,-2.8742,-2.8936,-2.919,-2.9774,-3.0342,-3.0703,-3.0836,-3.1167,-3.1466,-3.1481,-3.1496,-3.1496,-3.1511,-3.16,-3.169,-3.1525,-3.1496,-3.1496,-3.1496,-3.1496,-3.157,-3.1675,-3.2153,-3.2452,-3.2481,-3.1907,-3.1232,-3.0965,-2.9901,-2.9143,-2.9139,-2.9088,-2.9302,-2.9654,-2.9716,-2.9754,-2.9767,-2.9779,-2.9779,-5.6714,-5.6393,-5.5175,-5.4177,-5.3551,-5.3416,-5.2976,-5.235,-5.2131,-5.1285,-5.0033,-4.9289,-4.8984,-4.8815,-4.8193,-4.7787,-4.7517,-4.6312,-4.5703,-4.5534,-4.4919,-4.4564,-4.4418,-4.3758,-4.2993,-4.2138,-4.0913,-4.026,-4.0044,-3.9897,-3.9783,-3.9524,-3.8073,-3.706,-3.6567,-3.6432,-3.6103,-3.5519,-3.5459,-3.5055,-3.4354,-3.3724,-3.3066,-3.2377,-3.2317,-3.1719,-3.0522,-3.0357,-3.0058,-2.9577,-2.9472,-2.9397,-2.9307,-2.9322,-2.9277,-2.9146,-2.9262,-2.9337,-2.9307,-2.9382,-2.9367,-2.9427,-2.9352,-2.9352,-2.9352,-2.9322,-2.8783,-2.7884,-2.7585,-2.7944,-2.8438,-2.8502,-2.8712,-2.9187,-2.9292,-2.9457,-2.9547,-2.9983,-3.0372,-3.0402,-3.0957,-3.1406,-3.1346,-3.1436,-3.1481,-3.1496,-3.1496,-3.154,-3.1645,-3.1989,-3.2168,-3.1735,-3.154,-3.157,-3.157,-3.1525,-3.1809,-3.2258,-3.2497,-3.2856,-3.3135,-3.3039,-3.262,-3.1633,-3.0971,-3.0298,-2.9834,-2.9704,-2.9679,-2.9729,-2.9779,-2.9779,-2.9779,-2.9779,-2.9779,-5.7188,-5.6748,-5.6156,-5.5226,-5.4177,-5.3704,-5.3315,-5.2976,-5.252,-5.1944,-5.1285,-5.0168,-4.9407,-4.9001,-4.868,-4.8342,-4.7855,-4.7276,-4.6752,-4.6312,-4.5602,-4.5246,-4.5162,-4.4468,-4.3669,-4.2815,-4.1683,-4.0831,-4.0259,-3.9772,-3.9347,-3.8933,-3.8266,-3.7853,-3.7569,-3.6866,-3.6342,-3.6088,-3.5699,-3.537,-3.504,-3.4427,-3.3769,-3.317,-3.3095,-3.2677,-3.1824,-3.166,-3.139,-3.0806,-3.0731,-3.0552,-3.0148,-3.0133,-2.9953,-2.9666,-2.9621,-2.9621,-2.9621,-2.9621,-2.9621,-2.9621,-2.9621,-2.9621,-2.9621,-2.9621,-2.9352,-2.8918,-2.8783,-2.8918,-2.9172,-2.9202,-2.9295,-2.9535,-2.9621,-2.9729,-3.0103,-3.0342,-3.0627,-3.1017,-3.1316,-3.1496,-3.1496,-3.1496,-3.1496,-3.1496,-3.1511,-3.1645,-3.2004,-3.2333,-3.2542,-3.2677,-3.2691,-3.2467,-3.2198,-3.2093,-3.2378,-3.2946,-3.344,-3.3874,-3.3898,-3.3301,-3.2632,-3.222,-3.1206,-3.0406,-2.9845,-2.9779,-2.9779,-2.9779,-2.9779,-2.9779,-2.9779,-2.9779,-2.9779,-5.7577,-5.7103,-5.69,-5.5936,-5.4566,-5.4042,-5.3687,-5.345,-5.2875,-5.2503,-5.2181,-5.115,-5.0168,-4.9357,-4.9103,-4.8697,-4.824,-4.7973,-4.7631,-4.7039,-4.6346,-4.5889,-4.5669,-4.5162,-4.419,-4.3003,-4.23,-4.1396,-4.0397,-3.9737,-3.9155,-3.8736,-3.8676,-3.8571,-3.8317,-3.7419,-3.6855,-3.6462,-3.5998,-3.5699,-3.5459,-3.5011,-3.4442,-3.3844,-3.3769,-3.3455,-3.2781,-3.2617,-3.2273,-3.1795,-3.1615,-3.1286,-3.0808,-3.0791,-3.0582,-3.0178,-3.0118,-3.0118,-3.0118,-3.0118,-3.0118,-3.0103,-3.0118,-3.0118,-3.0118,-3.0118,-3.0118,-3.0118,-3.0118,-3.0073,-2.9849,-2.9834,-2.9909,-3.0058,-3.0118,-3.0328,-3.0703,-3.0776,-3.0957,-3.1406,-3.1466,-3.1496,-3.1496,-3.1496,-3.1496,-3.1496,-3.1675,-3.1899,-3.2452,-3.2811,-3.3215,-3.3484,-3.3619,-3.3484,-3.2931,-3.2781,-3.308,-3.3589,-3.4189,-3.4459,-3.4571,-3.3579,-3.2615,-3.225,-3.0807,-2.996,-2.9818,-2.9779,-2.9856,-2.9869,-2.9998,-3.0062,-2.9818,-2.996,-3.0037,-5.7865,-5.7712,-5.7087,-5.5987,-5.46,-5.4549,-5.4143,-5.3568,-5.345,-5.301,-5.2401,-5.2181,-5.1386,-5.0067,-4.9407,-4.9001,-4.8849,-4.8257,-4.7922,-4.777,-4.7107,-4.638,-4.572,-4.5624,-4.4391,-4.2365,-4.1981,-4.1095,-3.9574,-3.946,-3.9409,-3.9328,-3.9284,-3.9035,-3.8512,-3.8287,-3.7674,-3.6716,-3.6507,-3.6148,-3.5609,-3.5489,-3.513,-3.4548,-3.4474,-3.4159,-3.3499,-3.2856,-3.2497,-3.2482,-3.1869,-3.1496,-3.1451,-3.1451,-3.1376,-3.1346,-3.1361,-3.1376,-3.1331,-3.1301,-3.1301,-3.1346,-3.1256,-3.1361,-3.1227,-3.1227,-3.1227,-3.1361,-3.1241,-3.1076,-3.0582,-3.0477,-3.0702,-3.1182,-3.1331,-3.1361,-3.1406,-3.1346,-3.1436,-3.1496,-3.1496,-3.1496,-3.1496,-3.1496,-3.154,-3.166,-3.2049,-3.2482,-3.2796,-3.3619,-3.4009,-3.3873,-3.4023,-3.4249,-3.3634,-3.3455,-3.3754,-3.4247,-3.4592,-3.4758,-3.4501,-3.4109,-3.3241,-3.2285,-3.0983,-3.0177,-2.9895,-2.9856,-2.9921,-3.0177,-3.0796,-3.0833,-3.0266,-3.0696,-3.0685,-5.7881,-5.7814,-5.7103,-5.6478,-5.5919,-5.5006,-5.4431,-5.416,-5.3687,-5.3365,-5.301,-5.2536,-5.1995,-5.1454,-5.0219,-4.9441,-4.9018,-4.8731,-4.8612,-4.8528,-4.7851,-4.7378,-4.698,-4.5624,-4.4183,-4.2751,-4.165,-4.0569,-3.9553,-3.9388,-3.9388,-3.9388,-3.9388,-3.9275,-3.9005,-3.8616,-3.8123,-3.7719,-3.7315,-3.6776,-3.6193,-3.6133,-3.5804,-3.519,-3.513,-3.4816,-3.4143,-3.3888,-3.3574,-3.3155,-3.2482,-3.2138,-3.2093,-3.1735,-3.1496,-3.1496,-3.1496,-3.1496,-3.1496,-3.1496,-3.1496,-3.1496,-3.1496,-3.1496,-3.1496,-3.1496,-3.1496,-3.1496,-3.1496,-3.1346,-3.1227,-3.1137,-3.1227,-3.1436,-3.1496,-3.1496,-3.1496,-3.1496,-3.1496,-3.1496,-3.1496,-3.1496,-3.1525,-3.1496,-3.166,-3.2064,-3.2363,-3.2871,-3.3619,-3.4264,-3.4548,-3.4756,-3.4966,-3.507,-3.4876,-3.4367,-3.4369,-3.4831,-3.5175,-3.519,-3.5055,-3.4361,-3.3533,-3.2558,-3.1304,-3.0495,-3.0241,-3.0419,-3.0419,-3.0833,-3.1449,-3.1646,-3.0857,-3.1431,-3.1156,-5.7881,-5.7814,-5.7357,-5.7002,-5.6697,-5.5733,-5.5006,-5.4583,-5.4076,-5.3737,-5.3433,-5.2926,-5.2553,-5.2198,-5.1234,-5.0405,-4.9695,-4.9255,-4.9001,-4.8968,-4.8494,-4.797,-4.7259,-4.5829,-4.4203,-4.2625,-4.105,-3.9955,-3.9445,-3.9388,-3.9388,-3.9388,-3.9388,-3.9388,-3.9298,-3.8945,-3.8646,-3.8347,-3.7943,-3.7434,-3.6866,-3.6596,-3.6315,-3.5863,-3.5624,-3.531,-3.4848,-3.4607,-3.4324,-3.3799,-3.3185,-3.2826,-3.2766,-3.2198,-3.1824,-3.1809,-3.1615,-3.1496,-3.1496,-3.1496,-3.1496,-3.1496,-3.1496,-3.1496,-3.1496,-3.1496,-3.1496,-3.1496,-3.1496,-3.1496,-3.1496,-3.1496,-3.1496,-3.1496,-3.1496,-3.1496,-3.1496,-3.1496,-3.1496,-3.1496,-3.1496,-3.1585,-3.178,-3.1824,-3.2153,-3.2751,-3.2991,-3.3589,-3.4294,-3.4743,-3.4921,-3.5385,-3.5415,-3.5429,-3.531,-3.4966,-3.4801,-3.522,-3.5355,-3.5459,-3.5311,-3.4576,-3.3774,-3.2806,-3.1888,-3.1082,-3.0771,-3.0932,-3.1254,-3.1596,-3.2285,-3.2713,-3.2367,-3.2236,-3.2081,-5.7881,-5.7881,-5.7865,-5.7459,-5.6917,-5.6697,-5.5919,-5.4871,-5.4583,-5.416,-5.367,-5.3467,-5.3027,-5.2452,-5.2164,-5.1792,-5.0997,-4.983,-4.9204,-4.9103,-4.8906,-4.8015,-4.673,-4.6208,-4.4423,-4.1759,-4.0192,-3.9475,-3.9424,-3.9388,-3.9388,-3.9388,-3.9388,-3.9388,-3.9388,-3.9284,-3.9035,-3.8601,-3.8422,-3.8078,-3.7434,-3.6926,-3.6611,-3.6447,-3.5908,-3.5564,-3.5489,-3.4891,-3.4578,-3.4474,-3.3858,-3.3514,-3.335,-3.2841,-3.2527,-3.2392,-3.1914,-3.16,-3.1615,-3.166,-3.1735,-3.1735,-3.1615,-3.1705,-3.1645,-3.1615,-3.157,-3.1511,-3.1496,-3.1496,-3.1511,-3.157,-3.1555,-3.1496,-3.1496,-3.1496,-3.1496,-3.1496,-3.1496,-3.1511,-3.157,-3.1795,-3.2258,-3.2482,-3.2781,-3.3395,-3.3903,-3.4354,-3.4638,-3.5055,-3.5415,-3.5489,-3.5489,-3.5489,-3.5489,-3.5474,-3.5459,-3.5489,-3.5474,-3.5489,-3.5344,-3.4806,-3.4109,-3.3171,-3.1924,-3.1119,-3.1044,-3.1291,-3.1938,-3.2393,-3.3136,-3.3827,-3.3565,-3.3348,-3.3372,-5.7881,-5.7881,-5.7881,-5.7763,-5.7476,-5.7019,-5.6511,-5.6004,-5.5074,-5.4465,-5.4177,-5.3721,-5.3365,-5.3044,-5.2587,-5.2181,-5.1877,-5.0947,-5.027,-4.9668,-4.8604,-4.7801,-4.7012,-4.5461,-4.3281,-4.1104,-4.0334,-3.9843,-3.9463,-3.9403,-3.9388,-3.9388,-3.9388,-3.9388,-3.9388,-3.9373,-3.9275,-3.9104,-3.9095,-3.8766,-3.8138,-3.7898,-3.7584,-3.7105,-3.6507,-3.6178,-3.6133,-3.5534,-3.5205,-3.516,-3.4532,-3.3963,-3.3559,-3.3305,-3.32,-3.317,-3.3021,-3.2886,-3.2886,-3.2871,-3.2841,-3.2871,-3.2856,-3.2632,-3.2243,-3.2183,-3.1974,-3.163,-3.1496,-3.1496,-3.157,-3.1944,-3.1989,-3.157,-3.1496,-3.157,-3.1615,-3.157,-3.1496,-3.1555,-3.1899,-3.2258,-3.2527,-3.2841,-3.3455,-3.4038,-3.4429,-3.4653,-3.5085,-3.531,-3.5489,-3.5489,-3.5489,-3.5489,-3.5489,-3.5489,-3.5489,-3.5489,-3.5489,-3.5489,-3.5344,-3.5166,-3.4442,-3.3498,-3.22,-3.1649,-3.1563,-3.1919,-3.2696,-3.3649,-3.4645,-3.479,-3.4474,-3.4569,-3.482,-5.7881,-5.7881,-5.7881,-5.7881,-5.7848,-5.7374,-5.7036,-5.6697,-5.5835,-5.5108,-5.4566,-5.4126,-5.3737,-5.345,-5.2959,-5.2756,-5.2672,-5.1961,-5.1369,-5.0713,-4.9286,-4.8084,-4.6903,-4.4491,-4.2643,-4.1295,-4.0636,-4.0187,-3.9798,-3.9508,-3.9388,-3.9388,-3.9388,-3.9388,-3.9388,-3.9388,-3.9388,-3.9388,-3.9373,-3.9179,-3.8811,-3.8512,-3.8212,-3.7749,-3.7165,-3.6851,-3.6806,-3.6402,-3.5983,-3.5549,-3.507,-3.4651,-3.4262,-3.4038,-3.3873,-3.3845,-3.3634,-3.3484,-3.3499,-3.3425,-3.3499,-3.3499,-3.3499,-3.3335,-3.2961,-3.2841,-3.2647,-3.2333,-3.2273,-3.2228,-3.2318,-3.2602,-3.2647,-3.2303,-3.2288,-3.2228,-3.2258,-3.2243,-3.2258,-3.2422,-3.2647,-3.2946,-3.329,-3.3544,-3.4159,-3.4681,-3.4893,-3.4936,-3.5385,-3.5474,-3.5489,-3.5489,-3.5489,-3.5489,-3.5489,-3.5489,-3.5489,-3.5489,-3.5489,-3.5489,-3.5424,-3.5392,-3.4953,-3.3925,-3.27,-3.2869,-3.2839,-3.3294,-3.3959,-3.5009,-3.5999,-3.607,-3.6014,-3.6488,-3.6663,-5.7881,-5.7881,-5.7881,-5.7881,-5.7881,-5.7831,-5.7476,-5.6951,-5.6731,-5.5919,-5.4888,-5.4549,-5.4143,-5.3619,-5.3399,-5.3382,-5.3348,-5.2739,-5.2133,-5.1628,-5.044,-4.8696,-4.5818,-4.37,-4.258,-4.2081,-4.113,-4.0576,-4.0427,-3.9858,-3.9448,-3.9544,-3.9463,-3.9388,-3.9388,-3.9388,-3.9388,-3.9388,-3.9388,-3.9394,-3.932,-3.8826,-3.8482,-3.8422,-3.7823,-3.7464,-3.7449,-3.7285,-3.6731,-3.5759,-3.5504,-3.537,-3.5325,-3.4908,-3.4532,-3.4548,-3.3963,-3.3799,-3.3679,-3.3829,-3.3799,-3.3814,-3.3829,-3.3559,-3.3589,-3.3544,-3.3455,-3.3305,-3.3305,-3.3365,-3.3365,-3.3499,-3.3529,-3.3589,-3.3395,-3.3305,-3.3455,-3.3395,-3.326,-3.3335,-3.3514,-3.3739,-3.4233,-3.4444,-3.4831,-3.5205,-3.54,-3.5429,-3.5459,-3.5489,-3.5489,-3.5504,-3.5504,-3.5489,-3.5489,-3.5489,-3.5549,-3.5863,-3.5804,-3.5699,-3.5669,-3.5621,-3.5388,-3.4331,-3.3851,-3.4009,-3.4221,-3.4604,-3.529,-3.6325,-3.6984,-3.734,-3.762,-3.7853,-3.7988,-5.7881,-5.7881,-5.7881,-5.7881,-5.7881,-5.7881,-5.7797,-5.7543,-5.7019,-5.6325,-5.5446,-5.482,-5.4245,-5.3551,-5.3518,-5.3518,-5.3433,-5.3264,-5.2319,-5.1287,-5.0869,-4.8051,-4.4779,-4.3449,-4.2821,-4.241,-4.1976,-4.1632,-4.11,-4.0457,-4.0142,-4.0127,-3.9664,-3.9403,-3.9388,-3.9388,-3.9388,-3.9388,-3.9403,-3.9403,-3.9358,-3.9275,-3.9155,-3.908,-3.8482,-3.8167,-3.8063,-3.7644,-3.7075,-3.6297,-3.5744,-3.5504,-3.5519,-3.5325,-3.516,-3.513,-3.5055,-3.4936,-3.4921,-3.4906,-3.4936,-3.4966,-3.4831,-3.4741,-3.4294,-3.4249,-3.3993,-3.3664,-3.3499,-3.3544,-3.3604,-3.3948,-3.4367,-3.4756,-3.4173,-3.3619,-3.3589,-3.3499,-3.3499,-3.3544,-3.3948,-3.4292,-3.4563,-3.4938,-3.525,-3.5429,-3.5489,-3.5549,-3.5609,-3.5609,-3.5669,-3.5564,-3.5534,-3.5504,-3.5489,-3.5489,-3.5699,-3.6193,-3.6207,-3.6058,-3.6028,-3.6028,-3.5621,-3.4935,-3.514,-3.535,-3.5432,-3.564,-3.6623,-3.753,-3.7834,-3.8123,-3.8317,-3.8525,-3.8823,-5.7881,-5.7881,-5.7881,-5.7881,-5.7881,-5.7881,-5.7881,-5.7814,-5.7459,-5.685,-5.6122,-5.5395,-5.4668,-5.3974,-5.3653,-5.3518,-5.3518,-5.3518,-5.2653,-5.1276,-5.0034,-4.7574,-4.483,-4.3771,-4.3135,-4.2791,-4.253,-4.2186,-4.1782,-4.113,-4.0711,-4.0367,-4.0008,-3.9709,-3.9388,-3.9388,-3.9388,-3.9448,-3.9649,-3.9723,-3.9418,-3.9672,-3.9634,-3.9454,-3.9005,-3.8826,-3.8736,-3.8167,-3.7524,-3.6911,-3.6297,-3.5923,-3.5893,-3.5639,-3.5504,-3.5489,-3.5489,-3.5474,-3.5489,-3.5489,-3.5489,-3.5489,-3.5489,-3.5325,-3.5011,-3.4906,-3.4681,-3.4472,-3.4352,-3.4337,-3.4397,-3.4696,-3.507,-3.528,-3.4801,-3.4337,-3.4337,-3.4397,-3.4352,-3.4442,-3.4651,-3.4938,-3.4938,-3.5295,-3.5444,-3.5489,-3.5489,-3.5684,-3.5878,-3.5878,-3.5983,-3.6058,-3.6163,-3.6282,-3.6327,-3.6327,-3.6357,-3.6776,-3.7,-3.6761,-3.6701,-3.6671,-3.6416,-3.6217,-3.6441,-3.6635,-3.6775,-3.698,-3.7606,-3.8277,-3.8581,-3.8781,-3.8945,-3.896,-3.9254,-5.7881,-5.7881,-5.7881,-5.7881,-5.7881,-5.7881,-5.7881,-5.7881,-5.7831,-5.7408,-5.6681,-5.6004,-5.5192,-5.4532,-5.3805,-5.3518,-5.3518,-5.3518,-5.2679,-5.11,-4.917,-4.6794,-4.5644,-4.4103,-4.3464,-4.3155,-4.2701,-4.2575,-4.2351,-4.1803,-4.1257,-4.0801,-4.0546,-4.0098,-3.9694,-3.9463,-3.9388,-3.9463,-3.9843,-3.9933,-3.9753,-4.0038,-4.0113,-3.9918,-3.9634,-3.9424,-3.923,-3.8796,-3.8242,-3.7659,-3.6956,-3.6611,-3.6507,-3.5998,-3.5804,-3.5774,-3.5789,-3.5684,-3.5594,-3.5594,-3.5489,-3.5489,-3.5489,-3.5489,-3.5415,-3.5385,-3.534,-3.525,-3.5474,-3.531,-3.531,-3.5444,-3.5534,-3.5654,-3.5594,-3.5609,-3.5669,-3.5594,-3.5489,-3.5489,-3.5474,-3.5489,-3.5504,-3.5564,-3.5624,-3.5908,-3.5953,-3.6282,-3.6477,-3.6552,-3.6746,-3.7,-3.712,-3.7255,-3.727,-3.727,-3.7315,-3.7479,-3.7793,-3.7778,-3.7719,-3.7644,-3.7539,-3.7491,-3.7594,-3.7846,-3.816,-3.8489,-3.871,-3.8844,-3.9029,-3.9194,-3.9343,-3.9239,-3.9388,-5.7881,-5.7881,-5.7881,-5.7881,-5.7881,-5.7881,-5.7881,-5.7881,-5.7881,-5.7492,-5.6782,-5.6072,-5.5327,-5.4583,-5.3923,-5.3518,-5.3484,-5.3314,-5.2522,-5.0492,-4.7875,-4.6622,-4.5906,-4.4732,-4.3868,-4.3409,-4.3185,-4.312,-4.294,-4.2476,-4.2111,-4.1856,-4.095,-4.0337,-4.0142,-3.9657,-3.9388,-3.9418,-3.9619,-3.9918,-4.0172,-4.0322,-4.0591,-4.0741,-4.0382,-3.9888,-3.9499,-3.929,-3.914,-3.8751,-3.7893,-3.73,-3.7195,-3.7015,-3.6881,-3.6761,-3.6477,-3.6267,-3.6193,-3.5878,-3.5519,-3.5639,-3.5669,-3.5489,-3.5504,-3.5579,-3.5564,-3.5504,-3.5489,-3.5624,-3.5654,-3.5549,-3.5818,-3.6148,-3.6282,-3.6447,-3.6701,-3.6133,-3.5684,-3.5594,-3.5594,-3.5519,-3.5579,-3.6073,-3.6222,-3.6327,-3.6611,-3.6985,-3.7135,-3.721,-3.7601,-3.7955,-3.7823,-3.7933,-3.8159,-3.8086,-3.8048,-3.8138,-3.8422,-3.8551,-3.8527,-3.8452,-3.8257,-3.8407,-3.8701,-3.8931,-3.8975,-3.9095,-3.9134,-3.9298,-3.9388,-3.9388,-3.9388,-3.9388,-3.9388,-5.7881,-5.7881,-5.7881,-5.7881,-5.7881,-5.7881,-5.7881,-5.7881,-5.7881,-5.7679,-5.7222,-5.6545,-5.5818,-5.5091,-5.4363,-5.3873,-5.328,-5.2381,-5.1171,-4.9512,-4.7619,-4.6678,-4.6234,-4.5589,-4.4755,-4.3873,-4.3409,-4.3319,-4.3185,-4.2985,-4.2641,-4.241,-4.1647,-4.0995,-4.0472,-4.0053,-3.9687,-3.9523,-3.9738,-4.0068,-4.0367,-4.0726,-4.095,-4.119,-4.0756,-4.0202,-3.9933,-3.9559,-3.9418,-3.9209,-3.8751,-3.8182,-3.7838,-3.7584,-3.7434,-3.733,-3.715,-3.6926,-3.6791,-3.6626,-3.6432,-3.6372,-3.6402,-3.6387,-3.6387,-3.6402,-3.6402,-3.6402,-3.6417,-3.6402,-3.6402,-3.6417,-3.6626,-3.6776,-3.6926,-3.709,-3.7225,-3.6791,-3.6387,-3.6402,-3.6477,-3.6462,-3.6582,-3.6731,-3.6836,-3.6956,-3.7015,-3.7375,-3.7808,-3.7982,-3.8588,-3.8815,-3.8577,-3.8607,-3.894,-3.8946,-3.8691,-3.8811,-3.899,-3.9059,-3.9059,-3.9005,-3.8901,-3.9035,-3.9104,-3.9194,-3.9254,-3.9388,-3.9388,-3.9388,-3.9388,-3.9388,-3.9388,-3.9388,-3.9388,-5.7881,-5.7881,-5.7881,-5.7881,-5.7881,-5.7881,-5.7881,-5.7881,-5.7881,-5.7848,-5.7729,-5.712,-5.6292,-5.5632,-5.4871,-5.4143,-5.2881,-5.1171,-4.9694,-4.8876,-4.7773,-4.6993,-4.6576,-4.616,-4.5622,-4.4601,-4.3858,-4.3514,-4.3334,-4.3275,-4.3,-4.262,-4.2396,-4.1811,-4.0935,-4.0561,-4.0262,-3.9828,-4.0083,-4.0442,-4.0636,-4.1085,-4.1354,-4.1527,-4.1205,-4.0771,-4.0516,-4.0157,-3.9768,-3.9589,-3.9559,-3.9185,-3.8601,-3.8093,-3.7704,-3.7714,-3.7689,-3.7569,-3.7524,-3.7389,-3.7285,-3.7404,-3.736,-3.736,-3.7315,-3.724,-3.721,-3.7255,-3.7225,-3.7225,-3.7389,-3.724,-3.733,-3.7524,-3.7554,-3.7599,-3.7689,-3.7704,-3.7644,-3.727,-3.709,-3.7015,-3.7195,-3.7375,-3.7479,-3.7584,-3.7644,-3.7808,-3.8242,-3.8627,-3.9123,-3.9349,-3.9043,-3.8916,-3.9219,-3.9746,-3.9526,-3.9281,-3.9475,-3.9433,-3.9448,-3.9284,-3.9185,-3.9254,-3.9343,-3.9388,-3.9388,-3.9388,-3.9388,-3.9388,-3.9388,-3.9388,-3.9388,-3.9388,-3.9388,-5.7881,-5.7881,-5.7881,-5.7881,-5.7881,-5.7881,-5.7881,-5.7881,-5.7881,-5.7881,-5.7797,-5.712,-5.6461,-5.5716,-5.4938,-5.3748,-5.205,-5.0188,-4.9029,-4.8553,-4.7722,-4.7145,-4.7025,-4.6578,-4.6145,-4.5753,-4.484,-4.3962,-4.3454,-4.3275,-4.324,-4.3045,-4.2671,-4.2201,-4.1901,-4.1504,-4.0861,-4.0217,-4.0322,-4.0606,-4.1055,-4.1429,-4.1788,-4.2156,-4.1976,-4.1662,-4.128,-4.11,-4.0816,-4.0322,-4.0232,-3.9858,-3.9379,-3.9095,-3.9005,-3.879,-3.8467,-3.8227,-3.8197,-3.7778,-3.7494,-3.7404,-3.7539,-3.7509,-3.7494,-3.7494,-3.7624,-3.7584,-3.7554,-3.7479,-3.7404,-3.7614,-3.7764,-3.8033,-3.8272,-3.8422,-3.8811,-3.882,-3.8476,-3.7868,-3.7629,-3.7569,-3.7838,-3.8063,-3.8182,-3.8332,-3.8467,-3.8586,-3.8871,-3.9065,-3.9328,-3.9403,-3.9356,-3.932,-3.9391,-4.0074,-4.0309,-3.9792,-3.9763,-3.9664,-3.9597,-3.9433,-3.9388,-3.9403,-3.9403,-3.9388,-3.9388,-3.9388,-3.9388,-3.9388,-3.9388,-3.9388,-3.9388,-3.9388,-3.9388,-5.7881,-5.7881,-5.7881,-5.7881,-5.7881,-5.7881,-5.7881,-5.7881,-5.7881,-5.7881,-5.778,-5.7492,-5.6968,-5.6241,-5.5497,-5.3747,-5.1232,-4.9599,-4.8569,-4.803,-4.7538,-4.7309,-4.7309,-4.6935,-4.6593,-4.6219,-4.5603,-4.4766,-4.3858,-4.3439,-4.3349,-4.3269,-4.2985,-4.2716,-4.2425,-4.2066,-4.1324,-4.0696,-4.0487,-4.0756,-4.1429,-4.1923,-4.2551,-4.2686,-4.2575,-4.2231,-4.1976,-4.1542,-4.125,-4.0965,-4.0905,-4.0546,-4.0142,-3.9903,-3.9768,-3.9454,-3.9095,-3.8901,-3.8916,-3.8601,-3.8476,-3.8482,-3.8422,-3.8437,-3.8452,-3.8476,-3.8342,-3.8372,-3.8417,-3.8452,-3.8476,-3.8407,-3.8631,-3.8826,-3.8901,-3.905,-3.929,-3.9358,-3.896,-3.8422,-3.8512,-3.8521,-3.8566,-3.8781,-3.8886,-3.905,-3.923,-3.9298,-3.9388,-3.9514,-3.9595,-4.0107,-4.0244,-4.0405,-4.0446,-4.087,-4.1217,-4.0715,-4.0205,-4.0089,-3.9963,-3.9903,-3.9649,-3.9433,-3.9418,-3.9388,-3.9388,-3.9388,-3.9388,-3.9388,-3.9388,-3.9388,-3.9388,-3.9388,-3.9388,-5.7881,-5.7881,-5.7881,-5.7881,-5.7881,-5.7881,-5.7881,-5.7881,-5.7881,-5.7881,-5.7881,-5.7814,-5.7442,-5.6626,-5.5326,-5.3377,-5.0406,-4.9311,-4.8293,-4.7538,-4.7352,-4.7309,-4.7309,-4.7249,-4.7025,-4.6608,-4.6232,-4.5577,-4.4392,-4.3838,-4.3484,-4.3319,-4.3275,-4.3105,-4.2656,-4.2581,-4.1743,-4.119,-4.0816,-4.11,-4.1728,-4.2551,-4.32,-4.3275,-4.2836,-4.262,-4.2506,-4.2192,-4.1871,-4.1692,-4.1519,-4.128,-4.0741,-4.0591,-4.0277,-3.9723,-3.9478,-3.9403,-3.9358,-3.9328,-3.9179,-3.9149,-3.9313,-3.9343,-3.9313,-3.9164,-3.9269,-3.9388,-3.9328,-3.9254,-3.9179,-3.9328,-3.9328,-3.9328,-3.9328,-3.9388,-3.9358,-3.9388,-3.9388,-3.9194,-3.9388,-3.9343,-3.9194,-3.9104,-3.917,-3.9185,-3.9313,-3.9313,-3.9433,-3.9753,-4.0061,-4.0887,-4.1337,-4.1632,-4.1807,-4.1996,-4.2112,-4.1769,-4.1182,-4.0838,-4.0621,-4.0427,-4.0098,-3.9738,-3.9418,-3.9388,-3.9388,-3.9388,-3.9388,-3.9388,-3.9388,-3.9388,-3.9388,-3.9388,-3.9388,-5.7881,-5.7881,-5.7881,-5.7881,-5.7881,-5.7881,-5.7881,-5.7881,-5.7881,-5.7881,-5.7881,-5.7848,-5.7492,-5.6487,-5.4406,-5.2359,-5.0621,-4.9311,-4.8252,-4.7424,-4.7309,-4.7309,-4.7309,-4.7309,-4.7264,-4.6995,-4.6548,-4.5532,-4.4691,-4.4302,-4.3828,-4.3484,-4.3334,-4.3215,-4.312,-4.306,-4.2851,-4.2261,-4.2111,-4.2126,-4.2216,-4.2417,-4.2851,-4.3105,-4.317,-4.306,-4.3015,-4.2821,-4.2701,-4.2261,-4.2261,-4.1946,-4.1399,-4.1265,-4.0905,-4.0337,-3.9813,-3.9388,-3.9403,-3.9388,-3.9388,-3.9388,-3.9388,-3.9388,-3.9388,-3.9388,-3.9388,-3.9388,-3.9388,-3.9463,-3.9493,-3.9448,-3.9418,-3.9538,-3.9672,-3.9612,-3.9568,-3.9963,-3.9903,-3.9828,-3.9963,-3.9732,-3.9538,-3.9448,-3.9373,-3.9388,-3.9403,-3.9463,-3.9642,-4.0068,-4.0601,-4.1479,-4.207,-4.2401,-4.2698,-4.2928,-4.2868,-4.2647,-4.2184,-4.1587,-4.125,-4.0965,-4.0502,-4.0142,-3.9732,-3.9403,-3.9388,-3.9388,-3.9388,-3.9388,-3.9388,-3.9388,-3.9388,-3.9388,-3.9388,-5.7881,-5.7881,-5.7881,-5.7881,-5.7881,-5.7881,-5.7881,-5.7881,-5.7881,-5.7881,-5.7881,-5.7881,-5.7492,-5.6451,-5.4529,-5.2704,-5.1005,-4.9524,-4.8267,-4.751,-4.7309,-4.7309,-4.7309,-4.7309,-4.7309,-4.7234,-4.698,-4.6501,-4.5514,-4.4661,-4.4082,-4.3873,-4.3499,-4.329,-4.3349,-4.3305,-4.294,-4.256,-4.2336,-4.2186,-4.2126,-4.2462,-4.2851,-4.2821,-4.311,-4.309,-4.2925,-4.3155,-4.2985,-4.262,-4.2641,-4.2596,-4.2156,-4.1931,-4.1677,-4.1025,-4.0726,-4.0217,-3.9538,-3.9448,-3.9463,-3.9418,-3.9418,-3.9388,-3.9388,-3.9433,-3.9433,-3.9388,-3.9388,-3.9553,-3.9903,-3.9978,-4.0232,-4.0352,-4.0322,-4.0382,-4.0397,-4.0516,-4.0666,-4.0561,-4.0472,-4.0322,-4.0113,-3.9843,-3.9873,-4.0023,-4.0127,-4.0262,-4.0487,-4.0831,-4.1442,-4.214,-4.2656,-4.3059,-4.334,-4.356,-4.3432,-4.3256,-4.3039,-4.2449,-4.1946,-4.1557,-4.1025,-4.0382,-3.9828,-3.9553,-3.9433,-3.9388,-3.9388,-3.9388,-3.9388,-3.9388,-3.9388,-3.9388,-3.9403,-5.7881,-5.7881,-5.7881,-5.7881,-5.7881,-5.7881,-5.7881,-5.7881,-5.7881,-5.7881,-5.7881,-5.7848,-5.7476,-5.6708,-5.5352,-5.3832,-5.1839,-5.0192,-4.8847,-4.8007,-4.7409,-4.7309,-4.7309,-4.7309,-4.7309,-4.7309,-4.7249,-4.6935,-4.6337,-4.5502,-4.487,-4.4541,-4.3958,-4.3648,-4.3514,-4.3379,-4.309,-4.2761,-4.25,-4.2291,-4.2192,-4.2656,-4.2686,-4.271,-4.2716,-4.2776,-4.2312,-4.2491,-4.2447,-4.2635,-4.2701,-4.2746,-4.2611,-4.2566,-4.2282,-4.1788,-4.1572,-4.1085,-4.0412,-4.0083,-3.9918,-3.9903,-3.9903,-4.0113,-4.0038,-3.9903,-3.9918,-4.0083,-4.0053,-4.0277,-4.0502,-4.0636,-4.0801,-4.1093,-4.1257,-4.1377,-4.1422,-4.1294,-4.116,-4.101,-4.098,-4.1115,-4.0831,-4.0352,-4.0307,-4.0561,-4.0786,-4.0995,-4.128,-4.1594,-4.2093,-4.2746,-4.3333,-4.3712,-4.3934,-4.4091,-4.3997,-4.3734,-4.3484,-4.3193,-4.2575,-4.2036,-4.1542,-4.0801,-4.0023,-3.9679,-3.9508,-3.9448,-3.9388,-3.9388,-3.9388,-3.9388,-3.9388,-3.9403,-3.9553,-5.7881,-5.7881,-5.7881,-5.7881,-5.7881,-5.7881,-5.7881,-5.7881,-5.7881,-5.7881,-5.7881,-5.7848,-5.7492,-5.6898,-5.6381,-5.5048,-5.291,-5.1817,-5.0214,-4.88,-4.7849,-4.7441,-4.7339,-4.7309,-4.7309,-4.7309,-4.7309,-4.7264,-4.707,-4.6399,-4.5768,-4.5229,-4.4616,-4.4347,-4.4077,-4.3763,-4.3364,-4.306,-4.2731,-4.2701,-4.2671,-4.2776,-4.2545,-4.2485,-4.241,-4.2186,-4.1557,-4.1743,-4.1938,-4.2291,-4.25,-4.2865,-4.3015,-4.309,-4.2776,-4.2447,-4.2336,-4.1893,-4.1414,-4.104,-4.1183,-4.1242,-4.1168,-4.0965,-4.0905,-4.1153,-4.1242,-4.1025,-4.0861,-4.107,-4.1235,-4.1339,-4.1467,-4.1698,-4.1893,-4.1878,-4.1863,-4.1743,-4.1609,-4.1482,-4.1587,-4.1918,-4.2214,-4.1866,-4.1198,-4.1423,-4.1594,-4.1818,-4.2028,-4.2366,-4.2728,-4.3296,-4.3983,-4.4399,-4.458,-4.4476,-4.4005,-4.3762,-4.3572,-4.3343,-4.3015,-4.2491,-4.1886,-4.1115,-4.0337,-3.9963,-3.9604,-3.9463,-3.9388,-3.9388,-3.9388,-3.9388,-3.9478,-3.9553,-3.9822,-5.7881,-5.7881,-5.7881,-5.7881,-5.7881,-5.7881,-5.7881,-5.7881,-5.7881,-5.7881,-5.7881,-5.7865,-5.7729,-5.7408,-5.6898,-5.5973,-5.4347,-5.2773,-5.1183,-4.9646,-4.8511,-4.7755,-4.7504,-4.7324,-4.7309,-4.7309,-4.7309,-4.7309,-4.7234,-4.6965,-4.6875,-4.6307,-4.548,-4.5035,-4.4706,-4.4227,-4.3723,-4.3319,-4.3075,-4.3,-4.2671,-4.297,-4.2776,-4.2425,-4.2851,-4.2342,-4.1707,-4.1886,-4.1901,-4.1946,-4.2201,-4.2686,-4.314,-4.3245,-4.3155,-4.294,-4.2895,-4.2731,-4.2387,-4.1878,-4.1437,-4.1422,-4.1407,-4.1482,-4.1534,-4.1482,-4.1437,-4.1407,-4.1512,-4.1677,-4.1991,-4.2036,-4.2141,-4.2417,-4.2521,-4.2462,-4.2402,-4.2297,-4.249,-4.2491,-4.2717,-4.2988,-4.3328,-4.36,-4.2842,-4.2279,-4.2449,-4.265,-4.2848,-4.2914,-4.3187,-4.3347,-4.3944,-4.432,-4.4488,-4.4259,-4.395,-4.3771,-4.3591,-4.3268,-4.3015,-4.2671,-4.2051,-4.1294,-4.0606,-4.0098,-3.9709,-3.9478,-3.9388,-3.9388,-3.9388,-3.9388,-3.9508,-3.9717,-4.0172,-5.7881,-5.7881,-5.7881,-5.7881,-5.7881,-5.7881,-5.7881,-5.7881,-5.7881,-5.7881,-5.7881,-5.7881,-5.7881,-5.7712,-5.7372,-5.6665,-5.5505,-5.4097,-5.2405,-5.0834,-4.9516,-4.8419,-4.7784,-4.7414,-4.7309,-4.7309,-4.7309,-4.7309,-4.7309,-4.7309,-4.7204,-4.6976,-4.6677,-4.632,-4.5394,-4.4721,-4.4037,-4.3693,-4.3319,-4.3155,-4.2791,-4.303,-4.2985,-4.2545,-4.2746,-4.2387,-4.1728,-4.1707,-4.1752,-4.1796,-4.2021,-4.2551,-4.294,-4.317,-4.3275,-4.3305,-4.3305,-4.3305,-4.3021,-4.2641,-4.1983,-4.2132,-4.2102,-4.2073,-4.1953,-4.1991,-4.2239,-4.2607,-4.2349,-4.2248,-4.2883,-4.2952,-4.2794,-4.2916,-4.2976,-4.2946,-4.2976,-4.297,-4.3344,-4.3607,-4.3821,-4.3999,-4.4378,-4.4679,-4.4367,-4.3729,-4.367,-4.3739,-4.3692,-4.3629,-4.3392,-4.3506,-4.3654,-4.3927,-4.4143,-4.3912,-4.3693,-4.3591,-4.3373,-4.3019,-4.2731,-4.25,-4.1946,-4.0965,-4.0367,-4.0053,-3.9783,-3.9493,-3.9403,-3.9388,-3.9448,-3.9574,-3.9873,-4.0142,-4.0636,-5.7881,-5.7881,-5.7881,-5.7881,-5.7881,-5.7881,-5.7881,-5.7881,-5.7881,-5.7881,-5.7881,-5.7881,-5.7881,-5.7865,-5.7712,-5.7299,-5.6623,-5.5521,-5.416,-5.2453,-5.0715,-4.9414,-4.8419,-4.7844,-4.7444,-4.7324,-4.7309,-4.7309,-4.7309,-4.7538,-4.7495,-4.7764,-4.7987,-4.7732,-4.6299,-4.499,-4.4362,-4.4212,-4.3663,-4.3394,-4.3319,-4.3334,-4.297,-4.2731,-4.2641,-4.2327,-4.1848,-4.1722,-4.1752,-4.1767,-4.2096,-4.2515,-4.2701,-4.3135,-4.326,-4.3305,-4.3305,-4.3305,-4.326,-4.32,-4.3065,-4.3,-4.2811,-4.2886,-4.3095,-4.3219,-4.3406,-4.3685,-4.3655,-4.3707,-4.3913,-4.399,-4.375,-4.3467,-4.3551,-4.3771,-4.3834,-4.3329,-4.3591,-4.4004,-4.451,-4.4943,-4.5333,-4.5623,-4.5616,-4.5329,-4.5039,-4.4794,-4.4414,-4.4288,-4.3945,-4.3845,-4.3884,-4.4143,-4.432,-4.3771,-4.3472,-4.3369,-4.3155,-4.288,-4.2596,-4.2396,-4.1677,-4.0666,-4.0487,-4.0487,-4.0008,-3.9463,-3.9768,-4.0053,-3.9783,-3.9858,-4.0172,-4.0606,-4.1175,-5.7881,-5.7881,-5.7881,-5.7881,-5.7881,-5.7881,-5.7881,-5.7881,-5.7881,-5.7881,-5.7881,-5.7881,-5.7881,-5.7881,-5.7865,-5.7712,-5.7344,-5.6374,-5.5113,-5.4186,-5.2242,-5.063,-4.946,-4.8507,-4.7757,-4.7414,-4.7309,-4.7309,-4.7294,-4.7834,-4.8225,-4.8569,-4.9103,-4.884,-4.7472,-4.6202,-4.5499,-4.4945,-4.4392,-4.3988,-4.3928,-4.3544,-4.32,-4.297,-4.294,-4.2626,-4.2087,-4.2081,-4.2051,-4.2021,-4.2381,-4.2536,-4.2821,-4.3215,-4.3275,-4.3305,-4.3305,-4.3305,-4.3305,-4.3275,-4.329,-4.3305,-4.3305,-4.3305,-4.3305,-4.3305,-4.3849,-4.4548,-4.4548,-4.4586,-4.4548,-4.518,-4.5106,-4.4479,-4.451,-4.4878,-4.484,-4.3834,-4.3512,-4.3989,-4.4495,-4.4773,-4.5124,-4.5498,-4.5574,-4.5516,-4.5115,-4.4687,-4.4303,-4.4591,-4.4553,-4.4429,-4.4421,-4.4604,-4.4608,-4.4381,-4.4266,-4.4305,-4.3622,-4.2776,-4.2506,-4.2383,-4.1677,-4.0801,-4.0891,-4.1003,-4.0636,-4.0412,-4.0651,-4.0756,-4.0681,-4.0621,-4.0891,-4.1392,-4.1931,-5.7881,-5.7881,-5.7881,-5.7881,-5.7881,-5.7881,-5.7881,-5.7881,-5.7881,-5.7881,-5.7881,-5.7881,-5.7881,-5.7881,-5.7881,-5.7881,-5.7792,-5.7189,-5.6238,-5.5512,-5.3963,-5.225,-5.0758,-4.946,-4.852,-4.7856,-4.7471,-4.7424,-4.7904,-4.8486,-4.9215,-4.9876,-5.0242,-4.9981,-4.9008,-4.8238,-4.7022,-4.6366,-4.5707,-4.4926,-4.4444,-4.3873,-4.3544,-4.3334,-4.3215,-4.305,-4.2821,-4.271,-4.262,-4.2545,-4.2635,-4.2731,-4.303,-4.317,-4.326,-4.3305,-4.3305,-4.3305,-4.3305,-4.3305,-4.3305,-4.3305,-4.3305,-4.3305,-4.3448,-4.3708,-4.4419,-4.4989,-4.5211,-4.5504,-4.5794,-4.647,-4.6012,-4.5358,-4.5431,-4.5798,-4.5674,-4.4675,-4.4365,-4.4765,-4.4635,-4.482,-4.4804,-4.5078,-4.534,-4.5212,-4.5081,-4.4658,-4.436,-4.4855,-4.5165,-4.5008,-4.5096,-4.5424,-4.5488,-4.5342,-4.5269,-4.5285,-4.4399,-4.3372,-4.2779,-4.2675,-4.1814,-4.1085,-4.119,-4.1294,-4.1384,-4.1414,-4.1549,-4.1758,-4.1923,-4.1848,-4.1796,-4.2051,-4.2455,-5.7881,-5.7881,-5.7881,-5.7881,-5.7881,-5.7881,-5.7881,-5.7881,-5.7881,-5.7881,-5.7881,-5.7881,-5.7881,-5.7881,-5.7881,-5.7881,-5.7881,-5.7792,-5.721,-5.637,-5.5306,-5.3736,-5.2266,-5.0876,-4.972,-4.8624,-4.8162,-4.8477,-4.879,-4.9376,-5.0342,-5.1283,-5.1225,-5.1259,-5.0957,-5.0369,-4.895,-4.7822,-4.6896,-4.5925,-4.5015,-4.4306,-4.3902,-4.3618,-4.3349,-4.3275,-4.314,-4.3125,-4.291,-4.2851,-4.2955,-4.2821,-4.2851,-4.303,-4.3185,-4.3305,-4.3305,-4.3305,-4.3305,-4.3305,-4.3305,-4.3344,-4.3488,-4.3369,-4.363,-4.4205,-4.4989,-4.5798,-4.626,-4.6781,-4.7273,-4.6918,-4.6558,-4.6365,-4.626,-4.64,-4.6454,-4.6138,-4.5925,-4.5786,-4.5315,-4.5159,-4.4717,-4.4825,-4.4675,-4.4721,-4.4674,-4.4773,-4.4705,-4.557,-4.5761,-4.562,-4.5821,-4.6271,-4.6314,-4.626,-4.626,-4.6224,-4.5421,-4.4487,-4.3809,-4.3045,-4.2372,-4.1836,-4.161,-4.1654,-4.1998,-4.2207,-4.2381,-4.2551,-4.2671,-4.2641,-4.2432,-4.2402,-4.2716,-5.7881,-5.7881,-5.7881,-5.7881,-5.7881,-5.7881,-5.7881,-5.7881,-5.7881,-5.7881,-5.7881,-5.7881,-5.7881,-5.7881,-5.7881,-5.7881,-5.7881,-5.7881,-5.7755,-5.7146,-5.6381,-5.5345,-5.4179,-5.2908,-5.1356,-5.0289,-4.9797,-4.9731,-4.943,-5.0009,-5.1521,-5.2731,-5.2468,-5.2696,-5.2647,-5.2497,-5.0644,-4.9056,-4.8002,-4.6885,-4.5695,-4.487,-4.4421,-4.4062,-4.3544,-4.3454,-4.3394,-4.3319,-4.3135,-4.314,-4.3225,-4.315,-4.3125,-4.32,-4.3305,-4.3305,-4.3305,-4.3305,-4.3305,-4.3305,-4.3305,-4.3488,-4.3825,-4.4335,-4.4472,-4.4871,-4.5685,-4.647,-4.7122,-4.7589,-4.7868,-4.7688,-4.7406,-4.7306,-4.7239,-4.734,-4.734,-4.7054,-4.6815,-4.5984,-4.5552,-4.4642,-4.4278,-4.3903,-4.3804,-4.3979,-4.4225,-4.4489,-4.4983,-4.5816,-4.6209,-4.6059,-4.6832,-4.7374,-4.7306,-4.7205,-4.7205,-4.7088,-4.6282,-4.5444,-4.4497,-4.3695,-4.3045,-4.269,-4.2591,-4.267,-4.2796,-4.3004,-4.3148,-4.3039,-4.308,-4.3095,-4.3105,-4.2985,-4.2925,-5.7881,-5.7881,-5.7881,-5.7881,-5.7881,-5.7881,-5.7881,-5.7881,-5.7881,-5.7881,-5.7881,-5.7881,-5.7881,-5.7881,-5.7881,-5.7881,-5.7881,-5.7881,-5.7828,-5.7628,-5.7168,-5.6392,-5.5566,-5.4649,-5.323,-5.218,-5.155,-5.1399,-5.0916,-5.1549,-5.299,-5.3348,-5.3518,-5.3518,-5.3399,-5.306,-5.1869,-5.0243,-4.8889,-4.7819,-4.6592,-4.5514,-4.514,-4.4601,-4.4062,-4.3753,-4.3618,-4.3529,-4.3319,-4.3448,-4.3512,-4.3888,-4.3912,-4.3927,-4.3566,-4.3527,-4.3305,-4.3305,-4.3305,-4.3305,-4.3305,-4.3448,-4.3927,-4.4533,-4.5322,-4.5921,-4.6609,-4.7273,-4.7803,-4.8225,-4.8401,-4.8545,-4.837,-4.8225,-4.8289,-4.8401,-4.8161,-4.7852,-4.7071,-4.6109,-4.5159,-4.4079,-4.3449,-4.312,-4.3087,-4.3617,-4.4153,-4.4563,-4.5117,-4.5912,-4.6291,-4.6356,-4.7532,-4.8576,-4.8321,-4.8047,-4.8047,-4.7868,-4.7306,-4.6364,-4.5285,-4.4518,-4.3969,-4.3784,-4.3693,-4.3768,-4.3837,-4.3836,-4.3898,-4.3732,-4.3472,-4.3349,-4.3279,-4.3185,-4.317,-5.7881,-5.7881,-5.7881,-5.7881,-5.7881,-5.7881,-5.7881,-5.7881,-5.7881,-5.7881,-5.7881,-5.7881,-5.7881,-5.7881,-5.7881,-5.7881,-5.7881,-5.7881,-5.7881,-5.7881,-5.7755,-5.718,-5.6511,-5.571,-5.4741,-5.3873,-5.338,-5.3269,-5.3159,-5.337,-5.35,-5.3534,-5.3518,-5.3518,-5.3518,-5.3518,-5.2416,-5.0935,-5.0099,-4.9229,-4.7149,-4.6219,-4.6022,-4.5379,-4.4825,-4.4377,-4.4227,-4.3843,-4.3379,-4.3705,-4.412,-4.4655,-4.4871,-4.4662,-4.4159,-4.3747,-4.3488,-4.3305,-4.3305,-4.3305,-4.3305,-4.3329,-4.3433,-4.454,-4.5618,-4.6295,-4.685,-4.7836,-4.8401,-4.8576,-4.8767,-4.8798,-4.8719,-4.8656,-4.8719,-4.875,-4.8625,-4.8193,-4.7506,-4.6595,-4.5754,-4.4725,-4.4375,-4.4235,-4.4283,-4.4165,-4.4339,-4.4888,-4.5377,-4.6183,-4.652,-4.6748,-4.787,-4.8892,-4.8861,-4.8656,-4.8798,-4.8545,-4.8064,-4.7523,-4.6608,-4.575,-4.4937,-4.4831,-4.4769,-4.4831,-4.4878,-4.4856,-4.4668,-4.4305,-4.4013,-4.3615,-4.3472,-4.3488,-4.3305,-5.7881,-5.7881,-5.7881,-5.7881,-5.7881,-5.7881,-5.7881,-5.7881,-5.7881,-5.7881,-5.7881,-5.7881,-5.7881,-5.7881,-5.7881,-5.7881,-5.7881,-5.7881,-5.7881,-5.7881,-5.7881,-5.7755,-5.7463,-5.6992,-5.6283,-5.5603,-5.5215,-5.5015,-5.445,-5.4276,-5.4008,-5.3585,-5.3518,-5.3518,-5.3518,-5.3467,-5.2765,-5.1447,-5.1176,-4.9969,-4.7699,-4.6631,-4.6115,-4.5873,-4.5525,-4.511,-4.4855,-4.4466,-4.4182,-4.4193,-4.4511,-4.5142,-4.5814,-4.519,-4.4774,-4.4373,-4.3747,-4.3488,-4.3305,-4.3305,-4.3305,-4.3551,-4.395,-4.4974,-4.5834,-4.6279,-4.7054,-4.8129,-4.8798,-4.894,-4.9018,-4.9018,-4.9018,-4.9018,-4.9018,-4.9018,-4.9001,-4.8482,-4.7836,-4.7104,-4.6365,-4.5889,-4.5493,-4.5363,-4.5509,-4.5602,-4.5678,-4.5948,-4.6093,-4.664,-4.7011,-4.7374,-4.818,-4.8923,-4.897,-4.9018,-4.9018,-4.9018,-4.8625,-4.8161,-4.7737,-4.6797,-4.5885,-4.5869,-4.5854,-4.5885,-4.5885,-4.5869,-4.5618,-4.5106,-4.4803,-4.4479,-4.4128,-4.4066,-4.363,-5.7408,-5.7442,-5.7799,-5.7881,-5.7881,-5.7881,-5.7881,-5.7881,-5.7881,-5.7881,-5.7881,-5.7881,-5.7881,-5.7881,-5.7881,-5.7881,-5.7881,-5.7881,-5.7881,-5.7881,-5.7881,-5.7881,-5.7881,-5.7865,-5.7406,-5.6781,-5.6561,-5.6187,-5.5497,-5.4752,-5.4279,-5.3957,-5.3788,-5.3551,-5.3534,-5.3433,-5.299,-5.1938,-5.1974,-5.0703,-4.8651,-4.79,-4.7426,-4.7202,-4.6493,-4.598,-4.5529,-4.5181,-4.5193,-4.5577,-4.6243,-4.6442,-4.6807,-4.6435,-4.5634,-4.4909,-4.4259,-4.3771,-4.3448,-4.3305,-4.3305,-4.3551,-4.3669,-4.4403,-4.5905,-4.6454,-4.7239,-4.8225,-4.8798,-4.9018,-4.9018,-4.9018,-4.9018,-4.9018,-4.9018,-4.9018,-4.9001,-4.8767,-4.8129,-4.7456,-4.6884,-4.6574,-4.6173,-4.5818,-4.5925,-4.5925,-4.6189,-4.6365,-4.6609,-4.7122,-4.7489,-4.7885,-4.8576,-4.8923,-4.9001,-4.9018,-4.9018,-4.9018,-4.9018,-4.8482,-4.7836,-4.7306,-4.6815,-4.6815,-4.6815,-4.6815,-4.6815,-4.6815,-4.6384,-4.5854,-4.5618,-4.5416,-4.5064,-4.4721,-4.4366,-5.6714,-5.69,-5.7577,-5.7881,-5.7881,-5.7881,-5.7881,-5.7881,-5.7881,-5.7881,-5.7881,-5.7881,-5.7881,-5.7881,-5.7881,-5.7881,-5.7881,-5.7881,-5.7881,-5.7881,-5.7881,-5.7881,-5.7881,-5.7865,-5.7671,-5.7502,-5.7273,-5.6968,-5.6528,-5.5716,-5.5057,-5.4668,-5.4143,-5.3653,-5.3619,-5.345,-5.3076,-5.2522,-5.2241,-5.174,-5.0627,-4.9496,-4.8845,-4.8142,-4.7403,-4.6556,-4.6247,-4.604,-4.6113,-4.6928,-4.785,-4.8137,-4.7865,-4.7432,-4.6321,-4.5489,-4.4472,-4.3912,-4.3512,-4.3305,-4.3305,-4.3344,-4.3305,-4.4051,-4.5545,-4.6523,-4.7306,-4.8047,-4.8625,-4.9018,-4.9018,-4.9018,-4.9018,-4.9018,-4.9018,-4.9018,-4.897,-4.897,-4.8418,-4.7803,-4.7589,-4.7306,-4.7036,-4.6643,-4.6558,-4.6539,-4.6539,-4.6539,-4.6815,-4.7523,-4.808,-4.8306,-4.8656,-4.8909,-4.9001,-4.9018,-4.9018,-4.9018,-4.894,-4.8465,-4.808,-4.7917,-4.777,-4.777,-4.7754,-4.7737,-4.777,-4.777,-4.7273,-4.6765,-4.6504,-4.6365,-4.6119,-4.5758,-4.5336,-5.6275,-5.685,-5.7577,-5.7865,-5.7881,-5.7881,-5.7881,-5.7881,-5.7881,-5.7881,-5.7881,-5.7881,-5.7881,-5.7881,-5.7881,-5.7881,-5.7881,-5.7881,-5.7881,-5.7881,-5.7881,-5.7881,-5.7881,-5.7881,-5.7881,-5.7763,-5.7594,-5.7357,-5.7036,-5.6528,-5.6021,-5.548,-5.4752,-5.4363,-5.4245,-5.394,-5.3433,-5.304,-5.299,-5.2765,-5.2062,-5.0741,-4.9069,-4.8326,-4.7713,-4.7272,-4.695,-4.6456,-4.6811,-4.7676,-4.8849,-4.9424,-4.9194,-4.8413,-4.7257,-4.6031,-4.5011,-4.4011,-4.3611,-4.3344,-4.3305,-4.3305,-4.3409,-4.3771,-4.5048,-4.5996,-4.6815,-4.7754,-4.837,-4.8909,-4.9018,-4.9018,-4.9018,-4.9018,-4.9018,-4.9018,-4.9001,-4.9001,-4.8767,-4.8576,-4.8513,-4.8401,-4.8338,-4.8129,-4.8112,-4.808,-4.8047,-4.8064,-4.795,-4.8338,-4.8608,-4.8719,-4.8829,-4.8909,-4.9018,-4.9018,-4.9018,-4.9018,-4.897,-4.8719,-4.8625,-4.8798,-4.8719,-4.8465,-4.8545,-4.8576,-4.8625,-4.845,-4.845,-4.7982,-4.7589,-4.7323,-4.7104,-4.6858,-4.6506]},{"header":{"parameterUnit":"m.s-1","parameterCategory":1,"la1":31.0,"la2":29.5877,"lo1":-88.7671,"lo2":-86.6584,"dy":0.0162,"dx":0.0185,"nx":115,"ny":88,"refTime":"2026-03-14T12:00:00:Z","depth":0,"parameterNumber":3,"parameterNumberName":"V-component_of_WINDS"},"data":[0.0,0.0,0.0,0.0,0.0,0.0,0.0,0.0,0.0,0.0,0.0,0.0,0.0,0.0,0.0,0.0,0.0,0.0,0.0,0.0,0.0,0.0,0.0,0.0,0.0,0.0,0.0,0.0,0.0,0.0,0.0,0.0,0.0,0.0,0.0,0.0,0.0,0.0,0.0,0.0,0.0,0.0,0.0,0.0,0.0,0.0,0.0,0.0,0.0,0.0,0.0,0.0,0.0,0.0,0.0,0.0,0.0,0.0,0.0,0.0,0.0,0.0,0.0,0.0,0.0,0.0,0.0,0.0,0.0,0.0,0.0,0.0,0.0,0.0,0.0,0.0,0.0,0.0,0.0,0.0,0.0,0.0,0.0,0.0,0.0,0.0,0.0,0.0,0.0,0.0,0.0,0.0,0.0,0.0,0.0,0.0,0.0,0.0,0.0,0.0,0.0,0.0,0.0,0.0,0.0,0.0,0.0,0.0,0.0,0.0,0.0,0.0,0.0,0.0,0.0,0.0,0.0,0.0,0.0,0.0,0.0,0.0,0.0,0.0,0.0,0.0,0.0,0.0,0.0,0.0,0.0,0.0,0.0,0.0,0.0,0.0,0.0,0.0,0.0,0.0,0.0,0.0,0.0,0.0,0.0,0.0,0.0,0.0,0.0,0.0,0.0,0.0,0.0,0.0,0.0,0.0,0.0,0.0,0.0,0.0,0.0,0.0,0.0,0.0,0.0,0.0,0.0,0.0,0.0,0.0,0.0,0.0,0.0,0.0,0.0,0.0,0.0,0.0,0.0,0.0,0.0,0.0,0.0,0.0,0.0,0.0,0.0,0.0,0.0,0.0,0.0,0.0,0.0,0.0,0.0,0.0,0.0,0.0,0.0,0.0,0.0,0.0,0.0,0.0,0.0,0.0,0.0,0.0,0.0,0.0,0.0,0.0,0.0,0.0,0.0,0.0,0.0,0.0,0.0,0.0,0.0,0.0,0.0,0.0,0.0,0.0,0.0,0.0,0.0,0.0,0.0,0.0,0.0,0.0,0.0,0.0,0.0,0.0,0.0,0.0,0.0,0.0,0.0,0.0,0.0,0.0,0.0,0.0,0.0,0.0,0.0,0.0,0.0,0.0,0.0,0.0,0.0,0.0,0.0,0.0,0.0,0.0,0.0,0.0,0.0,0.0,0.0,0.0,0.0,0.0,0.0,0.0,0.0,0.0,0.0,0.0,0.0,0.0,0.0,0.0,0.0,0.0,0.0,0.0,0.0,0.0,0.0,0.0,0.0,0.0,0.0,0.0,0.0,0.0,0.0,0.0,0.0,0.0,0.0,0.0,0.0,0.0,0.0,0.0,0.0,0.0,0.0,0.0,0.0,0.0,0.0,0.0,0.0,0.0,0.0,0.0,0.0,0.0,0.0,0.0,0.0,0.0,0.0,0.0,0.0,0.0,0.0,0.0,0.0,0.0,0.0,0.0,0.0,0.0,0.0,0.0,0.0,0.0,0.0,0.0,0.0,0.0,0.0,0.0,0.0,0.0,0.0,0.0,0.0,0.0,0.0,0.0,0.0,0.0,0.0,0.0,0.0,0.0,0.0,0.0,0.0,0.0,0.0,0.0,0.0,0.0,0.0,0.0,0.0,0.0,0.0,0.0,0.0,0.0,0.0,0.0,0.0,0.0,0.0,0.0,0.0,0.0,0.0,0.0,0.0,0.0,0.0,0.0,0.0,0.0,0.0,0.0,0.0,0.0,0.0,0.0,0.0,0.0,0.0,0.0,0.0,0.0,0.0,0.0,0.0,0.0,0.0,0.0,0.0,0.0,0.0,0.0,0.0,0.0,0.0,0.0,0.0,0.0,0.0,0.0,0.0,0.0,0.0,0.0,0.0,0.0,0.0,0.0,0.0,0.0,0.0,0.0,0.0,0.0,0.0,0.0,0.0,0.0,0.0,0.0,0.0,0.0,0.0,0.0,0.0,0.0,0.0,0.0,0.0,0.0,0.0,0.0,0.0,0.0,0.0,0.0,0.0,0.0,0.0,0.0,0.0,0.0,0.0,0.0,0.0,0.0,0.0,0.0,0.0,0.0,0.0,0.0,0.0,0.0,0.0,0.0,0.0,0.0,0.0,0.0,0.0,0.0,0.0,0.0,0.0,0.0,0.0,0.0,0.0,0.0,0.0,0.0,0.0,0.0,0.0,0.0,0.0,0.0,0.0,0.0,0.0,0.0,0.0,0.0,0.0,0.0,0.0,0.0,0.0,0.0,0.0,0.0,0.0,0.0,0.0,0.0,0.0,0.0,0.0,0.0,0.0,0.0,0.0,0.0,0.0,0.0,0.0,0.0,0.0,0.0,0.0,0.0,0.0,0.0,0.0,0.0,0.0,0.0,0.0,0.0,0.0,0.0,0.0,0.0,0.0,0.0,0.0,0.0,0.0,0.0,0.0,0.0,0.0,0.0,0.0,0.0,0.0,0.0,0.0,0.0,0.0,0.0,0.0,0.0,0.0,0.0,0.0,0.0,0.0,0.0,0.0,0.0,0.0,0.0,0.0,0.0,0.0,0.0,0.0,0.0,0.0,0.0,0.0,0.0,0.0,0.0,0.0,0.0,0.0,0.0,0.0,0.0,0.0,0.0,0.0,0.0,0.0,0.0,0.0,0.0,0.0,0.0,0.0,0.0,0.0,0.0,0.0,0.0,0.0,0.0,0.0,0.0,0.0,0.0,0.0,0.0,0.0,0.0,0.0,0.0,0.0,0.0,0.0,0.0,0.0,0.0,0.0,0.0,0.0,0.0,0.0,0.0,0.0,0.0,0.0,0.0,0.0,0.0,0.0,0.0,0.0,0.0,0.0,0.0,0.0,0.0,0.0,0.0,0.0,0.0,0.0,0.0,0.0,0.0,0.0,0.0,0.0,0.0,0.0,0.0,0.0,0.0,0.0,0.0,0.0,0.0,0.0,0.0,0.0,0.0,0.0,0.0,0.0,0.0,0.0,0.0,0.0,0.0,0.0,0.0,0.0,0.0,0.0,0.0,0.0,0.0,0.0,0.0,0.0,0.0,0.0,0.0,0.0,0.0,0.0,0.0,0.0,0.0,0.0,0.0,0.0,0.0,0.0,0.0,0.0,0.0,0.0,0.0,0.0,0.0,0.0,0.0,0.0,0.0,0.0,0.0,0.0,0.0,0.0,0.0,0.0,0.0,0.0,0.0,0.0,0.0,0.0,0.0,0.0,0.0,0.0,0.0,0.0,0.0,0.0,0.0,0.0,0.0,0.0,0.0,0.0,0.0,0.0,0.0,0.0,0.0,0.0,0.0,0.0,0.0,0.0,0.0,0.0,0.0,0.0,0.0,0.0,0.0,0.0,0.0,0.0,0.0,0.0,0.0,0.0,0.0,0.0,0.0,0.0,0.0,0.0,0.0,0.0,0.0,0.0,0.0,0.0,0.0,0.0,0.0,0.0,0.0,0.0,0.0,0.0,0.0,0.0,0.0,0.0,0.0,0.0,0.0,0.0,0.0,0.0,0.0,0.0,0.0,0.0,0.0,0.0,0.0,0.0,0.0,0.0,0.0,0.0,0.0,0.0,0.0,0.0,0.0,0.0,0.0,0.0,0.0,0.0,0.0,0.0,0.0,0.0,0.0,0.0,0.0,0.0,0.0,0.0,0.0,0.0,0.0,0.0,0.0,0.0,0.0,0.0,0.0,0.0,0.0,0.0,0.0,0.0,0.0,0.0,0.0,0.0,0.0,0.0,0.0,0.0,0.0,0.0,0.0,0.0,0.0,0.0,0.0,0.0,0.0,0.0,0.0,0.0,0.0,0.0,0.0,0.0,0.0,0.0,0.0,0.0,0.0,0.0,0.0,0.0,0.0,0.0,0.0,0.0,0.0,0.0,0.0,0.0,0.0,0.0,0.0,0.0,0.0,0.0,0.0,0.0,0.0,0.0,0.0,0.0,0.0,0.0,0.0,0.0,0.0,0.0,0.0,0.0,0.0,0.0,0.0,0.0,0.0,0.0,0.0,0.0,0.0,0.0,0.0,0.0,0.0,0.0,0.0,0.0,0.0,0.0,0.0,0.0,0.0,0.0,0.0,0.0,0.0,0.0,0.0,0.0,0.0,0.0,0.0,0.0,0.0,0.0,0.0,0.0,0.0,0.0,0.0,0.0,0.0,0.0,0.0,0.0,0.0,0.0,0.0,0.0,0.0,0.0,0.0,0.0,0.0,0.0,0.0,0.0,0.0,0.0,0.0,0.0,0.0,0.0,0.0,0.0,0.0,1.1805,0.0,0.0,0.0,0.0,0.0,0.0,0.0,0.0,0.0,0.0,0.0,0.0,0.0,0.0,0.0,0.0,0.0,0.0,0.0,0.0,0.0,0.0,0.0,0.0,0.0,0.0,0.0,0.0,0.0,0.0,0.0,0.0,0.0,0.0,0.0,0.0,0.0,0.0,0.0,0.0,0.0,0.0,0.0,0.0,0.0,0.0,0.0,0.0,0.0,0.0,0.0,0.0,0.0,0.0,0.0,0.0,0.0,0.0,0.0,0.0,0.0,0.0,0.0,0.0,0.0,0.0,0.0,0.0,0.0,0.0,0.0,0.0,0.0,0.0,0.0,0.0,0.0,0.0,0.0,0.0,0.0,0.0,0.0,0.0,0.0,0.0,0.0,0.0,0.0,0.0,0.0,0.0,0.0,0.0,0.0,0.0,0.0,0.0,0.0,0.0,0.0,0.0,0.0,0.0,0.0,0.0,0.0,0.0,0.0,0.0,1.2784,1.2054,1.2211,1.2175,1.1835,0.0,0.0,0.0,0.0,0.0,0.0,0.0,0.0,0.0,0.0,0.0,0.0,0.0,0.0,0.0,0.0,0.0,0.0,0.0,0.0,0.0,0.0,0.0,0.0,0.0,0.0,0.0,0.0,0.0,0.0,0.0,0.0,0.0,0.0,0.0,0.0,0.0,0.0,0.0,0.0,0.0,0.0,0.0,0.0,0.0,0.0,0.0,0.0,0.0,0.0,0.0,0.0,0.0,0.0,0.0,0.0,0.0,0.0,0.0,0.0,0.0,0.0,0.0,0.0,0.0,0.0,0.0,0.0,0.0,0.0,0.0,0.0,0.0,0.0,0.0,0.0,0.0,0.0,0.0,0.0,0.0,0.0,0.0,0.0,0.0,0.0,0.0,0.0,0.0,0.0,0.0,0.0,0.0,0.0,0.0,0.0,0.0,0.0,0.0,0.0,0.0,0.0,0.0,0.0,0.0,0.0,0.0,0.0,0.0,0.0,0.0,0.0,1.2974,1.2919,1.2534,0.0,0.0,0.0,0.0,0.0,0.0,0.0,0.0,0.0,0.0,0.0,0.0,0.0,0.0,0.0,0.0,0.0,0.0,0.0,0.0,0.0,0.0,0.0,0.0,0.0,0.0,0.0,0.0,0.0,0.0,0.0,0.0,0.0,0.0,0.0,0.0,0.0,0.0,0.0,0.0,0.0,0.0,0.0,0.0,0.0,0.0,0.0,0.0,0.0,0.0,0.0,0.0,0.0,0.0,0.0,0.0,0.0,0.0,0.0,0.0,0.0,0.0,0.0,0.0,0.0,0.0,0.0,0.0,0.0,0.0,0.0,0.0,0.0,0.0,0.0,0.0,0.0,0.0,0.0,0.0,0.0,0.0,0.0,0.0,0.0,0.0,0.0,0.0,0.0,0.0,0.0,0.0,0.0,0.0,0.0,0.0,0.0,0.0,0.0,0.0,0.0,0.0,0.0,0.0,0.0,0.0,0.0,0.0,0.0,0.0,1.342,1.4186,1.4116,0.0,1.4523,0.0,0.0,0.0,0.0,0.0,0.0,0.0,0.0,0.0,0.0,0.0,0.0,0.0,0.0,0.0,0.0,0.0,0.0,0.0,0.0,0.0,0.0,0.0,0.0,0.0,0.0,0.0,0.0,0.0,0.0,0.0,0.0,0.0,0.0,0.0,0.0,0.0,0.0,0.0,0.0,0.0,0.0,0.0,0.0,0.0,0.0,0.0,0.0,0.0,0.0,0.0,0.0,0.0,0.0,0.0,0.0,0.0,0.0,0.0,0.0,0.0,0.0,0.0,0.0,0.0,0.0,0.0,0.0,0.0,0.0,0.0,0.0,0.0,0.0,0.0,0.0,0.0,0.0,0.0,0.0,0.0,0.0,0.0,0.0,0.0,0.0,0.0,0.0,0.0,0.0,0.0,0.0,0.0,0.0,0.0,0.0,0.0,0.0,0.0,0.0,0.0,0.0,0.0,0.0,0.0,0.0,0.0,0.0,0.0,0.0,1.4885,1.4881,1.4665,1.481,0.0,0.0,0.0,0.0,0.0,0.0,0.0,0.0,0.0,0.0,0.0,0.0,0.0,0.0,0.0,0.0,0.0,0.0,0.0,0.0,0.0,0.0,0.0,0.0,0.0,0.0,0.0,0.0,0.0,0.0,0.0,0.0,0.0,0.0,0.0,0.0,0.0,0.0,0.0,0.0,0.0,0.0,0.0,0.0,0.0,0.0,0.0,0.0,0.0,0.0,0.0,0.0,0.0,0.0,0.0,0.0,0.0,0.0,0.0,0.0,0.0,0.0,0.0,0.0,0.0,0.0,0.0,0.0,0.0,0.0,0.0,0.0,0.0,0.0,0.0,0.0,0.0,0.0,0.0,0.0,0.0,0.0,0.0,0.0,0.0,0.0,0.0,0.0,0.0,0.0,0.0,0.0,0.0,0.0,0.0,0.0,0.0,0.0,0.0,0.0,0.0,0.0,0.0,0.0,0.0,0.0,0.0,0.0,0.0,0.0,1.5568,0.0,1.5637,1.5463,1.5362,1.5356,0.0,0.0,0.0,0.0,0.0,0.0,0.0,0.0,0.0,0.0,0.0,0.0,0.0,0.0,0.0,0.0,0.0,0.0,0.0,0.0,0.0,0.0,0.0,0.0,0.0,0.0,0.0,0.0,0.0,0.0,0.0,0.0,0.0,0.0,0.0,0.0,0.0,0.0,0.0,0.0,0.0,0.0,0.0,0.0,0.0,0.0,0.0,0.0,0.0,0.0,0.0,0.0,0.0,0.0,0.0,0.0,0.0,0.0,0.0,0.0,0.0,0.0,0.0,0.0,0.0,0.0,0.0,0.0,0.0,0.0,0.0,0.0,0.0,0.0,0.0,0.0,0.0,0.0,0.0,0.0,0.0,0.0,0.0,0.0,0.0,0.0,0.0,0.0,0.0,0.0,0.0,0.0,0.0,0.0,0.0,0.0,0.0,0.0,0.0,0.0,0.0,0.0,0.0,0.0,0.0,0.0,0.0,0.0,0.0,1.6285,1.5972,1.6722,1.6706,1.5962,0.0,0.0,0.0,0.0,0.0,0.0,0.0,0.0,0.0,0.0,0.0,0.0,0.0,0.0,0.0,0.0,0.0,0.0,0.0,0.0,0.0,0.0,0.0,0.0,0.0,0.0,0.0,0.0,0.0,0.0,0.0,0.0,0.0,0.0,0.0,0.0,0.0,0.0,0.0,0.0,0.0,0.0,0.0,0.0,0.0,0.0,0.0,0.0,0.0,0.0,0.0,0.0,0.0,0.0,0.0,0.0,0.0,0.0,0.0,0.0,0.0,0.0,0.0,0.0,0.0,0.0,0.0,0.0,0.0,0.0,0.0,0.0,0.0,0.0,0.0,0.0,0.0,0.0,0.0,0.0,0.0,0.0,0.0,0.0,0.0,0.0,0.0,0.0,0.0,0.0,0.0,0.0,0.0,0.0,0.0,0.0,0.0,0.0,0.0,0.0,0.0,0.0,0.0,0.0,0.0,0.0,0.0,0.0,0.0,1.4671,1.5121,1.6409,1.8493,1.6964,1.6166,0.0,0.0,0.0,0.0,0.0,0.0,0.0,0.0,0.0,0.0,0.0,0.0,0.0,0.0,0.0,0.0,0.0,0.0,0.0,0.0,0.0,0.0,0.0,0.0,0.0,0.0,0.0,0.0,0.0,0.0,0.0,0.0,0.0,0.0,0.0,0.0,0.0,0.0,0.0,0.0,0.0,0.0,0.0,0.0,0.0,0.0,0.0,0.0,0.0,0.0,0.0,0.0,0.0,0.0,0.0,0.0,0.0,0.0,0.0,0.0,0.0,0.0,0.0,0.0,0.0,0.0,0.0,0.0,0.0,0.0,0.0,0.0,0.0,0.0,0.0,0.0,0.0,0.0,0.0,0.0,0.0,0.0,0.0,0.0,0.0,0.0,0.0,0.0,0.0,0.0,0.0,0.0,0.0,0.0,0.0,0.0,0.0,0.0,0.0,0.0,0.0,0.0,0.0,0.0,0.0,0.0,0.0,0.0,0.0,1.4251,0.0,1.7296,0.0,1.7177,1.6298,0.0,0.0,0.0,0.0,0.0,0.0,0.0,0.0,0.0,0.0,0.0,0.0,0.0,0.0,0.0,0.0,0.0,0.0,0.0,0.0,0.0,0.0,0.0,0.0,0.0,0.0,0.0,0.0,0.0,0.0,0.0,0.0,0.0,0.0,0.0,0.0,0.0,0.0,0.0,0.0,0.0,0.0,0.0,0.0,0.0,0.0,0.0,0.0,0.0,0.0,0.0,0.0,0.0,0.0,0.0,0.0,0.0,0.0,0.0,0.0,0.0,0.0,0.0,0.0,0.0,0.0,0.0,0.0,0.0,0.0,0.0,0.0,0.0,0.0,0.0,0.0,0.0,0.0,0.0,0.0,0.0,0.0,0.0,0.0,0.0,0.0,0.0,0.0,0.0,0.0,0.0,0.0,0.0,0.0,0.0,0.0,0.0,0.0,0.0,0.0,0.0,0.0,0.0,0.0,0.0,0.0,0.0,0.0,1.4957,1.6687,1.8315,1.838,1.6924,1.7415,1.6298,0.0,0.0,0.0,0.0,0.0,0.0,0.0,0.0,0.0,0.0,0.0,0.0,0.0,0.0,0.0,0.0,0.0,0.0,0.0,0.0,0.0,0.0,0.0,0.0,0.0,0.0,0.0,0.0,0.0,0.0,0.0,0.0,0.0,0.0,0.0,0.0,0.0,0.0,0.0,0.0,0.0,0.0,0.0,0.0,0.0,0.0,0.0,0.0,0.0,0.0,0.0,0.0,0.0,0.0,0.0,0.0,0.0,0.0,0.0,0.0,0.0,0.0,0.0,0.0,0.0,0.0,0.0,0.0,0.0,0.0,0.0,0.0,0.0,0.0,0.0,0.0,0.0,0.0,0.0,0.0,0.0,0.0,0.0,0.0,0.0,0.0,0.0,0.0,0.0,0.0,0.0,0.0,0.0,0.0,0.0,0.0,0.0,0.0,0.0,0.0,0.0,0.0,0.0,0.0,0.0,0.0,0.0,0.0,0.0,1.5434,1.623,1.7177,1.8228,1.7212,1.6774,0.0,0.0,0.0,0.0,0.0,0.0,0.0,0.0,0.0,0.0,0.0,0.0,0.0,0.0,0.0,0.0,0.0,0.0,0.0,0.0,0.0,0.0,0.0,0.0,0.0,0.0,0.0,0.0,0.0,0.0,0.0,0.0,0.0,0.0,0.0,0.0,0.0,0.0,0.0,0.0,0.0,0.0,0.0,0.0,0.0,0.0,0.0,0.0,0.0,0.0,0.0,0.0,0.0,0.0,0.0,0.0,0.0,0.0,0.0,0.0,0.0,0.0,0.0,0.0,0.0,0.0,0.0,0.0,0.0,0.0,0.0,0.0,0.0,0.0,0.0,0.0,0.0,0.0,0.0,0.0,0.0,0.0,0.0,0.0,0.0,0.0,0.0,0.0,0.0,0.0,0.0,0.0,0.0,0.0,0.0,0.0,0.0,0.0,0.0,0.0,0.0,0.0,0.0,0.0,0.0,0.0,0.0,0.0,0.0,1.633,1.6733,1.75,1.8628,1.7399,1.7003,1.7554,0.0,0.0,0.0,0.0,0.0,0.0,0.0,0.0,0.0,0.0,0.0,0.0,0.0,0.0,0.0,0.0,0.0,0.0,0.0,0.0,0.0,0.0,0.0,0.0,0.0,0.0,0.0,0.0,0.0,0.0,0.0,0.0,0.0,0.0,0.0,0.0,0.0,0.0,0.0,0.0,0.0,0.0,0.0,0.0,0.0,0.0,0.0,0.0,0.0,0.0,0.0,0.0,0.0,0.0,0.0,0.0,0.0,0.0,0.0,0.0,0.0,0.0,0.0,0.0,0.0,0.0,0.0,0.0,0.0,0.0,0.0,0.0,0.0,0.0,0.0,0.0,0.0,0.0,0.0,0.0,0.0,0.0,0.0,0.0,0.0,0.0,0.0,0.0,0.0,0.0,0.0,0.0,0.0,0.0,0.0,0.0,0.0,0.0,0.0,0.0,0.0,0.0,0.0,0.0,0.0,0.0,0.0,0.0,1.8979,1.9398,1.9196,1.836,1.8054,1.7207,0.0,0.0,0.0,0.0,0.0,0.0,0.0,0.0,0.0,0.0,0.0,0.0,0.0,0.0,0.0,0.0,0.0,0.0,0.0,0.0,0.0,0.0,0.0,0.0,0.0,0.0,0.0,0.0,0.0,0.0,0.0,0.0,0.0,0.0,0.0,0.0,0.0,0.0,0.0,0.0,0.0,0.0,0.0,0.0,0.0,0.0,0.0,0.0,0.0,0.0,0.0,0.0,0.0,0.0,0.0,0.0,0.0,0.0,0.0,0.0,0.0,0.0,0.0,0.0,0.0,0.0,0.0,0.0,0.0,0.0,0.0,0.0,0.0,0.0,0.0,0.0,0.0,0.0,0.0,0.0,0.0,0.0,0.0,0.0,0.0,0.0,0.0,0.0,0.0,0.0,0.0,0.0,0.0,0.0,0.0,0.0,0.0,0.0,0.0,0.0,0.0,0.0,0.0,0.0,0.0,0.0,0.0,0.0,0.0,2.0102,1.9961,2.0021,2.0426,1.94,1.8695,0.0,0.0,0.0,0.0,0.0,0.0,0.0,0.0,0.0,0.0,0.0,0.0,0.0,0.0,0.0,0.0,0.0,0.0,0.0,0.0,0.0,0.0,0.0,0.0,0.0,0.0,0.0,0.0,0.0,0.0,0.0,0.0,0.0,0.0,0.0,0.0,0.0,0.0,0.0,0.0,0.0,0.0,0.0,0.0,0.0,0.0,0.0,0.0,0.0,0.0,0.0,0.0,0.0,0.0,0.0,0.0,0.0,0.0,0.0,0.0,0.0,0.0,0.0,0.0,0.0,0.0,0.0,0.0,0.0,0.0,0.0,0.0,0.0,0.0,0.0,0.0,0.0,0.0,0.0,0.0,0.0,0.0,0.0,0.0,0.0,0.0,0.0,0.0,0.0,0.0,0.0,0.0,0.0,0.0,0.0,0.0,0.0,0.0,0.0,0.0,0.0,0.0,0.0,0.0,0.0,0.0,0.0,0.0,1.7969,2.0394,2.0589,2.1133,2.2149,2.0885,1.9765,0.0,0.0,0.0,0.0,0.0,0.0,0.0,0.0,0.0,0.0,0.0,0.0,0.0,0.0,0.0,0.0,0.0,0.0,0.0,0.0,0.0,0.0,0.0,0.0,0.0,0.0,0.0,0.0,0.0,0.0,0.0,0.0,0.0,0.0,0.0,0.0,0.0,0.0,0.0,0.0,0.0,0.0,0.0,0.0,0.0,0.0,0.0,0.0,0.0,0.0,0.0,0.0,0.0,0.0,0.0,0.0,0.0,0.0,0.0,0.0,0.0,0.0,0.0,0.0,0.0,0.0,0.0,0.0,0.0,0.0,0.0,0.0,0.0,0.0,0.0,0.0,0.0,0.0,0.0,0.0,0.0,0.0,0.0,0.0,0.0,0.0,0.0,0.0,0.0,0.0,0.0,0.0,0.0,0.0,0.0,0.0,0.0,0.0,0.0,0.0,0.0,0.0,0.0,0.0,0.0,0.0,0.0,0.0,1.8343,2.0245,2.1204,2.2246,2.3292,2.217,2.057,0.0,0.0,0.0,0.0,0.0,0.0,0.0,0.0,0.0,0.0,0.0,0.0,0.0,0.0,0.0,0.0,0.0,0.0,0.0,0.0,0.0,0.0,0.0,0.0,0.0,0.0,0.0,0.0,0.0,0.0,0.0,0.0,0.0,0.0,0.0,0.0,0.0,0.0,0.0,0.0,0.0,0.0,0.0,0.0,0.0,0.0,0.0,0.0,0.0,0.0,0.0,0.0,0.0,0.0,0.0,0.0,0.0,0.0,0.0,0.0,0.0,0.0,0.0,0.0,0.0,0.0,0.0,0.0,0.0,0.0,0.0,0.0,0.0,0.0,0.0,0.0,0.0,0.0,0.0,0.0,0.0,0.0,0.0,0.0,0.0,0.0,0.0,0.0,0.0,0.0,0.0,0.0,0.0,0.0,0.0,0.0,0.0,0.0,0.0,0.0,0.0,0.0,0.0,0.0,0.0,0.0,0.0,0.0,1.8686,2.1282,2.1596,2.2246,2.3347,2.2065,2.1215,0.0,0.0,0.0,0.0,0.0,0.0,0.0,0.0,0.0,0.0,0.0,0.0,0.0,0.0,0.0,0.0,0.0,0.0,0.0,0.0,0.0,0.0,0.0,0.0,0.0,0.0,0.0,0.0,0.0,0.0,0.0,0.0,0.0,0.0,0.0,0.0,0.0,0.0,0.0,0.0,0.0,0.0,0.0,0.0,0.0,0.0,0.0,0.0,1.7277,0.0,0.0,0.0,0.0,0.0,0.0,0.0,0.0,0.0,0.0,0.0,0.0,0.0,0.0,0.0,0.0,0.0,0.0,0.0,0.0,0.0,0.0,0.0,0.0,0.0,0.0,0.0,0.0,0.0,0.0,0.0,0.0,0.0,0.0,0.0,0.0,0.0,0.0,0.0,0.0,0.0,0.0,0.0,0.0,0.0,0.0,0.0,0.0,0.0,0.0,0.0,0.0,0.0,0.0,0.0,0.0,0.0,0.0,0.0,1.9456,2.2073,2.2114,2.2827,2.4194,2.2886,2.1945,0.0,0.0,0.0,0.0,0.0,0.0,0.0,0.0,0.0,0.0,0.0,0.0,0.0,0.0,0.0,0.0,0.0,0.0,0.0,0.0,0.0,0.0,0.0,0.0,0.0,0.0,0.0,0.0,0.0,0.0,0.0,0.0,0.0,0.0,0.0,0.0,0.0,0.0,0.0,0.0,0.0,0.0,0.0,0.0,0.0,0.0,0.0,0.0,0.0,0.0,0.0,0.0,0.0,0.0,0.0,0.0,0.0,0.0,0.0,0.0,0.0,0.0,0.0,0.0,0.0,0.0,0.0,0.0,0.0,0.0,0.0,0.0,0.0,0.0,0.0,0.0,0.0,0.0,0.0,0.0,0.0,0.0,0.0,0.0,0.0,0.0,0.0,0.0,0.0,0.0,0.0,0.0,0.0,0.0,0.0,0.0,0.0,0.0,0.0,0.0,0.0,0.0,0.0,0.0,0.0,0.0,0.0,1.8281,2.0238,2.2708,2.268,2.3493,2.5305,2.3843,2.2662,2.196,0.0,0.0,0.0,0.0,0.0,0.0,0.0,0.0,0.0,0.0,0.0,0.0,0.0,0.0,0.0,0.0,0.0,0.0,0.0,0.0,0.0,0.0,0.0,0.0,0.0,0.0,0.0,0.0,0.0,0.0,0.0,0.0,0.0,0.0,0.0,0.0,0.0,0.0,1.4104,1.6853,0.0,0.0,0.0,0.0,0.0,0.0,0.0,0.0,1.9222,0.0,0.0,0.0,0.0,0.0,0.0,0.0,0.0,0.0,0.0,0.0,0.0,0.0,0.0,0.0,0.0,0.0,0.0,0.0,0.0,0.0,0.0,0.0,0.0,0.0,0.0,0.0,0.0,0.0,0.0,0.0,0.0,0.0,0.0,0.0,0.0,0.0,0.0,0.0,0.0,0.0,0.0,0.0,0.0,0.0,0.0,0.0,0.0,0.0,0.0,0.0,0.0,0.0,0.0,0.0,0.0,1.8544,1.887,2.0433,2.3356,2.2901,2.3493,2.5253,2.3843,2.3095,2.326,0.0,0.0,0.0,0.0,0.0,0.0,0.0,0.0,0.0,0.0,0.0,0.0,0.0,0.0,0.0,0.0,0.0,0.0,0.0,0.0,0.0,0.0,0.0,0.0,0.0,0.0,0.0,0.0,0.0,0.0,0.0,0.0,0.0,0.0,0.0,0.0,0.0,0.0,0.0,1.9923,2.1248,0.0,0.0,0.0,0.0,0.0,0.0,0.0,0.0,1.8476,0.0,0.0,0.0,0.0,0.0,0.0,0.0,0.0,0.0,0.0,0.0,0.0,0.0,0.0,0.0,0.0,0.0,0.0,0.0,0.0,0.0,0.0,0.0,0.0,0.0,0.0,0.0,0.0,0.0,0.0,0.0,0.0,0.0,0.0,0.0,0.0,0.0,0.0,0.0,0.0,0.0,0.0,0.0,0.0,0.0,0.0,0.0,0.0,0.0,0.0,0.0,0.0,0.0,0.0,0.0,1.8821,1.9214,2.0827,2.3824,2.367,2.3978,2.4855,2.3789,2.3233,0.0,0.0,0.0,0.0,0.0,0.0,0.0,0.0,0.0,0.0,0.0,0.0,0.0,0.0,0.0,0.0,0.0,0.0,0.0,0.0,0.0,0.0,0.0,0.0,0.0,0.0,0.0,0.0,0.0,0.0,0.0,0.0,0.0,0.0,0.0,0.0,0.0,0.0,0.0,0.0,2.1113,2.24,2.3171,0.0,0.0,0.0,0.0,0.0,0.0,2.0357,1.9826,0.0,0.0,0.0,0.0,0.0,0.0,0.0,0.0,0.0,0.0,0.0,0.0,0.0,0.0,0.0,0.0,0.0,0.0,0.0,0.0,0.0,0.0,0.0,0.0,0.0,0.0,0.0,0.0,0.0,0.0,0.0,0.0,0.0,0.0,0.0,0.0,0.0,0.0,0.0,0.0,0.0,0.0,0.0,0.0,0.0,0.0,0.0,0.0,0.0,0.0,0.0,0.0,0.0,0.0,0.0,1.9058,1.9519,2.1209,2.4116,2.4216,2.4274,2.4468,2.3588,2.2976,0.0,0.0,0.0,0.0,0.0,0.0,0.0,0.0,0.0,0.0,0.0,0.0,0.0,0.0,0.0,0.0,0.0,0.0,0.0,0.0,0.0,0.0,0.0,0.0,0.0,0.0,0.0,0.0,0.0,0.0,0.0,0.0,0.0,0.0,0.0,0.0,0.0,0.0,0.0,0.0,0.0,2.3554,2.3981,2.3884,0.0,0.0,0.0,0.0,2.2628,2.2492,0.0,0.0,0.0,0.0,0.0,0.0,0.0,0.0,0.0,0.0,0.0,0.0,0.0,0.0,0.0,0.0,0.0,0.0,0.0,0.0,0.0,0.0,0.0,0.0,0.0,0.0,0.0,0.0,0.0,0.0,0.0,0.0,0.0,0.0,0.0,0.0,0.0,0.0,0.0,0.0,0.0,0.0,0.0,0.0,0.0,0.0,0.0,0.0,0.0,0.0,0.0,0.0,0.0,0.0,0.0,0.0,1.9571,1.9984,2.1482,2.41,2.3725,2.377,2.4457,2.3091,2.2217,0.0,0.0,0.0,0.0,0.0,0.0,0.0,0.0,0.0,0.0,0.0,0.0,0.0,0.0,0.0,0.0,0.0,0.0,0.0,0.0,0.0,0.0,0.0,0.0,0.0,0.0,0.0,0.0,0.0,0.0,0.0,0.0,0.0,0.0,0.0,0.0,0.0,0.0,0.0,0.0,0.0,2.5575,2.4961,2.415,2.3767,0.0,0.0,2.3638,2.4958,2.5147,0.0,0.0,0.0,0.0,0.0,0.0,0.0,0.0,0.0,0.0,0.0,0.0,0.0,0.0,0.0,0.0,0.0,0.0,0.0,0.0,0.0,0.0,0.0,0.0,0.0,0.0,0.0,0.0,0.0,0.0,0.0,0.0,0.0,0.0,0.0,0.0,0.0,0.0,0.0,0.0,0.0,0.0,0.0,0.0,0.0,0.0,0.0,0.0,0.0,0.0,0.0,0.0,0.0,0.0,0.0,1.6641,1.967,1.9961,2.117,2.3522,2.3796,2.3877,2.3895,2.2901,2.2196,0.0,0.0,0.0,0.0,0.0,0.0,0.0,0.0,0.0,0.0,0.0,0.0,0.0,0.0,0.0,0.0,0.0,0.0,0.0,0.0,0.0,0.0,0.0,0.0,0.0,0.0,0.0,0.0,0.0,0.0,0.0,0.0,0.0,0.0,0.0,0.0,0.0,0.0,0.0,0.0,0.0,0.0,2.5985,2.5722,0.0,0.0,0.0,2.5473,2.6133,0.0,0.0,0.0,0.0,0.0,0.0,0.0,0.0,0.0,0.0,0.0,0.0,0.0,0.0,0.0,0.0,0.0,0.0,0.0,0.0,0.0,0.0,0.0,0.0,0.0,0.0,0.0,0.0,0.0,0.0,0.0,0.0,0.0,0.0,0.0,0.0,0.0,0.0,0.0,0.0,0.0,0.0,0.0,0.0,0.0,0.0,0.0,0.0,0.0,0.0,0.0,0.0,0.0,0.0,0.0,0.0,0.0,1.9721,1.9983,2.1051,2.3022,2.3679,2.3725,2.316,2.2557,0.0,0.0,0.0,0.0,0.0,0.0,0.0,0.0,0.0,0.0,0.0,0.0,0.0,0.0,0.0,0.0,0.0,0.0,0.0,0.0,0.0,0.0,0.0,0.0,0.0,0.0,0.0,0.6336,0.0,0.0,0.0,0.0,0.0,0.0,0.0,0.0,0.0,0.0,0.0,0.0,0.0,0.0,2.4958,2.6525,2.6756,2.6935,0.0,0.0,2.7178,2.7503,2.7706,2.7029,0.0,0.0,0.0,0.0,0.0,0.0,0.0,0.0,0.0,0.0,0.0,0.0,0.0,0.0,0.0,0.0,0.0,0.0,0.0,0.0,0.0,0.0,0.0,0.0,0.0,0.0,0.0,0.0,0.0,0.0,0.0,0.0,0.0,0.0,0.0,0.0,0.0,0.0,0.0,0.0,0.0,0.0,0.0,0.0,0.0,0.0,0.0,0.0,0.0,0.0,0.0,0.0,0.0,0.0,0.0,1.9682,2.0303,2.1381,2.3035,2.3168,2.2965,2.247,2.1818,2.0859,0.0,0.0,0.0,0.0,0.0,0.0,0.0,0.0,0.0,0.0,0.0,0.0,0.0,0.0,0.0,0.0,0.0,0.0,0.0,0.0,0.0,0.0,0.0,0.0,0.0,0.0,0.0,0.0,0.0,0.0,0.0,0.0,0.0,0.0,0.0,0.0,0.0,0.0,0.0,0.0,0.0,2.5477,2.6238,2.6351,2.6995,0.0,0.0,2.8445,2.9677,3.0412,2.9888,2.6945,0.0,0.0,0.0,0.0,0.0,0.0,0.0,0.0,0.0,0.0,0.0,0.0,0.0,0.0,0.0,0.0,0.0,0.0,0.0,0.0,0.0,0.0,0.0,0.0,0.0,0.0,0.0,0.0,0.0,0.0,0.0,0.0,0.0,0.0,0.0,0.0,0.0,0.0,0.0,0.0,0.0,0.0,0.0,0.0,0.0,0.0,0.0,0.0,0.0,0.0,0.0,0.0,0.0,1.6983,1.9747,2.0337,2.1416,2.3005,2.3095,2.3043,2.2968,2.1613,2.0578,0.0,0.0,0.0,0.0,0.0,0.0,0.0,0.0,0.0,0.0,0.0,0.0,0.0,0.0,0.0,0.0,0.0,0.0,0.0,0.0,0.0,0.0,0.0,0.0,0.0,0.0,0.0,0.0,1.0375,1.1314,1.2253,0.0,0.0,0.0,0.0,0.0,0.0,0.0,0.0,0.0,0.0,2.474,2.6692,2.7315,0.0,0.0,2.9329,2.9676,3.0627,2.9837,2.8551,2.6962,2.5084,0.0,0.0,0.0,0.0,0.0,0.0,0.0,0.0,0.0,0.0,0.0,0.0,0.0,0.0,0.0,0.0,0.0,0.0,0.0,0.0,0.0,0.0,0.0,0.0,0.0,0.0,0.0,0.0,0.0,0.0,0.0,0.0,0.0,0.0,0.0,0.0,0.0,0.0,0.0,0.0,0.0,0.0,0.0,0.0,0.0,0.0,0.0,0.0,0.0,0.0,0.0,0.0,1.6983,1.976,2.0337,2.1416,2.3078,2.3095,2.3056,2.2961,2.1616,2.0545,0.0,0.0,0.0,0.0,0.0,0.0,0.0,0.0,0.0,0.0,0.0,0.0,0.0,0.0,0.0,0.0,0.0,0.0,0.0,0.0,0.0,0.0,0.0,0.0,0.0,0.0,0.0,0.0,1.1906,1.264,1.312,0.0,0.0,0.0,0.0,0.0,0.0,0.0,0.0,0.0,0.0,2.4681,2.7056,2.7805,2.8338,2.9025,2.9421,2.979,3.0296,2.9345,2.808,2.6689,0.0,0.0,0.0,0.0,0.0,0.0,0.0,0.0,0.0,0.0,0.0,0.0,0.0,0.0,0.0,0.0,0.0,0.0,0.0,0.0,0.0,0.0,0.0,0.0,0.0,0.0,0.0,0.0,0.0,0.0,1.5602,0.0,0.0,0.0,0.0,0.0,0.0,0.0,0.0,0.0,0.0,0.0,0.0,0.0,0.0,0.0,0.0,0.0,0.0,0.0,0.0,0.0,0.0,1.6994,1.9721,2.0308,2.1385,2.3005,2.3108,2.2874,2.2351,2.1765,2.0648,1.8872,0.0,0.0,0.0,0.0,0.0,0.0,0.0,0.0,0.0,0.0,0.0,0.0,0.0,0.0,0.0,0.0,0.0,0.0,0.0,0.0,0.0,0.0,0.0,0.0,0.0,0.0,1.2599,1.2756,1.264,0.0,0.0,0.0,0.0,0.0,0.0,0.0,0.0,0.0,0.0,2.3795,2.5777,2.7188,2.7528,2.7889,2.8487,2.8567,2.8552,2.8581,2.9445,2.9292,0.0,0.0,0.0,0.0,0.0,0.0,0.0,0.0,0.0,0.0,0.0,0.0,0.0,0.0,0.0,0.0,0.0,0.0,0.0,0.0,0.0,0.0,0.0,0.0,0.0,0.0,0.0,1.6966,1.6461,0.0,0.0,0.0,0.0,0.0,0.0,0.0,0.0,0.0,0.0,0.0,1.7904,1.7784,0.0,0.0,0.0,0.0,0.0,0.0,0.0,0.0,0.0,0.0,0.0,0.0,1.6851,1.8333,1.9826,2.1164,2.2292,2.2823,2.302,2.2819,2.1612,1.995,1.7804,0.0,0.0,0.0,0.0,0.0,0.0,0.0,0.0,0.0,0.0,0.0,0.0,0.0,0.0,0.0,0.0,0.0,0.0,0.0,0.0,0.0,0.0,0.0,0.0,0.0,1.249,0.0,0.0,0.0,0.0,0.0,0.0,0.0,0.0,0.0,0.0,0.0,2.1017,2.3111,2.4612,2.5991,2.7355,2.7914,2.8415,0.0,0.0,0.0,0.0,0.0,0.0,0.0,0.0,0.0,0.0,0.0,0.0,0.0,0.0,2.8282,2.3849,2.2632,2.2462,2.2953,0.0,0.0,0.0,0.0,0.0,0.0,0.0,0.0,0.0,0.0,0.0,0.0,0.0,0.0,1.8008,0.0,1.7675,0.0,0.0,0.0,0.0,0.0,0.0,0.0,0.0,1.8035,1.8547,1.9032,1.8923,1.8831,0.0,1.8187,1.6871,0.0,0.0,0.0,0.0,0.0,0.0,0.0,0.0,1.694,1.8057,1.9719,2.1085,2.2064,2.2757,2.3095,2.307,2.1531,1.9889,1.8161,1.719,1.6473,0.0,0.0,0.0,0.0,0.0,0.0,0.0,0.0,0.0,0.0,0.0,0.0,0.0,0.0,0.0,0.0,0.0,0.0,0.0,0.0,0.0,0.0,0.0,1.3391,0.0,0.0,0.0,0.0,0.0,0.0,0.0,0.0,0.0,1.8129,2.0144,2.2344,2.4432,2.5417,2.6333,2.745,0.0,0.0,0.0,0.0,0.0,0.0,0.0,2.8041,2.7677,2.7428,2.7272,2.7284,2.9468,3.1059,3.052,0.0,0.0,2.6488,2.4991,2.4544,2.5213,2.576,2.6171,2.6438,2.7486,2.8189,0.0,0.0,0.0,0.0,0.0,0.0,0.0,0.0,1.7875,1.812,0.0,1.8522,0.0,0.0,0.0,0.0,0.0,0.0,0.0,0.0,1.9774,2.039,1.998,1.9961,1.9766,1.9421,1.9363,1.8697,1.7442,1.5915,0.0,0.0,0.0,0.0,0.0,0.0,1.7284,1.884,2.0068,2.1247,2.2474,2.2923,2.312,2.3045,2.1531,2.0427,1.9761,1.8145,1.6897,1.6082,1.5638,0.0,0.0,0.0,0.0,0.0,0.0,0.0,0.0,0.0,0.0,0.0,0.0,0.0,0.0,0.0,0.0,0.0,0.0,0.0,0.0,1.3353,0.0,0.0,0.0,0.0,0.0,0.0,0.0,0.0,0.0,0.0,2.002,2.1896,2.3869,2.5422,0.0,0.0,0.0,0.0,2.7655,2.772,2.8214,2.8449,2.784,2.9241,2.9948,2.8638,0.0,0.0,2.8401,2.9938,3.0975,2.9468,2.9948,3.0719,3.192,2.9719,2.8234,2.876,2.7948,2.7406,2.799,2.874,2.9222,2.2575,0.0,0.0,0.0,0.0,2.0664,2.1357,2.2549,2.2139,2.1572,2.0918,2.0553,0.0,0.0,0.0,0.0,0.0,0.0,1.8945,1.9871,2.038,2.0869,2.1318,2.1318,2.125,2.1133,2.082,2.0166,1.918,1.8442,1.7165,1.5421,0.0,0.0,0.0,0.0,1.8131,1.8888,2.0643,2.1932,2.263,2.3355,2.3364,2.2531,2.1707,2.083,1.9823,1.8881,1.7887,1.6897,1.6283,0.0,0.0,0.0,0.0,0.0,0.0,0.0,0.0,0.0,0.0,0.0,0.0,0.0,0.0,0.0,0.0,0.0,0.0,0.0,1.277,1.3639,1.421,0.0,0.0,0.0,0.0,0.0,0.0,0.0,0.0,0.0,2.3751,2.477,2.5635,0.0,0.0,2.739,2.757,2.8019,2.8473,2.8893,0.0,0.0,0.0,2.9648,2.9541,2.9293,3.0351,3.1197,3.128,3.2206,3.2805,3.2329,3.2047,3.1983,3.2181,3.0474,2.9185,2.9659,2.9517,2.9525,3.0245,3.0622,3.0748,2.5478,2.3428,2.2314,2.2246,2.2861,2.2715,2.3418,2.4639,2.4219,2.3799,2.3369,2.2721,2.1592,2.0057,1.9886,0.0,0.0,0.0,2.0781,2.1887,2.1846,2.2249,2.2852,2.2725,2.2549,2.2363,2.1902,2.1346,2.0693,2.0264,1.9055,1.7204,0.0,0.0,1.6441,1.7812,1.8883,1.9624,2.1171,2.2411,2.328,2.3749,2.3552,2.2644,2.2108,2.1393,2.0489,1.966,1.8773,1.7883,1.7046,1.6224,0.0,0.0,0.0,0.0,0.0,0.0,0.0,0.0,0.0,0.0,0.0,0.9812,0.8379,0.0,0.0,0.0,1.0952,1.2362,1.3972,1.4209,0.0,0.0,0.0,0.0,0.0,0.0,0.0,2.0427,2.1989,2.3392,2.4583,2.5433,2.6199,2.6892,2.7345,2.769,2.7974,0.0,2.8839,2.9454,2.9773,3.0102,3.0434,3.0312,3.0201,3.0338,3.1003,3.1644,3.2069,3.2734,3.3182,3.3135,3.2824,3.253,3.253,3.1154,3.0151,3.0557,3.0464,3.0588,3.1292,3.1436,3.1511,2.791,2.6992,2.499,2.4336,2.458,2.4248,2.4531,2.5185,2.4805,2.5039,2.5615,2.4844,2.4023,2.3237,2.198,0.0,0.0,2.249,2.3066,2.3838,2.3838,2.4043,2.4385,2.4014,2.3633,2.3188,2.2812,2.2393,2.1973,2.1543,2.0713,1.9529,1.8889,1.8532,1.8444,1.8854,1.9763,2.1069,2.1871,2.2926,2.4265,2.4127,2.374,2.3195,2.2556,2.2008,2.1509,2.0427,1.9483,1.8773,1.7809,1.6672,1.5386,0.0,0.0,0.0,0.0,0.0,0.0,0.0,0.0,0.0,0.0,0.0,0.0,0.0,0.0,0.0,1.2935,0.0,1.5399,1.498,0.0,0.0,0.0,1.6515,1.7112,1.8737,2.0044,2.0582,0.0,0.0,0.0,0.0,2.5906,2.7328,2.7533,2.7797,2.833,2.8538,2.886,2.9347,2.9969,3.0398,3.047,3.0987,3.1345,3.1361,3.1496,3.1509,3.1582,3.2035,3.2449,3.252,3.252,3.2504,3.252,3.1842,3.1501,3.1363,3.0949,3.079,3.1463,3.1628,3.1823,2.8955,2.8398,2.7568,2.6904,2.6426,2.6641,2.667,2.6553,2.6445,2.6103,2.5654,2.5156,2.4619,2.4102,2.3799,2.3711,2.3818,2.3926,2.4072,2.4258,2.4268,2.4326,2.4368,2.4316,2.4219,2.4092,2.3691,2.3262,2.2789,2.2412,2.1894,2.1329,2.1105,2.0427,1.93,2.0285,2.1694,2.3456,2.4015,2.4632,2.5206,2.4448,2.3929,2.3791,2.2422,2.1631,2.1509,2.0401,1.9346,1.8394,1.8,1.7285,1.6111,1.5433,0.0,0.0,0.0,0.0,0.0,0.0,0.0,0.0,0.0,1.3022,1.0533,0.0,1.3393,0.0,1.3907,1.4858,1.5459,1.5709,0.0,0.0,1.8419,1.9152,2.0202,2.1155,2.1978,2.2604,2.3556,2.4364,2.4873,2.5218,2.5675,2.6427,2.7092,2.737,2.6905,2.8182,2.8929,2.8559,2.9007,2.9572,3.0233,3.1013,3.1467,3.1496,3.1496,3.1496,3.1496,3.1611,3.1739,3.1768,3.1739,3.1739,3.1768,3.1626,3.1508,3.1486,3.1371,3.1451,3.2108,3.2243,3.2467,2.96,2.9189,2.8955,2.8476,2.7842,2.7519,2.7353,2.7305,2.7305,2.6934,2.621,2.5644,2.5234,2.4962,2.5,2.4962,2.5,2.4962,2.4953,2.4962,2.501,2.4953,2.5,2.4805,2.4977,2.5456,2.4542,2.4098,2.4179,2.3436,2.2764,2.2178,2.269,2.2613,2.1987,2.1951,2.2849,2.4587,2.5319,2.565,2.5565,2.4782,2.4255,2.3979,2.2849,2.1995,2.1506,2.0918,1.9936,1.8643,1.8261,1.7567,1.6455,1.588,1.5097,0.0,0.0,0.0,0.0,0.0,0.0,0.0,0.0,0.0,0.0,0.0,1.4087,0.0,1.5116,0.0,1.664,1.7192,1.7871,1.8786,1.9619,2.0448,2.134,2.201,2.2602,2.3196,2.3608,2.3953,2.4341,2.462,2.4882,2.5213,2.6383,2.7185,2.7122,2.8035,2.8645,2.8495,2.875,2.9146,2.9659,3.0072,3.051,3.0866,3.0955,3.1058,3.1438,3.1496,3.1496,3.1496,3.1496,3.1496,3.1496,3.1496,3.157,3.1869,3.1944,3.2079,3.2407,3.2736,3.314,3.0029,2.9704,2.9648,2.9394,2.8906,2.7754,2.7412,2.7728,2.7728,2.7393,2.6885,2.6143,2.5791,2.5684,2.5684,2.5684,2.5684,2.5684,2.5684,2.5684,2.5674,2.5606,2.5586,2.5244,2.5661,2.6599,2.5169,2.4881,2.5493,2.4346,2.3487,2.2942,2.3835,2.4611,2.52,2.3961,2.3938,2.5266,2.6084,2.6248,2.5724,2.5184,2.4657,2.4104,2.3384,2.2518,2.1543,2.1355,2.0577,1.9096,1.8531,1.7802,1.6676,1.6484,1.5847,0.0,1.5024,0.0,0.0,0.0,0.0,0.0,0.0,0.0,0.0,1.4314,1.5016,1.5932,1.6522,1.724,1.8293,1.8907,1.9233,1.9334,2.0263,2.1119,2.1672,2.2121,2.2569,2.3045,2.3095,2.312,2.3306,2.3703,2.4017,2.4438,2.5715,2.6868,2.7597,2.7888,2.8156,2.8648,2.878,2.878,2.8844,2.8957,2.9317,2.9966,3.0147,3.0404,3.0955,3.1204,3.1322,3.1322,3.1409,3.1496,3.1496,3.1496,3.1735,3.2332,3.2512,3.2647,3.2871,3.326,3.3829,3.0488,3.0088,3.0078,2.9834,2.9404,2.8809,2.8223,2.7728,2.7728,2.7226,2.6514,2.6338,2.6074,2.5693,2.5684,2.5684,2.5684,2.5684,2.5684,2.5684,2.5361,2.5243,2.5185,2.5155,2.52,2.5426,2.5122,2.5033,2.5169,2.4248,2.4182,2.4859,2.4765,2.5415,2.6792,0.0,0.0,0.0,2.6621,2.6436,2.6311,2.5749,2.5197,2.4625,2.3208,0.0,2.1493,2.0614,1.9786,1.9058,1.8907,0.0,0.0,0.0,0.0,0.0,0.0,0.0,0.0,0.0,0.0,0.0,1.6625,1.627,1.5789,1.674,1.7513,1.7714,1.8205,1.8782,1.9447,2.0012,2.0566,2.0991,2.1606,2.2221,2.2719,2.2882,2.3007,2.3083,2.3108,2.3296,2.3753,2.3954,2.433,2.5109,2.5593,2.6075,2.6742,2.7354,2.7552,2.7149,2.7584,2.792,2.7966,2.8505,2.8907,2.9223,2.924,2.9303,2.9535,3.0163,3.0524,3.0584,3.1058,3.1496,3.1511,3.1496,3.1765,3.2392,3.2946,3.3469,3.4009,3.4188,3.4487,3.0947,0.0,3.0547,3.0283,0.0,2.9639,2.9062,2.8262,2.8066,2.7617,2.7063,2.6787,2.6455,2.6055,2.6064,2.5937,2.5684,2.5684,2.5684,2.5674,2.5508,2.5283,2.5059,2.5059,2.5317,2.5655,2.529,2.5317,2.5635,2.4835,2.4781,2.5403,2.5755,2.652,2.7664,2.797,2.7841,2.7306,2.704,2.6763,2.6487,2.5933,2.5347,2.4808,0.0,0.0,0.0,0.0,0.0,0.0,0.0,0.0,0.0,0.0,0.0,1.6602,1.7158,1.7355,1.6992,1.7603,1.8185,1.8554,1.8856,1.85,1.7288,1.8059,1.8694,1.8982,1.951,2.0062,2.0589,2.1169,2.1594,2.1882,2.2385,2.2819,2.3045,2.3095,2.3095,2.3133,2.3358,2.369,2.3966,2.4506,2.4958,2.5511,2.585,2.6147,2.6445,2.685,2.6905,2.6568,2.6782,2.7108,2.7129,2.7417,2.7953,2.8233,2.8363,2.8524,2.8939,2.9735,3.0313,3.0359,3.097,3.1585,3.1929,3.1989,3.2273,3.323,3.3739,3.4203,3.4831,3.4996,3.5085,3.1318,3.0996,3.0918,3.0664,3.0322,3.0234,2.9717,2.8887,0.0,0.0,0.0,2.7285,2.6894,2.6504,2.6426,2.6191,2.581,2.5723,2.5684,2.5684,2.5606,2.542,2.5116,2.499,2.5295,2.5944,2.55,2.5659,2.6364,2.5633,2.5584,2.615,2.6808,2.7527,2.8386,2.8818,2.8586,2.762,2.7381,2.709,2.6637,2.6072,2.5498,2.4938,2.4399,2.3615,2.2468,2.192,2.1154,2.015,1.9685,1.9183,1.8681,1.8643,1.8606,1.8518,1.8895,1.9183,1.9296,1.971,1.9999,2.0087,2.0566,2.0214,1.8744,1.9121,1.9647,2.02,2.0677,2.1219,2.1732,2.2142,2.2431,2.2431,2.2832,2.3095,2.3108,2.3208,2.3283,2.3321,2.3803,2.4192,2.4343,2.5034,2.5649,2.5787,2.6185,2.6487,2.6487,2.6521,2.6555,2.6521,2.6589,2.6521,2.6521,2.6555,2.6782,2.7397,2.7471,2.7769,2.8473,2.9338,2.9969,3.024,3.0981,3.1812,3.2497,3.2691,3.311,3.4279,3.4503,3.4713,3.5295,3.5489,3.5474,3.1484,3.1406,3.1035,3.0859,3.0762,3.0371,2.9707,2.8896,2.8476,2.8057,2.7718,2.766,2.7334,2.6904,2.6543,2.6357,2.6269,2.5918,2.5684,0.0,2.5352,2.5127,2.5096,2.4687,2.4565,2.4736,2.5508,2.625,2.6672,2.6239,2.6951,2.861,2.7742,2.7922,2.9415,2.9626,2.9352,2.8699,2.7758,2.7278,2.719,2.6663,2.6109,2.5498,2.4938,2.4148,2.3032,2.2498,2.1895,2.1292,2.1192,2.0918,2.039,2.0339,2.0126,1.9635,1.9648,1.9899,2.0427,2.0541,2.0779,2.1219,2.133,2.1094,2.044,2.0855,2.1368,2.1882,2.1995,2.2297,2.2794,2.292,2.2945,2.297,2.3058,2.3095,2.3133,2.3565,2.3866,2.3879,2.4368,2.485,2.5222,2.5498,2.5858,2.6248,2.6411,2.6487,2.6487,2.6487,2.6487,2.6487,2.6487,2.6487,2.6487,2.6487,2.6589,2.6645,2.6726,2.6879,2.7071,2.8259,2.9263,2.9938,3.12,3.2311,3.3167,3.3365,3.3709,3.4429,3.4593,3.4803,3.5385,3.5489,3.5489,3.1943,3.1514,3.1309,3.1094,3.0859,3.04,2.998,2.9551,2.8916,2.8398,2.8027,2.7998,2.7773,2.7373,2.7209,2.6826,2.6377,2.6182,2.5957,2.5684,2.5527,2.5303,2.5059,2.4863,2.4648,2.4489,2.5874,2.6641,2.69,2.7246,2.8343,2.9905,2.9297,2.942,3.0165,2.9942,2.9654,2.939,2.8586,2.7883,2.7293,2.7077,2.649,2.5624,2.536,2.4883,2.4048,2.3514,2.3113,2.2862,2.2535,2.2121,2.1606,2.1556,2.1292,2.0778,2.1004,2.128,2.1571,2.1832,2.2108,2.2359,2.2343,2.2272,2.2033,2.1958,2.2046,2.2297,2.2543,2.2832,2.3083,2.3095,2.3095,2.3095,2.3095,2.3233,2.3565,2.3803,2.4117,2.4418,2.4921,2.5322,2.5561,2.5875,2.616,2.6461,2.6487,2.6487,2.6487,2.6499,2.6487,2.6487,2.6487,2.6487,2.6487,2.6487,2.6487,2.6487,2.6751,2.6914,2.7069,2.8364,2.9747,3.0417,3.1758,3.3046,3.3918,3.4054,3.4369,3.4846,3.5026,3.522,3.5444,3.5489,3.5489,3.2412,3.1807,3.1601,3.1279,3.0859,3.0508,3.0303,3.0127,2.9492,2.8916,2.8457,2.834,2.8105,2.7875,2.7767,2.7305,2.6709,2.6475,2.6211,2.5898,2.5742,2.5499,2.5225,2.5165,2.5024,2.5099,2.6431,2.7318,2.7813,2.8578,2.9466,3.0343,3.0651,3.0733,3.0568,3.0193,2.9917,2.9767,2.934,2.8637,2.7695,2.7544,2.6992,2.6076,2.5975,2.5661,2.5034,2.4582,2.4305,2.418,2.3735,2.3296,2.2895,2.2887,2.2686,2.2334,2.2636,2.2844,2.2899,2.3246,2.3484,2.3484,2.3484,2.3484,2.3446,2.3108,2.2732,2.2569,2.2857,2.3145,2.3296,2.3321,2.3346,2.3446,2.3484,2.371,2.4117,2.428,2.4494,2.4983,2.546,2.582,2.5875,2.621,2.6461,2.6474,2.6487,2.6487,2.6499,2.6575,2.665,2.6512,2.6487,2.6487,2.6487,2.6487,2.6549,2.6637,2.6979,2.7291,2.7741,2.9302,3.0692,3.11,3.2417,3.3748,3.4496,3.4743,3.4921,3.534,3.5415,3.5459,3.5474,3.5489,3.5489,3.2744,3.2559,3.1855,3.1279,3.0918,3.084,3.0586,3.0225,3.0098,2.9609,2.8887,2.8457,2.8281,2.8184,2.7894,2.766,2.7503,2.6738,2.6387,2.6289,2.5869,2.5664,2.5644,2.5264,2.5641,2.6587,2.7466,2.8651,3.0039,3.0201,3.032,3.0465,3.1038,3.1097,3.0683,3.057,3.0294,2.9804,2.9754,2.9415,2.8762,2.8298,2.7745,2.7168,2.7118,2.6615,2.5611,2.5473,2.5222,2.4763,2.4675,2.4612,2.4537,2.455,2.4512,2.4456,2.4499,2.4562,2.4537,2.46,2.4587,2.4637,2.4575,2.4575,2.4575,2.455,2.4098,2.3346,2.3095,2.3396,2.381,2.3916,2.4092,2.4437,2.4525,2.4662,2.4738,2.5159,2.5485,2.5511,2.6034,2.6411,2.6361,2.6436,2.6474,2.6487,2.6487,2.6524,2.6612,2.6901,2.7052,2.6688,2.6524,2.6549,2.6549,2.6512,2.6751,2.7128,2.7268,2.757,2.8238,2.9359,3.0686,3.1702,3.2995,3.4321,3.5008,3.54,3.537,3.5429,3.5489,3.5489,3.5489,3.5489,3.5489,3.3018,3.2764,3.2422,3.1885,3.1279,3.1006,3.0781,3.0586,3.0322,2.999,2.9609,2.8965,2.8525,2.8291,2.8105,2.791,2.7699,2.7295,2.6992,2.6738,2.6328,2.6123,2.6074,2.5674,2.6109,2.7342,2.8315,2.953,3.0822,3.1636,3.1792,3.1527,3.1755,3.1763,3.1524,3.0934,3.0495,3.0281,2.9955,2.9679,2.9402,2.8888,2.8335,2.7833,2.777,2.7419,2.6703,2.6625,2.6339,2.585,2.5787,2.5636,2.5297,2.5285,2.5134,2.4838,2.48,2.48,2.48,2.48,2.48,2.48,2.48,2.48,2.48,2.48,2.4575,2.4211,2.4098,2.4211,2.4424,2.4449,2.4582,2.4782,2.48,2.4946,2.5259,2.546,2.5699,2.6084,2.6336,2.6487,2.6487,2.6487,2.6487,2.6487,2.6499,2.6612,2.6914,2.719,2.7306,2.7419,2.7431,2.7304,2.7077,2.6989,2.7228,2.7645,2.8059,2.8361,2.8697,3.0382,3.1859,3.222,3.3684,3.4824,3.5332,3.5489,3.5489,3.5489,3.5489,3.5489,3.5489,3.5489,3.5489,3.3242,3.2969,3.2851,3.2295,3.1504,3.1201,3.0996,3.0859,3.0527,3.0312,3.0127,2.9531,2.8965,2.8496,2.835,2.8115,2.7851,2.7767,2.75,2.7158,2.6758,2.6494,2.6367,2.6074,2.6683,2.806,2.8936,3.0214,3.1633,3.2612,3.2855,3.2503,3.2453,3.2365,3.2152,3.1399,3.0856,3.0595,3.0206,2.9955,2.9754,2.9377,2.89,2.8398,2.8335,2.8072,2.7568,2.7369,2.714,2.6738,2.6587,2.6311,2.5908,2.5837,2.5661,2.5322,2.5272,2.5272,2.5272,2.5272,2.5272,2.5259,2.5272,2.5272,2.5272,2.5272,2.5272,2.5272,2.5272,2.5234,2.5046,2.5034,2.5096,2.5222,2.5272,2.5448,2.582,2.5824,2.6034,2.6411,2.6461,2.6487,2.6487,2.6487,2.6487,2.6487,2.6637,2.6826,2.7291,2.7532,2.7871,2.8097,2.821,2.8097,2.7632,2.7507,2.7758,2.8185,2.8624,2.885,2.9202,3.1176,3.2544,3.2604,3.4365,3.5311,3.5457,3.5489,3.5424,3.5439,3.5279,3.5198,3.5457,3.5311,3.5246,3.3408,3.332,3.2959,3.2324,3.1523,3.1494,3.126,3.0928,3.0859,3.0605,3.0254,3.0127,2.9668,2.8906,2.8525,2.8291,2.8203,2.7861,2.7738,2.765,2.7197,2.6777,2.6396,2.6407,2.7403,2.9117,2.9464,3.0687,3.284,3.3038,3.3068,3.3074,3.3036,3.2754,3.2315,3.2127,3.1612,3.0809,3.0633,3.0331,2.988,2.9779,2.9478,2.8925,2.8863,2.8599,2.8109,2.757,2.7329,2.7256,2.6801,2.6487,2.6449,2.6449,2.6386,2.6361,2.6373,2.6386,2.6348,2.6323,2.6323,2.6361,2.6285,2.6373,2.626,2.626,2.626,2.6373,2.6273,2.6076,2.5661,2.5573,2.5762,2.6223,2.6348,2.6373,2.6411,2.6361,2.6436,2.6487,2.6487,2.6487,2.6487,2.6487,2.6524,2.6625,2.6952,2.7316,2.7519,2.821,2.8474,2.8423,2.8549,2.8675,2.8222,2.8072,2.8323,2.8737,2.9026,2.9101,3.0123,3.1119,3.196,3.2925,3.4259,3.51,3.5392,3.5424,3.5344,3.51,3.4428,3.4394,3.4971,3.4543,3.4683,3.3418,3.3379,3.2969,3.2607,3.2285,3.1758,3.1426,3.1269,3.0996,3.081,3.0605,3.0332,3.0019,2.9707,2.8994,2.8545,2.8301,2.8135,2.8066,2.8018,2.7627,2.7353,2.7261,2.7482,2.8284,2.9658,3.033,3.1412,3.2896,3.3124,3.3124,3.3124,3.3124,3.2955,3.2729,3.2403,3.1989,3.165,3.1311,3.0859,3.0369,3.0319,3.0043,2.9528,2.9478,2.9214,2.8649,2.8436,2.8172,2.7821,2.7316,2.7027,2.6989,2.6688,2.6487,2.6487,2.6487,2.6487,2.6487,2.6487,2.6487,2.6487,2.6487,2.6487,2.6487,2.6487,2.6487,2.6487,2.6487,2.6361,2.626,2.6185,2.626,2.6436,2.6487,2.6487,2.6487,2.6487,2.6487,2.6487,2.6487,2.6487,2.6512,2.6487,2.6625,2.6964,2.7216,2.7582,2.821,2.8687,2.8925,2.9164,2.934,2.9428,2.9264,2.8837,2.8775,2.9227,2.9515,2.9528,3.0139,3.0871,3.1683,3.2629,3.3939,3.4773,3.5019,3.4839,3.4839,3.4394,3.3725,3.3567,3.4346,3.3928,3.4603,3.3418,3.3379,3.3115,3.291,3.2734,3.2178,3.1758,3.1514,3.1221,3.1025,3.085,3.0557,3.0342,3.0137,2.958,2.9101,2.8691,2.8437,2.8291,2.8271,2.7998,2.8045,2.8326,2.8568,2.9397,3.0615,3.1428,3.2283,3.3025,3.3124,3.3124,3.3124,3.3124,3.3124,3.3048,3.2679,3.2428,3.2177,3.1838,3.1411,3.0934,3.0708,3.0405,3.0093,2.9892,2.9628,2.9176,2.9038,2.8737,2.836,2.7846,2.7544,2.7494,2.7017,2.6763,2.6751,2.6587,2.6487,2.6487,2.6487,2.6487,2.6487,2.6487,2.6487,2.6487,2.6487,2.6487,2.6487,2.6487,2.6487,2.6487,2.6487,2.6487,2.6487,2.6487,2.6487,2.6487,2.6487,2.6487,2.6487,2.6487,2.6562,2.6725,2.6763,2.704,2.7482,2.7682,2.8185,2.8712,2.9088,2.9302,2.9691,2.9716,2.9729,2.9628,2.934,2.9202,2.9553,2.9666,2.9754,2.996,3.0658,3.1426,3.2379,3.331,3.4143,3.4476,3.4279,3.3959,3.3587,3.2925,3.25,3.3009,3.3382,3.4177,3.3418,3.3418,3.3408,3.3174,3.2861,3.2734,3.2285,3.168,3.1514,3.1269,3.0986,3.0869,3.0615,3.0283,3.0117,2.9902,2.9443,2.8769,2.8408,2.835,2.8378,2.885,2.9556,2.9865,3.0674,3.2043,3.2765,3.305,3.3081,3.3124,3.3124,3.3124,3.3124,3.3124,3.3124,3.3036,3.2754,3.239,3.224,3.1951,3.1411,3.0984,3.0721,3.0583,3.0131,2.9842,2.9779,2.9277,2.895,2.8863,2.8411,2.8122,2.7984,2.7557,2.7293,2.7241,2.6839,2.6575,2.6587,2.6625,2.6688,2.6688,2.6587,2.6663,2.6612,2.6587,2.6549,2.6499,2.6487,2.6487,2.6499,2.6549,2.6537,2.6487,2.6487,2.6487,2.6487,2.6487,2.6487,2.6499,2.6549,2.6738,2.7128,2.7316,2.7507,2.8021,2.8448,2.8762,2.9001,2.9415,2.9716,2.9779,2.9779,2.9779,2.9779,2.9767,2.9754,2.9779,2.9767,2.9779,2.9921,3.0457,3.1119,3.2033,3.3276,3.4109,3.4177,3.3925,3.329,3.282,3.2069,3.1683,3.2272,3.2914,3.3664,3.3418,3.3418,3.3418,3.335,3.3184,3.292,3.2627,3.2334,3.1797,3.1445,3.1279,3.1016,3.081,3.0625,3.0361,3.0127,2.9951,2.9414,2.9023,2.8893,2.9349,2.9797,3.0312,3.1611,3.2689,3.3285,3.3545,3.3432,3.3187,3.3136,3.3124,3.3124,3.3124,3.3124,3.3124,3.3111,3.2955,3.2885,3.2805,3.2528,3.2001,3.18,3.1537,3.1135,3.0633,3.0357,3.0319,2.9817,2.9541,2.9503,2.8976,2.8499,2.816,2.7946,2.7858,2.7833,2.7708,2.7595,2.7595,2.7582,2.7557,2.7582,2.757,2.7381,2.7115,2.7065,2.6889,2.66,2.6487,2.6487,2.6549,2.6864,2.6901,2.6549,2.6487,2.6549,2.6587,2.6549,2.6487,2.6537,2.6826,2.7128,2.7354,2.7557,2.8072,2.8561,2.8825,2.9013,2.944,2.9628,2.9779,2.9779,2.9779,2.9779,2.9779,2.9779,2.9779,2.9779,2.9779,2.9779,2.9921,3.0101,3.0809,3.1719,3.2982,3.3644,3.3699,3.3416,3.2767,3.2071,3.1401,3.1532,3.2078,3.2662,3.3333,3.3418,3.3418,3.3418,3.3418,3.3398,3.3125,3.293,3.2734,3.2236,3.1816,3.1504,3.125,3.1025,3.0859,3.0576,3.0459,3.041,3.0,2.9658,2.9427,2.9541,3.0192,3.1192,3.3223,3.4301,3.4345,3.4098,3.3721,3.3395,3.3224,3.3124,3.3124,3.3124,3.3124,3.3124,3.3124,3.3124,3.3124,3.3111,3.2948,3.2566,3.2315,3.2064,3.1675,3.1185,3.0922,3.0884,3.0545,3.0193,2.9829,2.9428,2.9076,2.875,2.8561,2.8423,2.8336,2.8222,2.8097,2.8109,2.8047,2.8109,2.8109,2.8109,2.7971,2.7657,2.7618,2.7394,2.719,2.714,2.7102,2.7178,2.7356,2.7394,2.7165,2.7153,2.7102,2.7067,2.7115,2.7128,2.7205,2.7394,2.7645,2.7934,2.8147,2.8599,2.9101,2.9214,2.9315,2.9691,2.9767,2.9779,2.9779,2.9779,2.9779,2.9779,2.9779,2.9779,2.9779,2.9779,2.9779,2.9856,2.9895,3.0317,3.1291,3.2486,3.2869,3.2982,3.2718,3.2226,3.1522,3.1019,3.1355,3.1863,3.2211,3.2867,3.3418,3.3418,3.3418,3.3418,3.3418,3.3389,3.3184,3.2881,3.2754,3.2285,3.1689,3.1494,3.126,3.0957,3.083,3.082,3.0801,3.0449,3.0327,3.0184,3.0008,3.0577,3.2833,3.4605,3.5335,3.5232,3.4512,3.4048,3.3922,3.3445,3.3174,3.3181,3.3187,3.3124,3.3124,3.3124,3.3124,3.3124,3.3124,3.3056,3.2993,3.2579,3.229,3.224,3.1738,3.1436,3.1424,3.1286,3.0821,3.0005,2.9792,2.9679,2.9641,2.9226,2.8976,2.8925,2.8499,2.836,2.826,2.8386,2.836,2.8373,2.8386,2.816,2.8185,2.8147,2.8072,2.7946,2.7946,2.7996,2.7996,2.8109,2.8134,2.8185,2.8021,2.7946,2.8072,2.8021,2.7908,2.7971,2.8122,2.831,2.8725,2.8838,2.9227,2.9541,2.9704,2.9729,2.9754,2.9779,2.9779,2.9792,2.9792,2.9779,2.9779,2.9779,2.9829,3.0093,3.0043,2.9955,2.993,2.9956,3.0291,3.1253,3.1914,3.2203,3.2404,3.2339,3.2056,3.1508,3.1309,3.1402,3.1707,3.2187,3.266,3.3418,3.3418,3.3418,3.3418,3.3418,3.3418,3.3369,3.3223,3.292,3.2519,3.2012,3.165,3.1318,3.0918,3.0898,3.0898,3.085,3.0752,3.1204,3.1737,3.1632,3.2947,3.4907,3.5817,3.5931,3.5508,3.5144,3.4856,3.4487,3.3947,3.3684,3.3671,3.3282,3.3136,3.3124,3.3124,3.3124,3.3124,3.3136,3.3136,3.3099,3.2955,3.2855,3.2792,3.229,3.2026,3.1938,3.1587,3.111,3.0457,2.9993,2.9792,2.9804,2.9641,2.9503,2.9478,2.9415,2.9315,2.9302,2.9289,2.9315,2.934,2.9227,2.9151,2.8712,2.8675,2.8524,2.8247,2.8109,2.8147,2.8197,2.8486,2.8837,2.9164,2.8674,2.821,2.8185,2.8109,2.8109,2.8147,2.8486,2.8775,2.8938,2.9251,2.9578,2.9729,2.9779,2.9829,2.988,2.988,2.993,2.9842,2.9817,2.9792,2.9779,2.9779,2.9955,3.0369,3.0382,3.0256,3.0231,3.0231,3.0829,3.1663,3.1989,3.2251,3.2538,3.2658,3.2117,3.1631,3.1817,3.1989,3.2152,3.2542,3.2794,3.3418,3.3418,3.3418,3.3418,3.3418,3.3418,3.3418,3.3379,3.3174,3.2822,3.2402,3.1982,3.1562,3.1162,3.0976,3.0898,3.0898,3.0898,3.1559,3.2745,3.3748,3.4803,3.5819,3.6163,3.6194,3.5906,3.5608,3.532,3.4981,3.4512,3.4161,3.3872,3.3571,3.3319,3.3124,3.3124,3.3124,3.3174,3.3269,3.3332,3.3149,3.3363,3.3257,3.3106,3.2729,3.2579,3.2503,3.2026,3.1486,3.0972,3.0457,3.0143,3.0118,2.9905,2.9792,2.9779,2.9779,2.9767,2.9779,2.9779,2.9779,2.9779,2.9779,2.9641,2.9377,2.9289,2.9101,2.8925,2.8825,2.8812,2.8863,2.9114,2.9428,2.9603,2.9202,2.8812,2.8812,2.8863,2.8825,2.89,2.9076,2.9251,2.9251,2.9616,2.9741,2.9779,2.9779,2.9942,3.0105,3.0105,3.0193,3.0256,3.0344,3.0444,3.0482,3.0482,3.0507,3.0859,3.1047,3.0846,3.0796,3.0771,3.1102,3.1691,3.2028,3.234,3.2536,3.2717,3.2475,3.2261,3.2445,3.2541,3.2679,3.2692,3.3011,3.3418,3.3418,3.3418,3.3418,3.3418,3.3418,3.3418,3.3418,3.3389,3.3144,3.2725,3.2334,3.1865,3.1484,3.1064,3.0898,3.0898,3.0898,3.2045,3.3662,3.5397,3.6642,3.6145,3.6436,3.6471,3.6292,3.583,3.5646,3.5458,3.5077,3.4542,3.4236,3.4022,3.3646,3.3307,3.3187,3.3124,3.3187,3.3432,3.3508,3.3357,3.3596,3.3658,3.3495,3.3257,3.3081,3.2918,3.2554,3.2089,3.1599,3.1009,3.0721,3.0633,3.0206,3.0043,3.0018,3.003,2.9942,2.9867,2.9867,2.9779,2.9779,2.9779,2.9779,2.9716,2.9691,2.9654,2.9578,2.9767,2.9628,2.9628,2.9741,2.9817,2.9917,2.9867,2.988,2.993,2.9867,2.9779,2.9779,2.9767,2.9779,2.9792,2.9842,2.9892,3.0131,3.0168,3.0444,3.0608,3.067,3.0834,3.1047,3.1148,3.126,3.1273,3.1273,3.1311,3.1449,3.1712,3.17,3.165,3.1587,3.1499,3.1738,3.225,3.2466,3.252,3.2584,3.2626,3.2739,3.2822,3.296,3.3086,3.2998,3.3124,3.3418,3.3418,3.3418,3.3418,3.3418,3.3418,3.3418,3.3418,3.3418,3.3193,3.2783,3.2373,3.1943,3.1514,3.1133,3.0898,3.0957,3.117,3.2264,3.4946,3.732,3.8262,3.7842,3.7451,3.681,3.6505,3.6317,3.6182,3.6031,3.5642,3.5257,3.5044,3.4361,3.3847,3.3684,3.335,3.3124,3.3149,3.3244,3.3495,3.3709,3.3834,3.406,3.4186,3.3884,3.347,3.3144,3.2968,3.2842,3.2516,3.1867,3.1298,3.121,3.106,3.0947,3.0846,3.0608,3.0432,3.0369,3.0105,2.9804,2.9905,2.993,2.9779,2.9792,2.9854,2.9842,2.9792,2.9779,2.9892,2.9917,2.9829,3.0055,3.0331,3.0444,3.0583,3.0796,3.0319,2.9942,2.9867,2.9867,2.9804,2.9854,3.0269,3.0394,3.0482,3.0721,3.1035,3.116,3.1223,3.1272,3.1427,3.1738,3.1759,3.1456,3.1606,3.1926,3.2001,3.224,3.242,3.2328,3.2265,3.2102,3.2227,3.2546,3.2667,3.2704,3.2805,3.291,3.3048,3.3124,3.3124,3.3124,3.3124,3.3124,3.3418,3.3418,3.3418,3.3418,3.3418,3.3418,3.3418,3.3418,3.3418,3.3301,3.3037,3.2646,3.2226,3.1807,3.1387,3.1103,3.1306,3.2493,3.4191,3.6387,3.8304,3.9081,3.8881,3.8253,3.7637,3.6895,3.6505,3.643,3.6317,3.6069,3.578,3.5508,3.4868,3.4399,3.396,3.3608,3.3375,3.3237,3.3345,3.3621,3.3872,3.4173,3.4361,3.4562,3.4198,3.3734,3.3508,3.3194,3.3149,3.2973,3.2516,3.2039,3.175,3.1537,3.1411,3.1323,3.1173,3.0984,3.0871,3.0733,3.057,3.052,3.0545,3.0532,3.0532,3.0545,3.0545,3.0545,3.0557,3.0545,3.0545,3.0557,3.0733,3.0859,3.0984,3.1122,3.1235,3.0871,3.0532,3.0545,3.0608,3.0595,3.0696,3.0821,3.0909,3.1009,3.106,3.1361,3.1725,3.173,3.1457,3.1642,3.2084,3.2109,3.1674,3.1821,3.2466,3.2566,3.2717,3.2847,3.2847,3.2729,3.2641,3.2754,3.2885,3.296,3.3011,3.3124,3.3124,3.3124,3.3124,3.3124,3.3124,3.3124,3.3124,3.3418,3.3418,3.3418,3.3418,3.3418,3.3418,3.3418,3.3418,3.3418,3.3398,3.333,3.2978,3.25,3.2119,3.168,3.1338,3.2089,3.4191,3.6271,3.7335,3.8859,3.9345,3.9082,3.8818,3.8366,3.7425,3.6883,3.6593,3.6443,3.6392,3.6081,3.5683,3.5495,3.5006,3.4349,3.4035,3.3784,3.342,3.3633,3.3935,3.4098,3.4474,3.47,3.4768,3.4575,3.4211,3.3997,3.3696,3.337,3.3219,3.3194,3.288,3.239,3.1964,3.1637,3.1716,3.1625,3.1524,3.1486,3.1373,3.1286,3.1386,3.1348,3.1348,3.1311,3.1248,3.1223,3.126,3.1235,3.1235,3.1373,3.1248,3.1323,3.1486,3.1512,3.1549,3.1625,3.1637,3.1587,3.1273,3.1122,3.106,3.121,3.1361,3.1449,3.1537,3.1587,3.1725,3.2089,3.2269,3.2036,3.2007,3.2471,3.2654,3.2258,3.1544,3.2222,3.2887,3.305,3.3162,3.3174,3.3036,3.288,3.3011,3.3086,3.3124,3.3124,3.3124,3.3124,3.3124,3.3124,3.3124,3.3124,3.3124,3.3124,3.3418,3.3418,3.3418,3.3418,3.3418,3.3418,3.3418,3.3418,3.3418,3.3418,3.3369,3.2978,3.2598,3.2168,3.1719,3.1897,3.3239,3.5551,3.7198,3.7849,3.9077,3.9559,3.9459,3.917,3.8806,3.8391,3.7626,3.6971,3.6543,3.6392,3.6282,3.6119,3.5805,3.5332,3.5082,3.4826,3.4286,3.3746,3.3834,3.4073,3.4449,3.4763,3.5064,3.5295,3.5144,3.4881,3.4638,3.4487,3.4248,3.3834,3.3759,3.3445,3.3043,3.2805,3.2729,3.2621,3.2277,3.2077,3.2051,3.17,3.1461,3.1386,3.1499,3.1474,3.1461,3.1461,3.1641,3.1537,3.1512,3.1449,3.1386,3.1562,3.1687,3.1913,3.2114,3.224,3.2566,3.2646,3.2357,3.1775,3.1574,3.1524,3.175,3.1938,3.2039,3.2164,3.2277,3.2378,3.2616,3.278,3.2709,3.2771,3.295,3.2993,3.2907,3.1948,3.1777,3.2729,3.3071,3.3282,3.33,3.3162,3.3124,3.3136,3.3136,3.3124,3.3124,3.3124,3.3124,3.3124,3.3124,3.3124,3.3124,3.3124,3.3124,3.3418,3.3418,3.3418,3.3418,3.3418,3.3418,3.3418,3.3418,3.3418,3.3418,3.3359,3.3193,3.2891,3.2471,3.2041,3.2695,3.4556,3.6368,3.7861,3.8635,3.9362,3.9697,3.9697,3.9383,3.9183,3.8869,3.8266,3.7563,3.6883,3.6531,3.6455,3.6307,3.6069,3.5843,3.552,3.5219,3.4675,3.4148,3.3972,3.4198,3.4763,3.5177,3.5705,3.5818,3.5646,3.5357,3.5144,3.4781,3.4613,3.4374,3.4324,3.4022,3.3684,3.3483,3.337,3.3106,3.2805,3.2641,3.2654,3.239,3.2357,3.229,3.224,3.2252,3.2265,3.2357,3.2244,3.2269,3.2307,3.2265,3.2357,3.2227,3.2416,3.2579,3.2641,3.2767,3.2968,3.3099,3.2692,3.224,3.2315,3.2395,3.2432,3.2541,3.2629,3.2767,3.2918,3.3048,3.3124,3.3156,3.3151,3.2623,3.2516,3.2284,3.2389,3.2075,3.1627,3.2459,3.3364,3.3564,3.3533,3.3483,3.3269,3.3162,3.3149,3.3124,3.3124,3.3124,3.3124,3.3124,3.3124,3.3124,3.3124,3.3124,3.3124,3.3418,3.3418,3.3418,3.3418,3.3418,3.3418,3.3418,3.3418,3.3418,3.3418,3.3418,3.3379,3.3164,3.2858,3.2834,3.3516,3.5377,3.6823,3.8243,3.9362,3.9645,3.9697,3.9697,3.9647,3.9459,3.9196,3.8793,3.8328,3.7249,3.6784,3.6568,3.643,3.6392,3.6169,3.5793,3.573,3.5027,3.4562,3.4248,3.4487,3.5014,3.5705,3.6329,3.6392,3.5943,3.5683,3.5667,3.5403,3.5056,3.4906,3.4839,3.4638,3.4186,3.406,3.3796,3.3332,3.3199,3.3136,3.3099,3.3074,3.2948,3.2923,3.3061,3.3086,3.3061,3.2935,3.3023,3.3124,3.3074,3.3011,3.2948,3.3074,3.3074,3.3074,3.3074,3.3124,3.3099,3.3124,3.3124,3.296,3.3124,3.3086,3.296,3.2885,3.2867,3.288,3.3061,3.3061,3.3162,3.3357,3.3171,3.2305,3.1791,3.1372,3.1432,3.1862,3.1806,3.2414,3.3498,3.4191,3.4085,3.3922,3.3646,3.3345,3.3149,3.3124,3.3124,3.3124,3.3124,3.3124,3.3124,3.3124,3.3124,3.3124,3.3124,3.3418,3.3418,3.3418,3.3418,3.3418,3.3418,3.3418,3.3418,3.3418,3.3418,3.3418,3.3398,3.3193,3.2942,3.334,3.4165,3.5445,3.6823,3.8295,3.953,3.9697,3.9697,3.9697,3.9697,3.9659,3.9433,3.9145,3.829,3.75,3.7174,3.6857,3.6568,3.6443,3.6342,3.6182,3.6132,3.5956,3.5382,3.5257,3.527,3.5345,3.5592,3.5956,3.6169,3.6304,3.6132,3.6094,3.5931,3.583,3.5382,3.5382,3.5119,3.4738,3.4625,3.4324,3.3847,3.3407,3.3124,3.3136,3.3124,3.3124,3.3124,3.3124,3.3124,3.3124,3.3124,3.3124,3.3124,3.3124,3.3187,3.3212,3.3174,3.3149,3.325,3.3363,3.3312,3.3275,3.3533,3.3483,3.342,3.3533,3.3413,3.325,3.3174,3.3111,3.3124,3.3136,3.3187,3.3338,3.3621,3.3469,3.2626,3.1991,3.1518,3.1379,3.1692,3.223,3.2651,3.3781,3.4818,3.4613,3.4374,3.3985,3.3684,3.3413,3.3136,3.3124,3.3124,3.3124,3.3124,3.3124,3.3124,3.3124,3.3124,3.3124,3.3418,3.3418,3.3418,3.3418,3.3418,3.3418,3.3418,3.3418,3.3418,3.3418,3.3418,3.3418,3.3193,3.3004,3.3661,3.4636,3.5714,3.6897,3.8307,3.9426,3.9697,3.9697,3.9697,3.9697,3.9697,3.9634,3.9421,3.9019,3.8191,3.7475,3.7071,3.6895,3.6581,3.6405,3.6455,3.6417,3.6031,3.5633,3.5445,3.532,3.527,3.5629,3.5956,3.5931,3.6254,3.6157,3.6019,3.6292,3.6069,3.5683,3.578,3.5742,3.5295,3.5107,3.4893,3.4424,3.4173,3.3746,3.325,3.3174,3.3187,3.3149,3.3149,3.3124,3.3124,3.3162,3.3162,3.3124,3.3124,3.3262,3.3483,3.3545,3.3759,3.3859,3.3834,3.3884,3.3897,3.3997,3.4123,3.4035,3.396,3.3834,3.3658,3.3432,3.3458,3.3583,3.3671,3.3784,3.3972,3.4261,3.386,3.3146,3.251,3.2008,3.1924,3.2086,3.2877,3.3493,3.4775,3.5462,3.5119,3.4793,3.4424,3.3884,3.342,3.3262,3.3162,3.3124,3.3124,3.3124,3.3124,3.3124,3.3124,3.3124,3.3136,3.3418,3.3418,3.3418,3.3418,3.3418,3.3418,3.3418,3.3418,3.3418,3.3418,3.3418,3.3398,3.3184,3.2988,3.3588,3.4295,3.5296,3.655,3.7821,3.8788,3.9517,3.9697,3.9697,3.9697,3.9697,3.9697,3.9647,3.9383,3.8881,3.8265,3.7651,3.7374,3.6885,3.6707,3.6593,3.648,3.6157,3.5881,3.5583,3.5408,3.5403,3.5793,3.5818,3.5759,3.5843,3.5893,3.5504,3.5655,3.5617,3.5696,3.583,3.5868,3.5755,3.5717,3.5479,3.5064,3.4806,3.4474,3.3909,3.3633,3.3495,3.3483,3.3483,3.3658,3.3596,3.3483,3.3495,3.3633,3.3608,3.3796,3.3985,3.4098,3.4236,3.4405,3.4542,3.4643,3.468,3.465,3.4537,3.4412,3.4387,3.45,3.4261,3.3859,3.3822,3.4035,3.4223,3.4399,3.4638,3.4901,3.4698,3.4078,3.3552,3.3089,3.2957,3.3074,3.3684,3.4246,3.5528,3.6003,3.5646,3.5194,3.4781,3.4236,3.3583,3.3294,3.3224,3.3174,3.3124,3.3124,3.3124,3.3124,3.3124,3.3136,3.3262,3.3418,3.3418,3.3418,3.3418,3.3418,3.3418,3.3418,3.3418,3.3418,3.3418,3.3418,3.3398,3.3193,3.2933,3.3045,3.3486,3.4033,3.5364,3.6818,3.8041,3.8921,3.9631,3.9722,3.9697,3.9697,3.9697,3.9697,3.9659,3.9496,3.902,3.8404,3.7952,3.7437,3.7211,3.6985,3.6722,3.6468,3.6132,3.5855,3.583,3.5805,3.5893,3.5621,3.5571,3.5508,3.532,3.4793,3.5027,3.519,3.5408,3.5583,3.5968,3.6094,3.6157,3.5893,3.5617,3.5445,3.5152,3.4751,3.4437,3.448,3.453,3.4467,3.4374,3.4324,3.4455,3.453,3.4424,3.4286,3.4462,3.46,3.4688,3.4718,3.4989,3.5152,3.514,3.5127,3.5027,3.4914,3.4731,3.4818,3.494,3.4644,3.4206,3.434,3.4527,3.4901,3.509,3.5265,3.547,3.5615,3.5295,3.4751,3.4377,3.4207,3.4437,3.4691,3.4966,3.5759,3.6128,3.6094,3.5655,3.5069,3.45,3.3847,3.3533,3.3232,3.3187,3.3124,3.3124,3.3124,3.3124,3.3199,3.3262,3.3488,3.3418,3.3418,3.3418,3.3418,3.3418,3.3418,3.3418,3.3418,3.3418,3.3418,3.3418,3.3408,3.333,3.3144,3.2933,3.3466,3.454,3.5764,3.6846,3.8095,3.9283,3.9894,3.986,3.971,3.9697,3.9697,3.9697,3.9697,3.9634,3.9408,3.9333,3.8856,3.8078,3.7789,3.7513,3.7111,3.6769,3.643,3.6144,3.6081,3.5805,3.6056,3.5893,3.552,3.5956,3.5529,3.4919,3.5069,3.5082,3.5119,3.5332,3.5818,3.6279,3.6367,3.6292,3.6031,3.5994,3.5855,3.5567,3.514,3.4693,3.468,3.4668,3.4731,3.4851,3.4731,3.4693,3.4668,3.4756,3.4893,3.5157,3.5194,3.5282,3.5592,3.568,3.5629,3.5579,3.5491,3.526,3.5105,3.5292,3.5516,3.5008,3.4448,3.477,3.5085,3.5462,3.5708,3.5715,3.585,3.5918,3.5971,3.5426,3.5017,3.4836,3.5126,3.5511,3.5763,3.6013,3.6066,3.6094,3.5805,3.5207,3.465,3.4073,3.3646,3.3319,3.3199,3.3124,3.3124,3.3124,3.3124,3.3224,3.34,3.3709,3.3418,3.3418,3.3418,3.3418,3.3418,3.3418,3.3418,3.3418,3.3418,3.3418,3.3418,3.3418,3.3418,3.332,3.3207,3.3295,3.4348,3.5468,3.6609,3.7787,3.8773,3.9736,3.983,3.9785,3.9697,3.9697,3.9697,3.9697,3.9697,3.9697,3.9609,3.9243,3.8563,3.8014,3.809,3.7525,3.7033,3.6744,3.643,3.6292,3.5906,3.6107,3.6069,3.5621,3.5868,3.5567,3.5014,3.4919,3.4956,3.4994,3.5182,3.5705,3.6031,3.6304,3.6392,3.6417,3.6417,3.6417,3.6179,3.578,3.5228,3.5353,3.5328,3.5303,3.5203,3.5157,3.5286,3.4656,3.491,3.5215,3.5429,3.5407,3.575,3.6091,3.6141,3.6116,3.6141,3.6056,3.573,3.547,3.5485,3.5077,3.4053,3.3364,3.3357,3.3935,3.4737,3.5026,3.5302,3.5567,3.6008,3.6023,3.5906,3.5571,3.5271,3.5559,3.5858,3.6013,3.6153,3.5937,3.5855,3.5583,3.5119,3.4374,3.3872,3.3608,3.3382,3.3212,3.3136,3.3124,3.3174,3.3206,3.3458,3.3684,3.4098,3.3418,3.3418,3.3418,3.3418,3.3418,3.3418,3.3418,3.3418,3.3418,3.3418,3.3418,3.3418,3.3418,3.3408,3.332,3.3332,3.352,3.4693,3.5763,3.6813,3.8303,3.9218,3.9736,3.988,3.981,3.971,3.9697,3.9697,3.9697,3.9362,3.9413,3.9025,3.8,3.7629,3.8592,3.7751,3.7224,3.7098,3.6719,3.6493,3.643,3.6443,3.6056,3.5855,3.578,3.5516,3.5115,3.4931,3.4956,3.4969,3.5245,3.5596,3.583,3.6194,3.638,3.6417,3.6417,3.6417,3.638,3.6329,3.6216,3.6081,3.6003,3.6065,3.6241,3.6185,3.5623,3.4749,3.5193,3.5315,3.5402,3.5306,3.5665,3.6071,3.6061,3.5763,3.5655,3.6358,3.6013,3.5475,3.4775,3.4021,3.2937,3.2094,3.1867,3.2408,3.3632,3.4216,3.4389,3.4679,3.4956,3.5268,3.522,3.5271,3.5017,3.5763,3.6156,3.631,3.6292,3.5981,3.5742,3.5495,3.4893,3.4123,3.3972,3.3972,3.3571,3.3187,3.337,3.3608,3.3382,3.3445,3.3709,3.4073,3.455,3.3418,3.3418,3.3418,3.3418,3.3418,3.3418,3.3418,3.3418,3.3418,3.3418,3.3418,3.3418,3.3418,3.3418,3.3408,3.332,3.3526,3.48,3.5876,3.5865,3.7782,3.8674,3.9254,3.9721,3.9984,3.9785,3.9697,3.9697,3.9685,3.8908,3.836,3.7861,3.7002,3.6637,3.7424,3.7665,3.8178,3.7713,3.7249,3.691,3.686,3.6619,3.6329,3.6056,3.6031,3.5768,3.5316,3.5232,3.5207,3.5182,3.5483,3.5692,3.5931,3.6342,3.6392,3.6417,3.6417,3.6417,3.6417,3.6392,3.6405,3.6417,3.6417,3.6417,3.6417,3.6417,3.5667,3.4727,3.4727,3.4678,3.4727,3.3737,3.3836,3.4751,3.4775,3.4203,3.4252,3.5655,3.6108,3.5463,3.4763,3.3662,3.2559,3.1489,3.1103,3.0701,3.1663,3.2096,3.2262,3.2695,3.3043,3.3632,3.3932,3.4303,3.4617,3.4909,3.5054,3.5005,3.5482,3.5893,3.5667,3.5328,3.4893,3.4236,3.4311,3.4329,3.4098,3.3909,3.411,3.4198,3.4135,3.4085,3.4311,3.4655,3.5107,3.3418,3.3418,3.3418,3.3418,3.3418,3.3418,3.3418,3.3418,3.3418,3.3418,3.3418,3.3418,3.3418,3.3418,3.3418,3.3418,3.3534,3.4363,3.557,3.5365,3.7001,3.8136,3.886,3.9254,3.9643,3.9713,3.9656,3.953,3.8792,3.7967,3.6918,3.5988,3.5508,3.5405,3.5852,3.6268,3.7236,3.6964,3.6848,3.6788,3.6882,3.6895,3.6619,3.6443,3.6342,3.6204,3.5931,3.5759,3.5683,3.5621,3.5696,3.5855,3.6107,3.6304,3.638,3.6417,3.6417,3.6417,3.6417,3.6417,3.6417,3.6417,3.6417,3.6417,3.6216,3.587,3.486,3.4056,3.3761,3.3365,3.2967,3.1938,3.2593,3.3563,3.3464,3.2894,3.3032,3.4435,3.4896,3.435,3.4327,3.324,3.2403,3.1272,3.0438,2.9996,2.9627,3.0052,3.0559,3.1045,3.1625,3.2252,3.2764,3.3078,3.3353,3.3552,3.365,3.3662,3.4377,3.5201,3.5186,3.4789,3.4545,3.4474,3.4562,3.465,3.4726,3.4751,3.4864,3.5039,3.5177,3.5115,3.4994,3.5207,3.5545,3.3418,3.3418,3.3418,3.3418,3.3418,3.3418,3.3418,3.3418,3.3418,3.3418,3.3418,3.3418,3.3418,3.3418,3.3418,3.3418,3.3418,3.3534,3.429,3.5139,3.583,3.7191,3.8148,3.8512,3.902,3.9639,3.9526,3.8388,3.7607,3.6703,3.5332,3.4024,3.4146,3.3847,3.3808,3.4054,3.5401,3.6365,3.6639,3.6858,3.7356,3.726,3.692,3.6681,3.6455,3.6392,3.6279,3.6267,3.6006,3.5956,3.6044,3.5931,3.5956,3.6107,3.6317,3.6417,3.6417,3.6417,3.6417,3.6417,3.6417,3.637,3.6168,3.631,3.5966,3.5162,3.4056,3.2894,3.2241,3.148,3.0773,3.1276,3.1774,3.209,3.2241,3.2039,3.1927,3.2381,3.2682,3.281,3.3226,3.281,3.2489,3.1532,3.1065,3.0378,3.0062,2.9916,3.0296,3.0162,3.0721,3.1208,3.164,3.195,3.2129,3.2241,3.2241,3.2292,3.338,3.4136,3.415,3.4393,3.4542,3.4641,3.476,3.4951,3.524,3.5416,3.5483,3.5705,3.5805,3.578,3.5604,3.5579,3.5843,3.3418,3.3418,3.3418,3.3418,3.3418,3.3418,3.3418,3.3418,3.3418,3.3418,3.3418,3.3418,3.3418,3.3418,3.3418,3.3418,3.3418,3.3418,3.3597,3.4168,3.4975,3.577,3.6544,3.7219,3.8001,3.8154,3.7866,3.7305,3.6827,3.5836,3.3698,3.1998,3.2389,3.2055,3.1947,3.1856,3.424,3.6052,3.6419,3.7127,3.7668,3.7651,3.7274,3.6973,3.6619,3.6543,3.6493,3.643,3.6194,3.6279,3.627,3.6207,3.6267,3.6329,3.6417,3.6417,3.6417,3.6417,3.6417,3.6417,3.6417,3.6168,3.5727,3.503,3.4824,3.4276,3.3116,3.1938,3.0968,3.0317,2.9911,3.0162,3.0566,3.0721,3.0824,3.0669,3.0669,3.1071,3.1429,3.2498,3.2868,3.364,3.3215,3.2934,3.2413,3.1442,3.0823,3.0648,3.0199,3.011,3.0008,3.0486,3.0268,3.0472,3.0721,3.0876,3.0876,3.1019,3.2107,3.3017,3.3379,3.3756,3.4393,3.4802,3.4954,3.541,3.599,3.5925,3.5568,3.6034,3.6229,3.6241,3.6169,3.6069,3.6019,3.3418,3.3418,3.3418,3.3418,3.3418,3.3418,3.3418,3.3418,3.3418,3.3418,3.3418,3.3418,3.3418,3.3418,3.3418,3.3418,3.3418,3.3418,3.3471,3.3776,3.4435,3.5067,3.557,3.6086,3.6927,3.6963,3.677,3.6241,3.5569,3.3797,3.1604,3.1112,3.0898,3.0898,3.0986,3.1411,3.3124,3.5099,3.6507,3.736,3.7898,3.8191,3.7877,3.7425,3.6973,3.6795,3.6681,3.6606,3.643,3.6216,3.6108,3.5619,3.5559,3.5571,3.6073,3.6121,3.6417,3.6417,3.6417,3.6417,3.6417,3.6216,3.5571,3.4715,3.3613,3.2755,3.1735,3.0773,3.0016,2.9408,2.9154,2.8953,2.9207,2.9408,2.9303,2.9154,2.9513,2.9974,3.1008,3.2286,3.334,3.4438,3.4638,3.4299,3.412,3.3696,3.3121,3.26,3.1591,3.046,3.0061,2.996,2.9342,2.89,2.925,2.966,2.966,2.9911,3.0721,3.1642,3.2302,3.3319,3.4198,3.475,3.5146,3.5364,3.5341,3.5498,3.539,3.581,3.6156,3.6213,3.6235,3.6317,3.6304,3.3418,3.3418,3.3418,3.3418,3.3418,3.3418,3.3418,3.3418,3.3418,3.3418,3.3418,3.3418,3.3418,3.3418,3.3418,3.3418,3.3418,3.3418,3.3418,3.3418,3.3597,3.4188,3.48,3.5235,3.5804,3.6509,3.626,3.4842,3.346,3.2147,3.1357,3.0908,3.0898,3.0898,3.0898,3.0898,3.2436,3.4437,3.5406,3.6179,3.8265,3.8869,3.8617,3.8078,3.7613,3.7236,3.7111,3.687,3.648,3.6028,3.5331,3.4653,3.4276,3.4581,3.5283,3.5823,3.6168,3.6417,3.6417,3.6417,3.6417,3.6358,3.6203,3.4642,3.3143,3.2191,3.1378,2.9964,2.9154,2.89,2.8654,2.8601,2.8698,2.8804,2.8698,2.8644,2.8857,2.946,3.0411,3.1651,3.2787,3.3856,3.4281,3.379,3.3597,3.4583,3.4486,3.3672,3.2742,3.1004,3.0282,2.971,2.8977,2.8441,2.8495,2.8804,2.8601,2.8953,2.967,3.0348,3.1142,3.2558,3.4093,3.4168,3.412,3.4168,3.4203,3.4264,3.4508,3.5005,3.5403,3.5953,3.6156,3.6168,3.6417,3.3418,3.3418,3.3418,3.3418,3.3418,3.3418,3.3418,3.3418,3.3418,3.3418,3.3418,3.3418,3.3418,3.3418,3.3418,3.3418,3.3418,3.3418,3.3418,3.3418,3.3418,3.3597,3.4017,3.416,3.4575,3.4745,3.4335,3.3466,3.2475,3.1653,3.1182,3.0937,3.0898,3.0898,3.0898,3.0947,3.194,3.381,3.4114,3.5725,3.8454,3.8955,3.8781,3.8492,3.8116,3.7852,3.7638,3.7312,3.7073,3.6755,3.5248,3.4017,3.2905,3.3822,3.4434,3.4981,3.5823,3.6168,3.6417,3.6417,3.6417,3.6061,3.5511,3.4044,3.2844,3.218,3.1071,2.9565,2.8601,2.8398,2.8301,2.8301,2.8301,2.8301,2.8301,2.8301,2.8291,2.9059,2.9964,3.103,3.209,3.2733,3.3281,3.3491,3.3292,3.3132,3.2959,3.2548,3.2275,3.1164,3.053,2.9891,2.8878,2.8388,2.8344,2.8301,2.8301,2.8301,2.8857,2.9513,3.012,3.1491,3.2805,3.2794,3.2783,3.2805,3.2805,3.2794,3.3143,3.3836,3.4301,3.4751,3.5259,3.5367,3.5966,3.3144,3.3164,3.3287,3.3418,3.3418,3.3418,3.3418,3.3418,3.3418,3.3418,3.3418,3.3418,3.3418,3.3418,3.3418,3.3418,3.3418,3.3418,3.3418,3.3418,3.3418,3.3418,3.3418,3.3408,3.373,3.3865,3.3317,3.2603,3.2041,3.1611,3.1338,3.1152,3.1055,3.0918,3.0908,3.1005,3.1604,3.3088,3.3031,3.4847,3.7755,3.8016,3.8233,3.8138,3.8326,3.8241,3.8203,3.7827,3.7171,3.601,3.414,3.2594,3.1721,3.1988,3.3155,3.4227,3.5126,3.5763,3.6216,3.6417,3.6417,3.6061,3.5918,3.4848,3.2744,3.1927,3.0824,2.9408,2.8601,2.8301,2.8301,2.8301,2.8301,2.8301,2.8301,2.8301,2.8291,2.8654,2.9565,3.0525,3.1327,3.1785,3.2331,3.2833,3.2682,3.2682,3.2342,3.209,3.1735,3.0968,3.0473,2.9922,2.89,2.8388,2.8291,2.8301,2.8301,2.8301,2.8301,2.9059,2.9964,3.0721,3.1429,3.1429,3.1429,3.1429,3.1429,3.1429,3.2028,3.2783,3.3143,3.3453,3.3958,3.4471,3.5054,3.2744,3.2851,3.3242,3.3418,3.3418,3.3418,3.3418,3.3418,3.3418,3.3418,3.3418,3.3418,3.3418,3.3418,3.3418,3.3418,3.3418,3.3418,3.3418,3.3418,3.3418,3.3418,3.3418,3.3408,3.3548,3.345,3.3066,3.2891,3.2637,3.2168,3.1787,3.1562,3.126,3.0976,3.0957,3.1015,3.1498,3.2264,3.2644,3.336,3.4958,3.6541,3.7311,3.7867,3.8386,3.8893,3.8806,3.8291,3.7341,3.5443,3.3272,3.1485,3.0936,3.1172,3.2359,3.3583,3.4824,3.5559,3.6108,3.6417,3.6417,3.637,3.6417,3.5355,3.3243,3.1825,3.0721,2.966,2.8857,2.8301,2.8301,2.8301,2.8301,2.8301,2.8301,2.8301,2.8344,2.8344,2.9164,3.0016,3.0317,3.0721,3.1133,3.1684,3.1774,3.1836,3.1836,3.1836,3.1429,3.0421,2.9608,2.9313,2.8804,2.8451,2.8291,2.8301,2.8301,2.8301,2.8398,2.9049,2.9608,2.9869,3.0068,3.0068,3.0057,3.012,3.0068,3.0068,3.0773,3.1469,3.1887,3.209,3.2443,3.3017,3.3854,3.249,3.2822,3.3242,3.3408,3.3418,3.3418,3.3418,3.3418,3.3418,3.3418,3.3418,3.3418,3.3418,3.3418,3.3418,3.3418,3.3418,3.3418,3.3418,3.3418,3.3418,3.3418,3.3418,3.3418,3.3418,3.335,3.3252,3.3115,3.293,3.2637,3.2344,3.2031,3.1611,3.1387,3.1318,3.1299,3.1161,3.1634,3.1604,3.194,3.2928,3.4792,3.7145,3.8012,3.881,3.9315,3.9396,3.8981,3.7907,3.6008,3.3338,3.1034,3.0368,3.0842,3.2101,3.3138,3.4382,3.556,3.6111,3.637,3.6417,3.6417,3.6263,3.5763,3.3946,3.2582,3.1429,3.0057,2.9207,2.8451,2.8301,2.8301,2.8301,2.8301,2.8301,2.8301,2.8291,2.8291,2.8654,2.89,2.9006,2.9154,2.926,2.9565,2.9555,2.9608,2.966,2.967,2.9817,2.926,2.8847,2.8698,2.8548,2.8451,2.8301,2.8301,2.8301,2.8301,2.8344,2.8698,2.8857,2.8601,2.8698,2.9049,2.8953,2.89,2.8857,2.9112,2.9112,2.9765,3.0317,3.0732,3.103,3.168,3.2639]}]]